<?xml version="1.0" encoding="UTF-8"?>
<gpx version="1.1" creator="2bulu-scraper" xmlns="http://www.topografix.com/GPX/1/1">
  <metadata><name>:31方山</name><desc>source: 2bulu.com trackId=76842216; exported 2026-09-01T14:53:27.048Z</desc>
    <bounds minlat="28.821082" minlon="105.289646" maxlat="28.841928" maxlon="105.315038"/>
    <link href="https://www.2bulu.com/track/t-Bp8B0ocShk%252Fp%252FR2KBg5Tzw%253D%253D.htm"><text>2bulu 源页面</text></link>
  </metadata>
  <wpt lat="28.832301" lon="105.291037"><ele>333</ele><name></name></wpt>
  <wpt lat="28.832804" lon="105.293055"><ele>372</ele><name>向右</name></wpt>
  <wpt lat="28.832372" lon="105.29368"><ele>382</ele><name></name></wpt>
  <wpt lat="28.827065" lon="105.29702"><ele>377</ele><name>向左上山</name></wpt>
  <wpt lat="28.825971" lon="105.298091"><ele>425</ele><name></name></wpt>
  <wpt lat="28.825898" lon="105.298283"><ele>442</ele><name></name></wpt>
  <wpt lat="28.825748" lon="105.298564"><ele>467</ele><name></name></wpt>
  <wpt lat="28.825577" lon="105.298582"><ele>474</ele><name></name></wpt>
  <wpt lat="28.825284" lon="105.298471"><ele>474</ele><name></name></wpt>
  <wpt lat="28.824651" lon="105.298349"><ele>477</ele><name></name></wpt>
  <wpt lat="28.823454" lon="105.302668"><ele>593</ele><name></name></wpt>
  <wpt lat="28.823922" lon="105.302774"><ele>614</ele><name></name></wpt>
  <wpt lat="28.824108" lon="105.302978"><ele>625</ele><name>山顶竹林</name></wpt>
  <wpt lat="28.824345" lon="105.303764"><ele>631</ele><name></name></wpt>
  <wpt lat="28.826366" lon="105.307515"><ele>612</ele><name></name></wpt>
  <wpt lat="28.831726" lon="105.311918"><ele>630</ele><name></name></wpt>
  <wpt lat="28.832637" lon="105.314146"><ele>598</ele><name></name></wpt>
  <wpt lat="28.834428" lon="105.314771"><ele>607</ele><name></name></wpt>
  <wpt lat="28.834532" lon="105.314881"><ele>608</ele><name></name></wpt>
  <wpt lat="28.833583" lon="105.313592"><ele>573</ele><name></name></wpt>
  <wpt lat="28.833672" lon="105.31348"><ele>561</ele><name></name></wpt>
  <wpt lat="28.833921" lon="105.313452"><ele>548</ele><name></name></wpt>
  <wpt lat="28.83443" lon="105.313164"><ele>502</ele><name></name></wpt>
  <trk><name>:31方山</name>
      <trkseg>
        <trkpt lat="28.832768" lon="105.29004"><ele>316.64297</ele><time>2025-12-27T18:02:48.000Z</time></trkpt>
        <trkpt lat="28.832767" lon="105.290054"><ele>317.28137</ele><time>2025-12-27T18:02:53.000Z</time></trkpt>
        <trkpt lat="28.832776" lon="105.290122"><ele>318.94876</ele><time>2025-12-27T18:02:57.000Z</time></trkpt>
        <trkpt lat="28.832802" lon="105.290196"><ele>319.96252</ele><time>2025-12-27T18:03:02.000Z</time></trkpt>
        <trkpt lat="28.832807" lon="105.290258"><ele>321.04495</ele><time>2025-12-27T18:03:09.000Z</time></trkpt>
        <trkpt lat="28.832821" lon="105.290291"><ele>321.2104</ele><time>2025-12-27T18:03:12.000Z</time></trkpt>
        <trkpt lat="28.832841" lon="105.290328"><ele>321.2675</ele><time>2025-12-27T18:03:14.000Z</time></trkpt>
        <trkpt lat="28.832859" lon="105.290406"><ele>322.6802</ele><time>2025-12-27T18:03:23.000Z</time></trkpt>
        <trkpt lat="28.832882" lon="105.290449"><ele>323.29532</ele><time>2025-12-27T18:03:28.000Z</time></trkpt>
        <trkpt lat="28.832894" lon="105.290497"><ele>323.56375</ele><time>2025-12-27T18:03:32.000Z</time></trkpt>
        <trkpt lat="28.832899" lon="105.290558"><ele>324.55063</ele><time>2025-12-27T18:03:37.000Z</time></trkpt>
        <trkpt lat="28.832909" lon="105.290608"><ele>325.60132</ele><time>2025-12-27T18:03:41.000Z</time></trkpt>
        <trkpt lat="28.83292" lon="105.29067"><ele>327.3073</ele><time>2025-12-27T18:03:46.000Z</time></trkpt>
        <trkpt lat="28.832876" lon="105.290678"><ele>327.34125</ele><time>2025-12-27T18:03:59.000Z</time></trkpt>
        <trkpt lat="28.832875" lon="105.290716"><ele>326.90863</ele><time>2025-12-27T18:04:06.000Z</time></trkpt>
        <trkpt lat="28.832867" lon="105.290766"><ele>327.89404</ele><time>2025-12-27T18:04:10.000Z</time></trkpt>
        <trkpt lat="28.832837" lon="105.290802"><ele>328.56665</ele><time>2025-12-27T18:04:13.000Z</time></trkpt>
        <trkpt lat="28.832788" lon="105.29083"><ele>329.43195</ele><time>2025-12-27T18:04:17.000Z</time></trkpt>
        <trkpt lat="28.832734" lon="105.290853"><ele>331.12256</ele><time>2025-12-27T18:04:21.000Z</time></trkpt>
        <trkpt lat="28.832678" lon="105.290873"><ele>331.87772</ele><time>2025-12-27T18:04:25.000Z</time></trkpt>
        <trkpt lat="28.832625" lon="105.290881"><ele>332.16177</ele><time>2025-12-27T18:04:29.000Z</time></trkpt>
        <trkpt lat="28.832575" lon="105.290896"><ele>332.26917</ele><time>2025-12-27T18:04:33.000Z</time></trkpt>
        <trkpt lat="28.832528" lon="105.290911"><ele>332.39044</ele><time>2025-12-27T18:04:37.000Z</time></trkpt>
        <trkpt lat="28.832485" lon="105.29093"><ele>331.90997</ele><time>2025-12-27T18:04:41.000Z</time></trkpt>
        <trkpt lat="28.832436" lon="105.290955"><ele>331.87268</ele><time>2025-12-27T18:04:46.000Z</time></trkpt>
        <trkpt lat="28.832392" lon="105.290978"><ele>331.91937</ele><time>2025-12-27T18:04:50.000Z</time></trkpt>
        <trkpt lat="28.832349" lon="105.291004"><ele>331.1472</ele><time>2025-12-27T18:04:54.000Z</time></trkpt>
        <trkpt lat="28.832299" lon="105.291037"><ele>332.15466</ele><time>2025-12-27T18:05:01.000Z</time></trkpt>
        <trkpt lat="28.83229" lon="105.291097"><ele>332.52646</ele><time>2025-12-27T18:05:16.000Z</time></trkpt>
        <trkpt lat="28.83229" lon="105.291146"><ele>332.96753</ele><time>2025-12-27T18:05:22.000Z</time></trkpt>
        <trkpt lat="28.832291" lon="105.291198"><ele>333.49304</ele><time>2025-12-27T18:05:26.000Z</time></trkpt>
        <trkpt lat="28.832303" lon="105.291251"><ele>333.9475</ele><time>2025-12-27T18:05:30.000Z</time></trkpt>
        <trkpt lat="28.832313" lon="105.291314"><ele>334.95505</ele><time>2025-12-27T18:05:35.000Z</time></trkpt>
        <trkpt lat="28.832317" lon="105.29137"><ele>335.77814</ele><time>2025-12-27T18:05:40.000Z</time></trkpt>
        <trkpt lat="28.832331" lon="105.291421"><ele>336.7703</ele><time>2025-12-27T18:05:44.000Z</time></trkpt>
        <trkpt lat="28.832344" lon="105.29148"><ele>337.72736</ele><time>2025-12-27T18:05:49.000Z</time></trkpt>
        <trkpt lat="28.832361" lon="105.291529"><ele>338.57462</ele><time>2025-12-27T18:05:53.000Z</time></trkpt>
        <trkpt lat="28.83239" lon="105.29158"><ele>339.38065</ele><time>2025-12-27T18:05:58.000Z</time></trkpt>
        <trkpt lat="28.832425" lon="105.29162"><ele>340.11554</ele><time>2025-12-27T18:06:03.000Z</time></trkpt>
        <trkpt lat="28.832469" lon="105.29164"><ele>340.78366</ele><time>2025-12-27T18:06:07.000Z</time></trkpt>
        <trkpt lat="28.83252" lon="105.291657"><ele>341.29538</ele><time>2025-12-27T18:06:12.000Z</time></trkpt>
        <trkpt lat="28.83256" lon="105.291687"><ele>342.86258</ele><time>2025-12-27T18:06:17.000Z</time></trkpt>
        <trkpt lat="28.832595" lon="105.291732"><ele>343.81665</ele><time>2025-12-27T18:06:22.000Z</time></trkpt>
        <trkpt lat="28.832641" lon="105.291772"><ele>345.777</ele><time>2025-12-27T18:06:28.000Z</time></trkpt>
        <trkpt lat="28.832671" lon="105.29181"><ele>345.40143</ele><time>2025-12-27T18:06:33.000Z</time></trkpt>
        <trkpt lat="28.832704" lon="105.291845"><ele>345.51068</ele><time>2025-12-27T18:06:38.000Z</time></trkpt>
        <trkpt lat="28.832736" lon="105.291885"><ele>346.53702</ele><time>2025-12-27T18:06:42.000Z</time></trkpt>
        <trkpt lat="28.832765" lon="105.291934"><ele>347.2611</ele><time>2025-12-27T18:06:46.000Z</time></trkpt>
        <trkpt lat="28.832776" lon="105.291989"><ele>347.211</ele><time>2025-12-27T18:06:50.000Z</time></trkpt>
        <trkpt lat="28.832755" lon="105.292053"><ele>346.9132</ele><time>2025-12-27T18:06:55.000Z</time></trkpt>
        <trkpt lat="28.83275" lon="105.292111"><ele>348.8086</ele><time>2025-12-27T18:07:01.000Z</time></trkpt>
        <trkpt lat="28.832741" lon="105.292159"><ele>349.71713</ele><time>2025-12-27T18:07:06.000Z</time></trkpt>
        <trkpt lat="28.832722" lon="105.292216"><ele>351.04294</ele><time>2025-12-27T18:07:12.000Z</time></trkpt>
        <trkpt lat="28.832692" lon="105.292257"><ele>351.4852</ele><time>2025-12-27T18:07:16.000Z</time></trkpt>
        <trkpt lat="28.832651" lon="105.29228"><ele>352.09308</ele><time>2025-12-27T18:07:20.000Z</time></trkpt>
        <trkpt lat="28.832598" lon="105.292275"><ele>352.6958</ele><time>2025-12-27T18:07:25.000Z</time></trkpt>
        <trkpt lat="28.83255" lon="105.292258"><ele>352.77438</ele><time>2025-12-27T18:07:29.000Z</time></trkpt>
        <trkpt lat="28.832501" lon="105.292243"><ele>352.70462</ele><time>2025-12-27T18:07:33.000Z</time></trkpt>
        <trkpt lat="28.832451" lon="105.292234"><ele>353.02823</ele><time>2025-12-27T18:07:37.000Z</time></trkpt>
        <trkpt lat="28.832403" lon="105.292241"><ele>353.2777</ele><time>2025-12-27T18:07:41.000Z</time></trkpt>
        <trkpt lat="28.832356" lon="105.292258"><ele>353.89346</ele><time>2025-12-27T18:07:45.000Z</time></trkpt>
        <trkpt lat="28.832312" lon="105.292283"><ele>354.40927</ele><time>2025-12-27T18:07:49.000Z</time></trkpt>
        <trkpt lat="28.832276" lon="105.292325"><ele>355.61328</ele><time>2025-12-27T18:07:54.000Z</time></trkpt>
        <trkpt lat="28.832298" lon="105.292381"><ele>356.13623</ele><time>2025-12-27T18:08:02.000Z</time></trkpt>
        <trkpt lat="28.832332" lon="105.292433"><ele>357.32385</ele><time>2025-12-27T18:08:10.000Z</time></trkpt>
        <trkpt lat="28.832367" lon="105.292467"><ele>358.9393</ele><time>2025-12-27T18:08:16.000Z</time></trkpt>
        <trkpt lat="28.832409" lon="105.292506"><ele>360.38773</ele><time>2025-12-27T18:08:22.000Z</time></trkpt>
        <trkpt lat="28.832448" lon="105.292538"><ele>362.09863</ele><time>2025-12-27T18:08:27.000Z</time></trkpt>
        <trkpt lat="28.832488" lon="105.292579"><ele>361.89236</ele><time>2025-12-27T18:08:32.000Z</time></trkpt>
        <trkpt lat="28.832526" lon="105.292629"><ele>362.94113</ele><time>2025-12-27T18:08:39.000Z</time></trkpt>
        <trkpt lat="28.832561" lon="105.292661"><ele>364.66043</ele><time>2025-12-27T18:08:44.000Z</time></trkpt>
        <trkpt lat="28.832602" lon="105.292692"><ele>366.06146</ele><time>2025-12-27T18:08:50.000Z</time></trkpt>
        <trkpt lat="28.832636" lon="105.292727"><ele>365.33298</ele><time>2025-12-27T18:08:56.000Z</time></trkpt>
        <trkpt lat="28.832674" lon="105.292766"><ele>365.52512</ele><time>2025-12-27T18:09:02.000Z</time></trkpt>
        <trkpt lat="28.832713" lon="105.292805"><ele>365.80173</ele><time>2025-12-27T18:09:08.000Z</time></trkpt>
        <trkpt lat="28.832748" lon="105.292844"><ele>366.22287</ele><time>2025-12-27T18:09:13.000Z</time></trkpt>
        <trkpt lat="28.832779" lon="105.29289"><ele>367.70306</ele><time>2025-12-27T18:09:19.000Z</time></trkpt>
        <trkpt lat="28.832802" lon="105.292933"><ele>368.49326</ele><time>2025-12-27T18:09:24.000Z</time></trkpt>
        <trkpt lat="28.83281" lon="105.293003"><ele>370.58545</ele><time>2025-12-27T18:09:40.000Z</time></trkpt>
        <trkpt lat="28.832804" lon="105.293045"><ele>371.46494</ele><time>2025-12-27T18:09:45.000Z</time></trkpt>
        <trkpt lat="28.832793" lon="105.293106"><ele>372.617</ele><time>2025-12-27T18:09:52.000Z</time></trkpt>
        <trkpt lat="28.832761" lon="105.293146"><ele>373.16818</ele><time>2025-12-27T18:09:57.000Z</time></trkpt>
        <trkpt lat="28.832713" lon="105.293176"><ele>374.75803</ele><time>2025-12-27T18:10:03.000Z</time></trkpt>
        <trkpt lat="28.832663" lon="105.2932"><ele>376.12738</ele><time>2025-12-27T18:10:10.000Z</time></trkpt>
        <trkpt lat="28.832623" lon="105.293233"><ele>376.61896</ele><time>2025-12-27T18:10:16.000Z</time></trkpt>
        <trkpt lat="28.832585" lon="105.293272"><ele>376.779</ele><time>2025-12-27T18:10:22.000Z</time></trkpt>
        <trkpt lat="28.832547" lon="105.293297"><ele>376.2732</ele><time>2025-12-27T18:10:27.000Z</time></trkpt>
        <trkpt lat="28.832502" lon="105.293336"><ele>376.20453</ele><time>2025-12-27T18:10:33.000Z</time></trkpt>
        <trkpt lat="28.832483" lon="105.293382"><ele>377.34875</ele><time>2025-12-27T18:10:38.000Z</time></trkpt>
        <trkpt lat="28.83247" lon="105.293439"><ele>378.5017</ele><time>2025-12-27T18:10:44.000Z</time></trkpt>
        <trkpt lat="28.832463" lon="105.293498"><ele>380.83963</ele><time>2025-12-27T18:10:52.000Z</time></trkpt>
        <trkpt lat="28.832457" lon="105.293547"><ele>381.19583</ele><time>2025-12-27T18:10:58.000Z</time></trkpt>
        <trkpt lat="28.83247" lon="105.293602"><ele>381.24976</ele><time>2025-12-27T18:11:05.000Z</time></trkpt>
        <trkpt lat="28.832463" lon="105.293647"><ele>381.01212</ele><time>2025-12-27T18:11:10.000Z</time></trkpt>
        <trkpt lat="28.832427" lon="105.29368"><ele>381.68506</ele><time>2025-12-27T18:11:16.000Z</time></trkpt>
        <trkpt lat="28.832373" lon="105.293683"><ele>381.62488</ele><time>2025-12-27T18:11:27.000Z</time></trkpt>
        <trkpt lat="28.832332" lon="105.293689"><ele>381.32892</ele><time>2025-12-27T18:11:33.000Z</time></trkpt>
        <trkpt lat="28.832288" lon="105.29368"><ele>380.45447</ele><time>2025-12-27T18:11:38.000Z</time></trkpt>
        <trkpt lat="28.832238" lon="105.293674"><ele>379.82358</ele><time>2025-12-27T18:11:44.000Z</time></trkpt>
        <trkpt lat="28.832189" lon="105.293678"><ele>379.67688</ele><time>2025-12-27T18:11:50.000Z</time></trkpt>
        <trkpt lat="28.832145" lon="105.29369"><ele>379.65588</ele><time>2025-12-27T18:11:55.000Z</time></trkpt>
        <trkpt lat="28.832091" lon="105.293699"><ele>379.2066</ele><time>2025-12-27T18:12:02.000Z</time></trkpt>
        <trkpt lat="28.832035" lon="105.293706"><ele>379.90744</ele><time>2025-12-27T18:12:15.000Z</time></trkpt>
        <trkpt lat="28.831998" lon="105.293708"><ele>380.11053</ele><time>2025-12-27T18:12:20.000Z</time></trkpt>
        <trkpt lat="28.831946" lon="105.293708"><ele>380.314</ele><time>2025-12-27T18:12:25.000Z</time></trkpt>
        <trkpt lat="28.831898" lon="105.293686"><ele>379.19632</ele><time>2025-12-27T18:12:30.000Z</time></trkpt>
        <trkpt lat="28.831849" lon="105.293657"><ele>378.0713</ele><time>2025-12-27T18:12:35.000Z</time></trkpt>
        <trkpt lat="28.831805" lon="105.293646"><ele>377.64618</ele><time>2025-12-27T18:12:40.000Z</time></trkpt>
        <trkpt lat="28.831759" lon="105.293646"><ele>377.27368</ele><time>2025-12-27T18:12:45.000Z</time></trkpt>
        <trkpt lat="28.831707" lon="105.293646"><ele>376.3241</ele><time>2025-12-27T18:12:51.000Z</time></trkpt>
        <trkpt lat="28.831659" lon="105.293651"><ele>375.75842</ele><time>2025-12-27T18:12:56.000Z</time></trkpt>
        <trkpt lat="28.831604" lon="105.293647"><ele>374.62537</ele><time>2025-12-27T18:13:02.000Z</time></trkpt>
        <trkpt lat="28.831555" lon="105.293646"><ele>374.12512</ele><time>2025-12-27T18:13:07.000Z</time></trkpt>
        <trkpt lat="28.831507" lon="105.293647"><ele>373.60486</ele><time>2025-12-27T18:13:12.000Z</time></trkpt>
        <trkpt lat="28.831457" lon="105.29365"><ele>372.53302</ele><time>2025-12-27T18:13:20.000Z</time></trkpt>
        <trkpt lat="28.831409" lon="105.293644"><ele>370.7522</ele><time>2025-12-27T18:13:31.000Z</time></trkpt>
        <trkpt lat="28.831356" lon="105.293652"><ele>369.9668</ele><time>2025-12-27T18:13:42.000Z</time></trkpt>
        <trkpt lat="28.831311" lon="105.29367"><ele>368.55994</ele><time>2025-12-27T18:13:49.000Z</time></trkpt>
        <trkpt lat="28.831257" lon="105.293702"><ele>366.4842</ele><time>2025-12-27T18:13:59.000Z</time></trkpt>
        <trkpt lat="28.831206" lon="105.293712"><ele>364.8911</ele><time>2025-12-27T18:14:06.000Z</time></trkpt>
        <trkpt lat="28.83116" lon="105.293728"><ele>363.66388</ele><time>2025-12-27T18:14:13.000Z</time></trkpt>
        <trkpt lat="28.831112" lon="105.293741"><ele>363.27042</ele><time>2025-12-27T18:14:19.000Z</time></trkpt>
        <trkpt lat="28.831067" lon="105.293739"><ele>362.5833</ele><time>2025-12-27T18:14:25.000Z</time></trkpt>
        <trkpt lat="28.831016" lon="105.293748"><ele>362.22113</ele><time>2025-12-27T18:14:32.000Z</time></trkpt>
        <trkpt lat="28.83097" lon="105.293725"><ele>361.0841</ele><time>2025-12-27T18:14:40.000Z</time></trkpt>
        <trkpt lat="28.830928" lon="105.293712"><ele>360.9556</ele><time>2025-12-27T18:14:46.000Z</time></trkpt>
        <trkpt lat="28.830888" lon="105.2937"><ele>360.90515</ele><time>2025-12-27T18:14:50.000Z</time></trkpt>
        <trkpt lat="28.83084" lon="105.293663"><ele>359.94812</ele><time>2025-12-27T18:15:03.000Z</time></trkpt>
        <trkpt lat="28.830808" lon="105.293639"><ele>360.03195</ele><time>2025-12-27T18:15:08.000Z</time></trkpt>
        <trkpt lat="28.830789" lon="105.29359"><ele>359.91913</ele><time>2025-12-27T18:15:15.000Z</time></trkpt>
        <trkpt lat="28.830744" lon="105.293579"><ele>359.448</ele><time>2025-12-27T18:15:21.000Z</time></trkpt>
        <trkpt lat="28.830706" lon="105.293554"><ele>359.8246</ele><time>2025-12-27T18:15:26.000Z</time></trkpt>
        <trkpt lat="28.830657" lon="105.293527"><ele>359.61926</ele><time>2025-12-27T18:15:31.000Z</time></trkpt>
        <trkpt lat="28.830627" lon="105.293483"><ele>358.9444</ele><time>2025-12-27T18:15:36.000Z</time></trkpt>
        <trkpt lat="28.830591" lon="105.293446"><ele>358.9305</ele><time>2025-12-27T18:15:42.000Z</time></trkpt>
        <trkpt lat="28.830546" lon="105.29342"><ele>358.058</ele><time>2025-12-27T18:15:48.000Z</time></trkpt>
        <trkpt lat="28.8305" lon="105.293392"><ele>357.51154</ele><time>2025-12-27T18:15:55.000Z</time></trkpt>
        <trkpt lat="28.830451" lon="105.293388"><ele>357.8492</ele><time>2025-12-27T18:16:01.000Z</time></trkpt>
        <trkpt lat="28.830401" lon="105.293403"><ele>356.3094</ele><time>2025-12-27T18:16:08.000Z</time></trkpt>
        <trkpt lat="28.830362" lon="105.293425"><ele>356.68997</ele><time>2025-12-27T18:16:13.000Z</time></trkpt>
        <trkpt lat="28.830313" lon="105.293454"><ele>357.51135</ele><time>2025-12-27T18:16:18.000Z</time></trkpt>
        <trkpt lat="28.830267" lon="105.29349"><ele>358.72928</ele><time>2025-12-27T18:16:24.000Z</time></trkpt>
        <trkpt lat="28.830226" lon="105.293525"><ele>358.3555</ele><time>2025-12-27T18:16:30.000Z</time></trkpt>
        <trkpt lat="28.83018" lon="105.293554"><ele>358.4401</ele><time>2025-12-27T18:16:36.000Z</time></trkpt>
        <trkpt lat="28.830151" lon="105.293587"><ele>358.22897</ele><time>2025-12-27T18:16:40.000Z</time></trkpt>
        <trkpt lat="28.830121" lon="105.29363"><ele>357.51315</ele><time>2025-12-27T18:16:44.000Z</time></trkpt>
        <trkpt lat="28.830068" lon="105.293677"><ele>359.5949</ele><time>2025-12-27T18:16:54.000Z</time></trkpt>
        <trkpt lat="28.830045" lon="105.293721"><ele>360.14493</ele><time>2025-12-27T18:16:59.000Z</time></trkpt>
        <trkpt lat="28.830012" lon="105.29376"><ele>359.17206</ele><time>2025-12-27T18:17:05.000Z</time></trkpt>
        <trkpt lat="28.829979" lon="105.293795"><ele>359.82513</ele><time>2025-12-27T18:17:09.000Z</time></trkpt>
        <trkpt lat="28.829941" lon="105.293832"><ele>360.01385</ele><time>2025-12-27T18:17:14.000Z</time></trkpt>
        <trkpt lat="28.829894" lon="105.293851"><ele>359.8912</ele><time>2025-12-27T18:17:19.000Z</time></trkpt>
        <trkpt lat="28.829845" lon="105.29387"><ele>359.90796</ele><time>2025-12-27T18:17:25.000Z</time></trkpt>
        <trkpt lat="28.829803" lon="105.293888"><ele>360.9615</ele><time>2025-12-27T18:17:30.000Z</time></trkpt>
        <trkpt lat="28.82983" lon="105.293839"><ele>360.18933</ele><time>2025-12-27T18:18:46.000Z</time></trkpt>
        <trkpt lat="28.829874" lon="105.293825"><ele>360.1782</ele><time>2025-12-27T18:18:52.000Z</time></trkpt>
        <trkpt lat="28.829828" lon="105.293846"><ele>360.2115</ele><time>2025-12-27T18:19:06.000Z</time></trkpt>
        <trkpt lat="28.829785" lon="105.29388"><ele>359.67462</ele><time>2025-12-27T18:19:14.000Z</time></trkpt>
        <trkpt lat="28.829758" lon="105.29392"><ele>359.3093</ele><time>2025-12-27T18:19:20.000Z</time></trkpt>
        <trkpt lat="28.829723" lon="105.293947"><ele>359.9088</ele><time>2025-12-27T18:19:25.000Z</time></trkpt>
        <trkpt lat="28.82969" lon="105.293986"><ele>359.7224</ele><time>2025-12-27T18:19:31.000Z</time></trkpt>
        <trkpt lat="28.829648" lon="105.293996"><ele>358.72577</ele><time>2025-12-27T18:19:37.000Z</time></trkpt>
        <trkpt lat="28.829601" lon="105.294024"><ele>358.1223</ele><time>2025-12-27T18:19:44.000Z</time></trkpt>
        <trkpt lat="28.829559" lon="105.294059"><ele>358.02478</ele><time>2025-12-27T18:19:52.000Z</time></trkpt>
        <trkpt lat="28.829527" lon="105.294104"><ele>358.31796</ele><time>2025-12-27T18:21:15.000Z</time></trkpt>
        <trkpt lat="28.829505" lon="105.294136"><ele>357.5067</ele><time>2025-12-27T18:21:22.000Z</time></trkpt>
        <trkpt lat="28.829466" lon="105.294192"><ele>357.95596</ele><time>2025-12-27T18:21:30.000Z</time></trkpt>
        <trkpt lat="28.829439" lon="105.294259"><ele>358.04037</ele><time>2025-12-27T18:21:36.000Z</time></trkpt>
        <trkpt lat="28.829407" lon="105.294315"><ele>357.13702</ele><time>2025-12-27T18:21:45.000Z</time></trkpt>
        <trkpt lat="28.829386" lon="105.294358"><ele>356.88007</ele><time>2025-12-27T18:21:51.000Z</time></trkpt>
        <trkpt lat="28.829374" lon="105.294417"><ele>356.46143</ele><time>2025-12-27T18:21:57.000Z</time></trkpt>
        <trkpt lat="28.829371" lon="105.294476"><ele>356.52875</ele><time>2025-12-27T18:22:02.000Z</time></trkpt>
        <trkpt lat="28.829387" lon="105.294537"><ele>358.34448</ele><time>2025-12-27T18:22:17.000Z</time></trkpt>
        <trkpt lat="28.829401" lon="105.294574"><ele>359.4749</ele><time>2025-12-27T18:22:22.000Z</time></trkpt>
        <trkpt lat="28.829439" lon="105.294619"><ele>360.1305</ele><time>2025-12-27T18:22:30.000Z</time></trkpt>
        <trkpt lat="28.829455" lon="105.294668"><ele>360.89047</ele><time>2025-12-27T18:22:35.000Z</time></trkpt>
        <trkpt lat="28.829473" lon="105.294714"><ele>361.41672</ele><time>2025-12-27T18:22:39.000Z</time></trkpt>
        <trkpt lat="28.829472" lon="105.294771"><ele>362.68613</ele><time>2025-12-27T18:22:43.000Z</time></trkpt>
        <trkpt lat="28.829471" lon="105.294832"><ele>363.23804</ele><time>2025-12-27T18:22:48.000Z</time></trkpt>
        <trkpt lat="28.829487" lon="105.294896"><ele>364.6304</ele><time>2025-12-27T18:23:11.000Z</time></trkpt>
        <trkpt lat="28.829474" lon="105.294927"><ele>365.1392</ele><time>2025-12-27T18:23:16.000Z</time></trkpt>
        <trkpt lat="28.829456" lon="105.294983"><ele>366.113</ele><time>2025-12-27T18:23:21.000Z</time></trkpt>
        <trkpt lat="28.829421" lon="105.29503"><ele>366.26187</ele><time>2025-12-27T18:23:27.000Z</time></trkpt>
        <trkpt lat="28.829374" lon="105.29509"><ele>365.2772</ele><time>2025-12-27T18:23:34.000Z</time></trkpt>
        <trkpt lat="28.829337" lon="105.29514"><ele>364.85822</ele><time>2025-12-27T18:23:40.000Z</time></trkpt>
        <trkpt lat="28.829316" lon="105.295192"><ele>365.2181</ele><time>2025-12-27T18:23:46.000Z</time></trkpt>
        <trkpt lat="28.829295" lon="105.29524"><ele>364.8605</ele><time>2025-12-27T18:23:51.000Z</time></trkpt>
        <trkpt lat="28.829266" lon="105.295286"><ele>364.7564</ele><time>2025-12-27T18:23:57.000Z</time></trkpt>
        <trkpt lat="28.829229" lon="105.295323"><ele>364.35602</ele><time>2025-12-27T18:24:03.000Z</time></trkpt>
        <trkpt lat="28.829191" lon="105.295363"><ele>363.7544</ele><time>2025-12-27T18:24:09.000Z</time></trkpt>
        <trkpt lat="28.829153" lon="105.295392"><ele>363.36356</ele><time>2025-12-27T18:24:13.000Z</time></trkpt>
        <trkpt lat="28.829108" lon="105.295424"><ele>362.83197</ele><time>2025-12-27T18:24:18.000Z</time></trkpt>
        <trkpt lat="28.829077" lon="105.295464"><ele>362.53934</ele><time>2025-12-27T18:24:22.000Z</time></trkpt>
        <trkpt lat="28.82904" lon="105.295525"><ele>363.32355</ele><time>2025-12-27T18:24:31.000Z</time></trkpt>
        <trkpt lat="28.829012" lon="105.295558"><ele>363.50748</ele><time>2025-12-27T18:24:35.000Z</time></trkpt>
        <trkpt lat="28.828976" lon="105.295602"><ele>363.11765</ele><time>2025-12-27T18:24:40.000Z</time></trkpt>
        <trkpt lat="28.828938" lon="105.295647"><ele>362.44733</ele><time>2025-12-27T18:24:45.000Z</time></trkpt>
        <trkpt lat="28.828907" lon="105.295693"><ele>362.5096</ele><time>2025-12-27T18:24:50.000Z</time></trkpt>
        <trkpt lat="28.828872" lon="105.295735"><ele>362.50934</ele><time>2025-12-27T18:24:55.000Z</time></trkpt>
        <trkpt lat="28.828835" lon="105.29578"><ele>363.8368</ele><time>2025-12-27T18:25:01.000Z</time></trkpt>
        <trkpt lat="28.828794" lon="105.295797"><ele>364.9555</ele><time>2025-12-27T18:25:06.000Z</time></trkpt>
        <trkpt lat="28.828745" lon="105.295823"><ele>365.54947</ele><time>2025-12-27T18:25:12.000Z</time></trkpt>
        <trkpt lat="28.828706" lon="105.295846"><ele>365.01477</ele><time>2025-12-27T18:25:16.000Z</time></trkpt>
        <trkpt lat="28.828656" lon="105.295869"><ele>365.2505</ele><time>2025-12-27T18:25:21.000Z</time></trkpt>
        <trkpt lat="28.828604" lon="105.295893"><ele>365.2485</ele><time>2025-12-27T18:25:26.000Z</time></trkpt>
        <trkpt lat="28.828553" lon="105.295915"><ele>364.66983</ele><time>2025-12-27T18:25:32.000Z</time></trkpt>
        <trkpt lat="28.828511" lon="105.295948"><ele>362.9839</ele><time>2025-12-27T18:25:37.000Z</time></trkpt>
        <trkpt lat="28.828479" lon="105.295995"><ele>363.31372</ele><time>2025-12-27T18:25:43.000Z</time></trkpt>
        <trkpt lat="28.828461" lon="105.296048"><ele>365.19156</ele><time>2025-12-27T18:25:48.000Z</time></trkpt>
        <trkpt lat="28.828451" lon="105.296109"><ele>365.7218</ele><time>2025-12-27T18:25:53.000Z</time></trkpt>
        <trkpt lat="28.828452" lon="105.296178"><ele>366.20413</ele><time>2025-12-27T18:25:59.000Z</time></trkpt>
        <trkpt lat="28.828468" lon="105.296231"><ele>367.43787</ele><time>2025-12-27T18:26:05.000Z</time></trkpt>
        <trkpt lat="28.828482" lon="105.296285"><ele>368.23227</ele><time>2025-12-27T18:26:11.000Z</time></trkpt>
        <trkpt lat="28.82848" lon="105.296337"><ele>368.53714</ele><time>2025-12-27T18:26:16.000Z</time></trkpt>
        <trkpt lat="28.828463" lon="105.296395"><ele>370.85687</ele><time>2025-12-27T18:26:22.000Z</time></trkpt>
        <trkpt lat="28.828465" lon="105.296443"><ele>371.0645</ele><time>2025-12-27T18:26:26.000Z</time></trkpt>
        <trkpt lat="28.828471" lon="105.2965"><ele>371.6707</ele><time>2025-12-27T18:26:29.000Z</time></trkpt>
        <trkpt lat="28.82845" lon="105.29656"><ele>370.6823</ele><time>2025-12-27T18:26:34.000Z</time></trkpt>
        <trkpt lat="28.828416" lon="105.296617"><ele>370.18152</ele><time>2025-12-27T18:26:40.000Z</time></trkpt>
        <trkpt lat="28.828378" lon="105.296665"><ele>369.72296</ele><time>2025-12-27T18:26:44.000Z</time></trkpt>
        <trkpt lat="28.828356" lon="105.296711"><ele>369.11993</ele><time>2025-12-27T18:26:48.000Z</time></trkpt>
        <trkpt lat="28.828316" lon="105.296751"><ele>369.38104</ele><time>2025-12-27T18:26:53.000Z</time></trkpt>
        <trkpt lat="28.828268" lon="105.296781"><ele>370.06186</ele><time>2025-12-27T18:26:58.000Z</time></trkpt>
        <trkpt lat="28.828232" lon="105.296835"><ele>371.09018</ele><time>2025-12-27T18:27:05.000Z</time></trkpt>
        <trkpt lat="28.828222" lon="105.296887"><ele>372.90262</ele><time>2025-12-27T18:27:09.000Z</time></trkpt>
        <trkpt lat="28.828207" lon="105.296942"><ele>375.31375</ele><time>2025-12-27T18:27:14.000Z</time></trkpt>
        <trkpt lat="28.828185" lon="105.296993"><ele>377.32468</ele><time>2025-12-27T18:27:21.000Z</time></trkpt>
        <trkpt lat="28.828154" lon="105.297024"><ele>377.59515</ele><time>2025-12-27T18:27:26.000Z</time></trkpt>
        <trkpt lat="28.828104" lon="105.297034"><ele>377.46588</ele><time>2025-12-27T18:27:31.000Z</time></trkpt>
        <trkpt lat="28.828059" lon="105.297017"><ele>377.6094</ele><time>2025-12-27T18:27:36.000Z</time></trkpt>
        <trkpt lat="28.828007" lon="105.297033"><ele>377.5452</ele><time>2025-12-27T18:27:44.000Z</time></trkpt>
        <trkpt lat="28.828014" lon="105.296994"><ele>377.36044</ele><time>2025-12-27T18:27:51.000Z</time></trkpt>
        <trkpt lat="28.828056" lon="105.297006"><ele>376.65414</ele><time>2025-12-27T18:28:00.000Z</time></trkpt>
        <trkpt lat="28.828041" lon="105.296965"><ele>376.23334</ele><time>2025-12-27T18:28:12.000Z</time></trkpt>
        <trkpt lat="28.828059" lon="105.297034"><ele>376.42966</ele><time>2025-12-27T18:28:35.000Z</time></trkpt>
        <trkpt lat="28.828011" lon="105.297025"><ele>377.00812</ele><time>2025-12-27T18:28:46.000Z</time></trkpt>
        <trkpt lat="28.82798" lon="105.296974"><ele>376.81668</ele><time>2025-12-27T18:28:52.000Z</time></trkpt>
        <trkpt lat="28.827959" lon="105.29693"><ele>374.34116</ele><time>2025-12-27T18:28:57.000Z</time></trkpt>
        <trkpt lat="28.827925" lon="105.296896"><ele>372.15933</ele><time>2025-12-27T18:29:02.000Z</time></trkpt>
        <trkpt lat="28.827879" lon="105.296858"><ele>370.98013</ele><time>2025-12-27T18:29:14.000Z</time></trkpt>
        <trkpt lat="28.827837" lon="105.296823"><ele>371.58847</ele><time>2025-12-27T18:29:25.000Z</time></trkpt>
        <trkpt lat="28.827796" lon="105.296809"><ele>369.5368</ele><time>2025-12-27T18:29:30.000Z</time></trkpt>
        <trkpt lat="28.827748" lon="105.296797"><ele>367.67807</ele><time>2025-12-27T18:29:35.000Z</time></trkpt>
        <trkpt lat="28.827695" lon="105.296819"><ele>366.0749</ele><time>2025-12-27T18:29:41.000Z</time></trkpt>
        <trkpt lat="28.82766" lon="105.296869"><ele>366.46045</ele><time>2025-12-27T18:29:47.000Z</time></trkpt>
        <trkpt lat="28.827631" lon="105.29691"><ele>367.15927</ele><time>2025-12-27T18:29:51.000Z</time></trkpt>
        <trkpt lat="28.827589" lon="105.296951"><ele>367.1493</ele><time>2025-12-27T18:29:56.000Z</time></trkpt>
        <trkpt lat="28.827559" lon="105.296983"><ele>367.88104</ele><time>2025-12-27T18:29:59.000Z</time></trkpt>
        <trkpt lat="28.827509" lon="105.297005"><ele>368.23663</ele><time>2025-12-27T18:30:04.000Z</time></trkpt>
        <trkpt lat="28.827455" lon="105.29701"><ele>368.48798</ele><time>2025-12-27T18:30:09.000Z</time></trkpt>
        <trkpt lat="28.8274" lon="105.297005"><ele>367.97437</ele><time>2025-12-27T18:30:14.000Z</time></trkpt>
        <trkpt lat="28.827349" lon="105.297002"><ele>367.62823</ele><time>2025-12-27T18:30:19.000Z</time></trkpt>
        <trkpt lat="28.827369" lon="105.297041"><ele>373.10046</ele><time>2025-12-27T18:30:35.000Z</time></trkpt>
        <trkpt lat="28.827342" lon="105.297001"><ele>369.92847</ele><time>2025-12-27T18:30:49.000Z</time></trkpt>
        <trkpt lat="28.827298" lon="105.296997"><ele>368.68454</ele><time>2025-12-27T18:30:54.000Z</time></trkpt>
        <trkpt lat="28.827248" lon="105.297003"><ele>369.82034</ele><time>2025-12-27T18:31:01.000Z</time></trkpt>
        <trkpt lat="28.827208" lon="105.297036"><ele>371.0799</ele><time>2025-12-27T18:31:12.000Z</time></trkpt>
        <trkpt lat="28.827169" lon="105.297038"><ele>370.49292</ele><time>2025-12-27T18:31:17.000Z</time></trkpt>
        <trkpt lat="28.827119" lon="105.297025"><ele>371.80484</ele><time>2025-12-27T18:31:23.000Z</time></trkpt>
        <trkpt lat="28.827068" lon="105.297035"><ele>372.67462</ele><time>2025-12-27T18:31:32.000Z</time></trkpt>
        <trkpt lat="28.827106" lon="105.297019"><ele>373.83438</ele><time>2025-12-27T18:31:47.000Z</time></trkpt>
        <trkpt lat="28.827066" lon="105.297019"><ele>376.68823</ele><time>2025-12-27T18:32:15.000Z</time></trkpt>
        <trkpt lat="28.827062" lon="105.297071"><ele>372.18295</ele><time>2025-12-27T18:32:32.000Z</time></trkpt>
        <trkpt lat="28.827047" lon="105.29712"><ele>371.5935</ele><time>2025-12-27T18:32:42.000Z</time></trkpt>
        <trkpt lat="28.827008" lon="105.297162"><ele>378.4341</ele><time>2025-12-27T18:33:00.000Z</time></trkpt>
        <trkpt lat="28.826975" lon="105.297185"><ele>379.6568</ele><time>2025-12-27T18:33:06.000Z</time></trkpt>
        <trkpt lat="28.826944" lon="105.297226"><ele>378.09717</ele><time>2025-12-27T18:33:12.000Z</time></trkpt>
        <trkpt lat="28.82692" lon="105.297282"><ele>378.3777</ele><time>2025-12-27T18:33:17.000Z</time></trkpt>
        <trkpt lat="28.826884" lon="105.297324"><ele>379.396</ele><time>2025-12-27T18:33:23.000Z</time></trkpt>
        <trkpt lat="28.82683" lon="105.297321"><ele>383.13144</ele><time>2025-12-27T18:33:37.000Z</time></trkpt>
        <trkpt lat="28.826791" lon="105.297349"><ele>386.63403</ele><time>2025-12-27T18:33:48.000Z</time></trkpt>
        <trkpt lat="28.826764" lon="105.297397"><ele>387.81372</ele><time>2025-12-27T18:33:58.000Z</time></trkpt>
        <trkpt lat="28.826741" lon="105.297458"><ele>388.20844</ele><time>2025-12-27T18:34:10.000Z</time></trkpt>
        <trkpt lat="28.826754" lon="105.297516"><ele>389.8198</ele><time>2025-12-27T18:34:23.000Z</time></trkpt>
        <trkpt lat="28.826715" lon="105.297533"><ele>395.48962</ele><time>2025-12-27T18:34:35.000Z</time></trkpt>
        <trkpt lat="28.826674" lon="105.297561"><ele>397.8753</ele><time>2025-12-27T18:34:40.000Z</time></trkpt>
        <trkpt lat="28.826625" lon="105.297573"><ele>398.93256</ele><time>2025-12-27T18:34:45.000Z</time></trkpt>
        <trkpt lat="28.826574" lon="105.297586"><ele>400.76788</ele><time>2025-12-27T18:34:52.000Z</time></trkpt>
        <trkpt lat="28.826534" lon="105.297614"><ele>403.03128</ele><time>2025-12-27T18:35:00.000Z</time></trkpt>
        <trkpt lat="28.82649" lon="105.297626"><ele>402.92776</ele><time>2025-12-27T18:35:06.000Z</time></trkpt>
        <trkpt lat="28.826443" lon="105.297624"><ele>402.63577</ele><time>2025-12-27T18:35:13.000Z</time></trkpt>
        <trkpt lat="28.826394" lon="105.297621"><ele>401.3126</ele><time>2025-12-27T18:35:19.000Z</time></trkpt>
        <trkpt lat="28.826346" lon="105.297648"><ele>401.73785</ele><time>2025-12-27T18:35:26.000Z</time></trkpt>
        <trkpt lat="28.826307" lon="105.297683"><ele>401.79272</ele><time>2025-12-27T18:35:33.000Z</time></trkpt>
        <trkpt lat="28.826257" lon="105.297692"><ele>404.8729</ele><time>2025-12-27T18:35:43.000Z</time></trkpt>
        <trkpt lat="28.826208" lon="105.29769"><ele>405.57907</ele><time>2025-12-27T18:35:54.000Z</time></trkpt>
        <trkpt lat="28.826156" lon="105.297687"><ele>405.89185</ele><time>2025-12-27T18:36:04.000Z</time></trkpt>
        <trkpt lat="28.826129" lon="105.297638"><ele>400.2292</ele><time>2025-12-27T18:36:56.000Z</time></trkpt>
        <trkpt lat="28.826173" lon="105.297667"><ele>402.73755</ele><time>2025-12-27T18:37:31.000Z</time></trkpt>
        <trkpt lat="28.826211" lon="105.297655"><ele>404.06976</ele><time>2025-12-27T18:37:37.000Z</time></trkpt>
        <trkpt lat="28.826265" lon="105.297665"><ele>403.56693</ele><time>2025-12-27T18:37:44.000Z</time></trkpt>
        <trkpt lat="28.826262" lon="105.297709"><ele>402.51898</ele><time>2025-12-27T18:37:50.000Z</time></trkpt>
        <trkpt lat="28.826229" lon="105.297765"><ele>405.74207</ele><time>2025-12-27T18:38:02.000Z</time></trkpt>
        <trkpt lat="28.826271" lon="105.297764"><ele>410.8926</ele><time>2025-12-27T18:38:12.000Z</time></trkpt>
        <trkpt lat="28.826249" lon="105.297799"><ele>415.3004</ele><time>2025-12-27T18:38:26.000Z</time></trkpt>
        <trkpt lat="28.826206" lon="105.297833"><ele>416.9495</ele><time>2025-12-27T18:38:35.000Z</time></trkpt>
        <trkpt lat="28.826161" lon="105.297852"><ele>420.0856</ele><time>2025-12-27T18:38:44.000Z</time></trkpt>
        <trkpt lat="28.826113" lon="105.297855"><ele>420.13806</ele><time>2025-12-27T18:38:50.000Z</time></trkpt>
        <trkpt lat="28.826071" lon="105.297886"><ele>420.619</ele><time>2025-12-27T18:39:01.000Z</time></trkpt>
        <trkpt lat="28.826034" lon="105.297926"><ele>420.45898</ele><time>2025-12-27T18:39:13.000Z</time></trkpt>
        <trkpt lat="28.825991" lon="105.297934"><ele>424.15503</ele><time>2025-12-27T18:39:20.000Z</time></trkpt>
        <trkpt lat="28.825996" lon="105.297988"><ele>426.6439</ele><time>2025-12-27T18:39:37.000Z</time></trkpt>
        <trkpt lat="28.825973" lon="105.298034"><ele>426.3677</ele><time>2025-12-27T18:39:54.000Z</time></trkpt>
        <trkpt lat="28.82597" lon="105.298091"><ele>424.75406</ele><time>2025-12-27T18:40:17.000Z</time></trkpt>
        <trkpt lat="28.825925" lon="105.29809"><ele>434.70633</ele><time>2025-12-27T18:40:56.000Z</time></trkpt>
        <trkpt lat="28.825967" lon="105.298112"><ele>434.08972</ele><time>2025-12-27T18:41:33.000Z</time></trkpt>
        <trkpt lat="28.825927" lon="105.298093"><ele>438.43323</ele><time>2025-12-27T18:41:50.000Z</time></trkpt>
        <trkpt lat="28.825881" lon="105.29805"><ele>434.24783</ele><time>2025-12-27T18:42:54.000Z</time></trkpt>
        <trkpt lat="28.825836" lon="105.298067"><ele>432.91772</ele><time>2025-12-27T18:43:09.000Z</time></trkpt>
        <trkpt lat="28.825793" lon="105.298101"><ele>428.23956</ele><time>2025-12-27T18:43:32.000Z</time></trkpt>
        <trkpt lat="28.825802" lon="105.298153"><ele>430.22665</ele><time>2025-12-27T18:44:18.000Z</time></trkpt>
        <trkpt lat="28.825834" lon="105.298188"><ele>437.68375</ele><time>2025-12-27T18:44:41.000Z</time></trkpt>
        <trkpt lat="28.825862" lon="105.298232"><ele>438.74072</ele><time>2025-12-27T18:44:50.000Z</time></trkpt>
        <trkpt lat="28.825886" lon="105.298289"><ele>438.02783</ele><time>2025-12-27T18:45:07.000Z</time></trkpt>
        <trkpt lat="28.825872" lon="105.29824"><ele>435.1055</ele><time>2025-12-27T18:45:48.000Z</time></trkpt>
        <trkpt lat="28.82588" lon="105.29829"><ele>434.5912</ele><time>2025-12-27T18:46:04.000Z</time></trkpt>
        <trkpt lat="28.825897" lon="105.298344"><ele>431.72125</ele><time>2025-12-27T18:46:19.000Z</time></trkpt>
        <trkpt lat="28.825898" lon="105.298286"><ele>441.4342</ele><time>2025-12-27T18:46:35.000Z</time></trkpt>
        <trkpt lat="28.825922" lon="105.298328"><ele>432.94168</ele><time>2025-12-27T18:47:29.000Z</time></trkpt>
        <trkpt lat="28.82588" lon="105.298309"><ele>439.38766</ele><time>2025-12-27T18:47:50.000Z</time></trkpt>
        <trkpt lat="28.825857" lon="105.298356"><ele>449.5543</ele><time>2025-12-27T18:48:44.000Z</time></trkpt>
        <trkpt lat="28.825851" lon="105.298409"><ele>452.07877</ele><time>2025-12-27T18:49:11.000Z</time></trkpt>
        <trkpt lat="28.825891" lon="105.298442"><ele>449.70245</ele><time>2025-12-27T18:49:54.000Z</time></trkpt>
        <trkpt lat="28.825905" lon="105.298392"><ele>457.65033</ele><time>2025-12-27T18:50:15.000Z</time></trkpt>
        <trkpt lat="28.825932" lon="105.298349"><ele>451.21832</ele><time>2025-12-27T18:53:27.000Z</time></trkpt>
        <trkpt lat="28.825978" lon="105.298356"><ele>455.44727</ele><time>2025-12-27T18:53:46.000Z</time></trkpt>
        <trkpt lat="28.825935" lon="105.298371"><ele>452.4582</ele><time>2025-12-27T18:54:21.000Z</time></trkpt>
        <trkpt lat="28.825874" lon="105.298369"><ele>454.55585</ele><time>2025-12-27T18:55:01.000Z</time></trkpt>
        <trkpt lat="28.825848" lon="105.298414"><ele>456.85757</ele><time>2025-12-27T18:55:22.000Z</time></trkpt>
        <trkpt lat="28.825822" lon="105.298469"><ele>450.14737</ele><time>2025-12-27T18:56:18.000Z</time></trkpt>
        <trkpt lat="28.8258" lon="105.298517"><ele>463.59186</ele><time>2025-12-27T18:57:15.000Z</time></trkpt>
        <trkpt lat="28.825756" lon="105.298503"><ele>465.24106</ele><time>2025-12-27T18:57:49.000Z</time></trkpt>
        <trkpt lat="28.825764" lon="105.298554"><ele>468.5304</ele><time>2025-12-27T18:58:22.000Z</time></trkpt>
        <trkpt lat="28.825781" lon="105.298603"><ele>468.5224</ele><time>2025-12-27T18:59:00.000Z</time></trkpt>
        <trkpt lat="28.825749" lon="105.298564"><ele>467.14746</ele><time>2025-12-27T18:59:23.000Z</time></trkpt>
        <trkpt lat="28.825708" lon="105.298589"><ele>471.77942</ele><time>2025-12-27T19:00:08.000Z</time></trkpt>
        <trkpt lat="28.825667" lon="105.298567"><ele>469.5466</ele><time>2025-12-27T19:00:48.000Z</time></trkpt>
        <trkpt lat="28.825626" lon="105.298585"><ele>473.26566</ele><time>2025-12-27T19:00:59.000Z</time></trkpt>
        <trkpt lat="28.825577" lon="105.298583"><ele>474.10016</ele><time>2025-12-27T19:01:13.000Z</time></trkpt>
        <trkpt lat="28.825531" lon="105.298584"><ele>475.2694</ele><time>2025-12-27T19:01:37.000Z</time></trkpt>
        <trkpt lat="28.825498" lon="105.298546"><ele>470.71964</ele><time>2025-12-27T19:02:01.000Z</time></trkpt>
        <trkpt lat="28.825476" lon="105.298504"><ele>472.56876</ele><time>2025-12-27T19:02:08.000Z</time></trkpt>
        <trkpt lat="28.825407" lon="105.2985"><ele>472.6446</ele><time>2025-12-27T19:02:23.000Z</time></trkpt>
        <trkpt lat="28.825382" lon="105.298467"><ele>472.2565</ele><time>2025-12-27T19:02:29.000Z</time></trkpt>
        <trkpt lat="28.825335" lon="105.298445"><ele>471.79984</ele><time>2025-12-27T19:02:40.000Z</time></trkpt>
        <trkpt lat="28.825281" lon="105.298433"><ele>471.46295</ele><time>2025-12-27T19:03:02.000Z</time></trkpt>
        <trkpt lat="28.825237" lon="105.298443"><ele>472.42102</ele><time>2025-12-27T19:03:21.000Z</time></trkpt>
        <trkpt lat="28.825279" lon="105.298469"><ele>473.86676</ele><time>2025-12-27T19:03:32.000Z</time></trkpt>
        <trkpt lat="28.825237" lon="105.298467"><ele>470.515</ele><time>2025-12-27T19:03:57.000Z</time></trkpt>
        <trkpt lat="28.825176" lon="105.298452"><ele>472.10242</ele><time>2025-12-27T19:04:20.000Z</time></trkpt>
        <trkpt lat="28.825139" lon="105.298492"><ele>470.66397</ele><time>2025-12-27T19:04:44.000Z</time></trkpt>
        <trkpt lat="28.825166" lon="105.298495"><ele>470.92874</ele><time>2025-12-27T19:04:47.000Z</time></trkpt>
        <trkpt lat="28.825153" lon="105.298462"><ele>470.18365</ele><time>2025-12-27T19:05:02.000Z</time></trkpt>
        <trkpt lat="28.825108" lon="105.298439"><ele>471.18835</ele><time>2025-12-27T19:05:13.000Z</time></trkpt>
        <trkpt lat="28.825075" lon="105.298409"><ele>472.8301</ele><time>2025-12-27T19:05:17.000Z</time></trkpt>
        <trkpt lat="28.825072" lon="105.298437"><ele>473.72574</ele><time>2025-12-27T19:05:24.000Z</time></trkpt>
        <trkpt lat="28.825038" lon="105.298472"><ele>474.53455</ele><time>2025-12-27T19:05:58.000Z</time></trkpt>
        <trkpt lat="28.824994" lon="105.298462"><ele>475.7765</ele><time>2025-12-27T19:06:11.000Z</time></trkpt>
        <trkpt lat="28.825044" lon="105.298473"><ele>476.1109</ele><time>2025-12-27T19:07:03.000Z</time></trkpt>
        <trkpt lat="28.825008" lon="105.298476"><ele>474.95508</ele><time>2025-12-27T19:07:12.000Z</time></trkpt>
        <trkpt lat="28.824982" lon="105.298428"><ele>476.1249</ele><time>2025-12-27T19:07:26.000Z</time></trkpt>
        <trkpt lat="28.824979" lon="105.298467"><ele>475.73468</ele><time>2025-12-27T19:07:34.000Z</time></trkpt>
        <trkpt lat="28.824988" lon="105.298426"><ele>475.74026</ele><time>2025-12-27T19:07:38.000Z</time></trkpt>
        <trkpt lat="28.824978" lon="105.298439"><ele>475.95697</ele><time>2025-12-27T19:07:42.000Z</time></trkpt>
        <trkpt lat="28.824995" lon="105.298405"><ele>475.21918</ele><time>2025-12-27T19:08:08.000Z</time></trkpt>
        <trkpt lat="28.824967" lon="105.298442"><ele>474.2064</ele><time>2025-12-27T19:08:23.000Z</time></trkpt>
        <trkpt lat="28.82501" lon="105.298432"><ele>477.62988</ele><time>2025-12-27T19:08:51.000Z</time></trkpt>
        <trkpt lat="28.824986" lon="105.298476"><ele>476.3848</ele><time>2025-12-27T19:09:08.000Z</time></trkpt>
        <trkpt lat="28.824931" lon="105.298497"><ele>474.53107</ele><time>2025-12-27T19:09:21.000Z</time></trkpt>
        <trkpt lat="28.824904" lon="105.298447"><ele>469.5908</ele><time>2025-12-27T19:09:41.000Z</time></trkpt>
        <trkpt lat="28.824861" lon="105.298456"><ele>472.23904</ele><time>2025-12-27T19:10:01.000Z</time></trkpt>
        <trkpt lat="28.824816" lon="105.298461"><ele>471.68686</ele><time>2025-12-27T19:10:11.000Z</time></trkpt>
        <trkpt lat="28.824761" lon="105.298474"><ele>475.558</ele><time>2025-12-27T19:11:31.000Z</time></trkpt>
        <trkpt lat="28.824726" lon="105.298498"><ele>473.06152</ele><time>2025-12-27T19:11:42.000Z</time></trkpt>
        <trkpt lat="28.824724" lon="105.298455"><ele>474.37952</ele><time>2025-12-27T19:11:51.000Z</time></trkpt>
        <trkpt lat="28.824769" lon="105.298454"><ele>474.5842</ele><time>2025-12-27T19:12:00.000Z</time></trkpt>
        <trkpt lat="28.824725" lon="105.298461"><ele>472.09204</ele><time>2025-12-27T19:12:16.000Z</time></trkpt>
        <trkpt lat="28.824676" lon="105.298465"><ele>475.77362</ele><time>2025-12-27T19:13:03.000Z</time></trkpt>
        <trkpt lat="28.824629" lon="105.298442"><ele>478.73322</ele><time>2025-12-27T19:13:10.000Z</time></trkpt>
        <trkpt lat="28.824611" lon="105.298449"><ele>478.93918</ele><time>2025-12-27T19:13:28.000Z</time></trkpt>
        <trkpt lat="28.824636" lon="105.298394"><ele>478.2943</ele><time>2025-12-27T19:13:36.000Z</time></trkpt>
        <trkpt lat="28.824606" lon="105.298418"><ele>476.61942</ele><time>2025-12-27T19:13:44.000Z</time></trkpt>
        <trkpt lat="28.824637" lon="105.298362"><ele>477.80783</ele><time>2025-12-27T19:13:53.000Z</time></trkpt>
        <trkpt lat="28.824644" lon="105.298312"><ele>477.70135</ele><time>2025-12-27T19:13:54.000Z</time></trkpt>
        <trkpt lat="28.824652" lon="105.298322"><ele>477.53857</ele><time>2025-12-27T19:13:56.000Z</time></trkpt>
        <trkpt lat="28.824633" lon="105.298384"><ele>476.16864</ele><time>2025-12-27T19:14:05.000Z</time></trkpt>
        <trkpt lat="28.824647" lon="105.298358"><ele>476.80408</ele><time>2025-12-27T19:14:16.000Z</time></trkpt>
        <trkpt lat="28.824607" lon="105.298333"><ele>476.14542</ele><time>2025-12-27T19:14:31.000Z</time></trkpt>
        <trkpt lat="28.824633" lon="105.298301"><ele>475.54047</ele><time>2025-12-27T19:14:37.000Z</time></trkpt>
        <trkpt lat="28.824625" lon="105.298354"><ele>474.48022</ele><time>2025-12-27T19:14:43.000Z</time></trkpt>
        <trkpt lat="28.824619" lon="105.298374"><ele>472.74512</ele><time>2025-12-27T19:14:52.000Z</time></trkpt>
        <trkpt lat="28.82463" lon="105.298384"><ele>473.2218</ele><time>2025-12-27T19:15:01.000Z</time></trkpt>
        <trkpt lat="28.824633" lon="105.29843"><ele>473.9854</ele><time>2025-12-27T19:15:04.000Z</time></trkpt>
        <trkpt lat="28.824584" lon="105.298453"><ele>476.5631</ele><time>2025-12-27T19:15:18.000Z</time></trkpt>
        <trkpt lat="28.824585" lon="105.298498"><ele>478.53036</ele><time>2025-12-27T19:15:25.000Z</time></trkpt>
        <trkpt lat="28.824552" lon="105.298516"><ele>478.52625</ele><time>2025-12-27T19:15:30.000Z</time></trkpt>
        <trkpt lat="28.824549" lon="105.298467"><ele>479.52145</ele><time>2025-12-27T19:15:46.000Z</time></trkpt>
        <trkpt lat="28.824527" lon="105.298506"><ele>479.29495</ele><time>2025-12-27T19:16:12.000Z</time></trkpt>
        <trkpt lat="28.824575" lon="105.298499"><ele>480.70068</ele><time>2025-12-27T19:17:36.000Z</time></trkpt>
        <trkpt lat="28.824558" lon="105.298465"><ele>478.5401</ele><time>2025-12-27T19:17:58.000Z</time></trkpt>
        <trkpt lat="28.824526" lon="105.298417"><ele>479.24698</ele><time>2025-12-27T19:18:27.000Z</time></trkpt>
        <trkpt lat="28.824535" lon="105.298355"><ele>478.82272</ele><time>2025-12-27T19:18:36.000Z</time></trkpt>
        <trkpt lat="28.824578" lon="105.298346"><ele>476.1005</ele><time>2025-12-27T19:18:47.000Z</time></trkpt>
        <trkpt lat="28.824625" lon="105.298325"><ele>473.6302</ele><time>2025-12-27T19:18:56.000Z</time></trkpt>
        <trkpt lat="28.824588" lon="105.298349"><ele>472.81613</ele><time>2025-12-27T19:19:25.000Z</time></trkpt>
        <trkpt lat="28.824591" lon="105.298298"><ele>474.5378</ele><time>2025-12-27T19:19:50.000Z</time></trkpt>
        <trkpt lat="28.824554" lon="105.298325"><ele>476.10254</ele><time>2025-12-27T19:21:58.000Z</time></trkpt>
        <trkpt lat="28.824524" lon="105.298369"><ele>477.66492</ele><time>2025-12-27T19:22:22.000Z</time></trkpt>
        <trkpt lat="28.824488" lon="105.298337"><ele>478.89392</ele><time>2025-12-27T19:22:42.000Z</time></trkpt>
        <trkpt lat="28.824486" lon="105.298282"><ele>479.69757</ele><time>2025-12-27T19:22:53.000Z</time></trkpt>
        <trkpt lat="28.82445" lon="105.298251"><ele>478.58194</ele><time>2025-12-27T19:23:28.000Z</time></trkpt>
        <trkpt lat="28.824419" lon="105.298293"><ele>481.3254</ele><time>2025-12-27T19:24:18.000Z</time></trkpt>
        <trkpt lat="28.824383" lon="105.298326"><ele>482.92902</ele><time>2025-12-27T19:25:14.000Z</time></trkpt>
        <trkpt lat="28.82435" lon="105.298367"><ele>482.24384</ele><time>2025-12-27T19:25:54.000Z</time></trkpt>
        <trkpt lat="28.824314" lon="105.298387"><ele>482.28387</ele><time>2025-12-27T19:26:03.000Z</time></trkpt>
        <trkpt lat="28.824267" lon="105.298375"><ele>483.9902</ele><time>2025-12-27T19:26:13.000Z</time></trkpt>
        <trkpt lat="28.824227" lon="105.298384"><ele>484.7632</ele><time>2025-12-27T19:26:19.000Z</time></trkpt>
        <trkpt lat="28.824177" lon="105.298398"><ele>485.1384</ele><time>2025-12-27T19:26:35.000Z</time></trkpt>
        <trkpt lat="28.824156" lon="105.298353"><ele>486.90347</ele><time>2025-12-27T19:26:50.000Z</time></trkpt>
        <trkpt lat="28.824122" lon="105.29831"><ele>488.6414</ele><time>2025-12-27T19:27:05.000Z</time></trkpt>
        <trkpt lat="28.824121" lon="105.298253"><ele>490.3384</ele><time>2025-12-27T19:27:24.000Z</time></trkpt>
        <trkpt lat="28.824162" lon="105.29822"><ele>491.26337</ele><time>2025-12-27T19:27:39.000Z</time></trkpt>
        <trkpt lat="28.824168" lon="105.298169"><ele>491.84314</ele><time>2025-12-27T19:27:49.000Z</time></trkpt>
        <trkpt lat="28.824192" lon="105.298123"><ele>494.03003</ele><time>2025-12-27T19:28:01.000Z</time></trkpt>
        <trkpt lat="28.824154" lon="105.298093"><ele>495.73428</ele><time>2025-12-27T19:28:25.000Z</time></trkpt>
        <trkpt lat="28.824119" lon="105.298066"><ele>495.72137</ele><time>2025-12-27T19:28:32.000Z</time></trkpt>
        <trkpt lat="28.824069" lon="105.29807"><ele>495.66223</ele><time>2025-12-27T19:28:41.000Z</time></trkpt>
        <trkpt lat="28.824024" lon="105.298075"><ele>495.47366</ele><time>2025-12-27T19:28:47.000Z</time></trkpt>
        <trkpt lat="28.823978" lon="105.298086"><ele>495.1092</ele><time>2025-12-27T19:28:52.000Z</time></trkpt>
        <trkpt lat="28.823933" lon="105.298112"><ele>495.4779</ele><time>2025-12-27T19:28:58.000Z</time></trkpt>
        <trkpt lat="28.823906" lon="105.298148"><ele>495.53253</ele><time>2025-12-27T19:29:02.000Z</time></trkpt>
        <trkpt lat="28.823855" lon="105.298174"><ele>495.31113</ele><time>2025-12-27T19:29:11.000Z</time></trkpt>
        <trkpt lat="28.823817" lon="105.298198"><ele>495.59845</ele><time>2025-12-27T19:29:22.000Z</time></trkpt>
        <trkpt lat="28.82378" lon="105.298232"><ele>496.8449</ele><time>2025-12-27T19:29:32.000Z</time></trkpt>
        <trkpt lat="28.82373" lon="105.298249"><ele>497.62494</ele><time>2025-12-27T19:29:44.000Z</time></trkpt>
        <trkpt lat="28.823685" lon="105.298251"><ele>497.37637</ele><time>2025-12-27T19:29:52.000Z</time></trkpt>
        <trkpt lat="28.823637" lon="105.298248"><ele>498.93198</ele><time>2025-12-27T19:29:59.000Z</time></trkpt>
        <trkpt lat="28.823594" lon="105.29821"><ele>500.82312</ele><time>2025-12-27T19:30:12.000Z</time></trkpt>
        <trkpt lat="28.823596" lon="105.298156"><ele>501.93927</ele><time>2025-12-27T19:30:20.000Z</time></trkpt>
        <trkpt lat="28.823589" lon="105.298099"><ele>502.8556</ele><time>2025-12-27T19:30:29.000Z</time></trkpt>
        <trkpt lat="28.823545" lon="105.298074"><ele>504.41818</ele><time>2025-12-27T19:30:44.000Z</time></trkpt>
        <trkpt lat="28.823508" lon="105.298043"><ele>504.72565</ele><time>2025-12-27T19:30:53.000Z</time></trkpt>
        <trkpt lat="28.823459" lon="105.298036"><ele>505.24463</ele><time>2025-12-27T19:31:01.000Z</time></trkpt>
        <trkpt lat="28.823406" lon="105.298029"><ele>506.29977</ele><time>2025-12-27T19:31:26.000Z</time></trkpt>
        <trkpt lat="28.82337" lon="105.298049"><ele>506.13</ele><time>2025-12-27T19:31:34.000Z</time></trkpt>
        <trkpt lat="28.823338" lon="105.298093"><ele>505.5031</ele><time>2025-12-27T19:31:45.000Z</time></trkpt>
        <trkpt lat="28.823304" lon="105.298136"><ele>506.03287</ele><time>2025-12-27T19:31:55.000Z</time></trkpt>
        <trkpt lat="28.823271" lon="105.298168"><ele>505.8914</ele><time>2025-12-27T19:32:01.000Z</time></trkpt>
        <trkpt lat="28.823242" lon="105.298221"><ele>506.11215</ele><time>2025-12-27T19:32:20.000Z</time></trkpt>
        <trkpt lat="28.823215" lon="105.298266"><ele>506.48083</ele><time>2025-12-27T19:32:29.000Z</time></trkpt>
        <trkpt lat="28.823174" lon="105.298303"><ele>507.03925</ele><time>2025-12-27T19:32:38.000Z</time></trkpt>
        <trkpt lat="28.823124" lon="105.298322"><ele>509.4456</ele><time>2025-12-27T19:32:49.000Z</time></trkpt>
        <trkpt lat="28.823078" lon="105.298304"><ele>510.59238</ele><time>2025-12-27T19:32:57.000Z</time></trkpt>
        <trkpt lat="28.823032" lon="105.298284"><ele>511.17184</ele><time>2025-12-27T19:33:03.000Z</time></trkpt>
        <trkpt lat="28.823061" lon="105.298319"><ele>510.06564</ele><time>2025-12-27T19:34:14.000Z</time></trkpt>
        <trkpt lat="28.823027" lon="105.298285"><ele>511.33466</ele><time>2025-12-27T19:35:10.000Z</time></trkpt>
        <trkpt lat="28.822993" lon="105.298247"><ele>511.90604</ele><time>2025-12-27T19:35:16.000Z</time></trkpt>
        <trkpt lat="28.822943" lon="105.298243"><ele>512.24176</ele><time>2025-12-27T19:37:34.000Z</time></trkpt>
        <trkpt lat="28.82292" lon="105.298234"><ele>512.0632</ele><time>2025-12-27T19:37:38.000Z</time></trkpt>
        <trkpt lat="28.822848" lon="105.298227"><ele>511.2663</ele><time>2025-12-27T19:38:09.000Z</time></trkpt>
        <trkpt lat="28.822809" lon="105.29825"><ele>511.96582</ele><time>2025-12-27T19:38:14.000Z</time></trkpt>
        <trkpt lat="28.822773" lon="105.298301"><ele>512.43195</ele><time>2025-12-27T19:38:18.000Z</time></trkpt>
        <trkpt lat="28.822744" lon="105.298357"><ele>513.6875</ele><time>2025-12-27T19:38:23.000Z</time></trkpt>
        <trkpt lat="28.822735" lon="105.298416"><ele>513.8686</ele><time>2025-12-27T19:38:28.000Z</time></trkpt>
        <trkpt lat="28.822726" lon="105.298474"><ele>514.1329</ele><time>2025-12-27T19:38:33.000Z</time></trkpt>
        <trkpt lat="28.822703" lon="105.298527"><ele>514.46533</ele><time>2025-12-27T19:38:39.000Z</time></trkpt>
        <trkpt lat="28.822677" lon="105.298575"><ele>515.6616</ele><time>2025-12-27T19:38:45.000Z</time></trkpt>
        <trkpt lat="28.822666" lon="105.298625"><ele>516.6768</ele><time>2025-12-27T19:38:51.000Z</time></trkpt>
        <trkpt lat="28.82266" lon="105.298678"><ele>517.266</ele><time>2025-12-27T19:38:57.000Z</time></trkpt>
        <trkpt lat="28.822653" lon="105.298733"><ele>518.2842</ele><time>2025-12-27T19:39:05.000Z</time></trkpt>
        <trkpt lat="28.822635" lon="105.298785"><ele>519.53754</ele><time>2025-12-27T19:39:11.000Z</time></trkpt>
        <trkpt lat="28.822615" lon="105.298836"><ele>520.5558</ele><time>2025-12-27T19:39:18.000Z</time></trkpt>
        <trkpt lat="28.822594" lon="105.298883"><ele>520.83264</ele><time>2025-12-27T19:39:26.000Z</time></trkpt>
        <trkpt lat="28.822564" lon="105.298922"><ele>522.78345</ele><time>2025-12-27T19:39:34.000Z</time></trkpt>
        <trkpt lat="28.822553" lon="105.298972"><ele>524.18634</ele><time>2025-12-27T19:39:41.000Z</time></trkpt>
        <trkpt lat="28.822528" lon="105.299023"><ele>525.7972</ele><time>2025-12-27T19:39:47.000Z</time></trkpt>
        <trkpt lat="28.822501" lon="105.299076"><ele>528.3228</ele><time>2025-12-27T19:39:53.000Z</time></trkpt>
        <trkpt lat="28.822493" lon="105.299134"><ele>529.80225</ele><time>2025-12-27T19:40:00.000Z</time></trkpt>
        <trkpt lat="28.822481" lon="105.299188"><ele>532.0042</ele><time>2025-12-27T19:40:08.000Z</time></trkpt>
        <trkpt lat="28.822458" lon="105.299234"><ele>533.052</ele><time>2025-12-27T19:40:15.000Z</time></trkpt>
        <trkpt lat="28.82243" lon="105.299279"><ele>533.831</ele><time>2025-12-27T19:40:21.000Z</time></trkpt>
        <trkpt lat="28.822419" lon="105.299331"><ele>534.86646</ele><time>2025-12-27T19:40:27.000Z</time></trkpt>
        <trkpt lat="28.822411" lon="105.299387"><ele>536.3652</ele><time>2025-12-27T19:40:34.000Z</time></trkpt>
        <trkpt lat="28.822428" lon="105.299434"><ele>537.44714</ele><time>2025-12-27T19:40:41.000Z</time></trkpt>
        <trkpt lat="28.822455" lon="105.299483"><ele>538.17236</ele><time>2025-12-27T19:40:48.000Z</time></trkpt>
        <trkpt lat="28.822471" lon="105.299533"><ele>538.4345</ele><time>2025-12-27T19:40:55.000Z</time></trkpt>
        <trkpt lat="28.822506" lon="105.299567"><ele>538.431</ele><time>2025-12-27T19:41:02.000Z</time></trkpt>
        <trkpt lat="28.822547" lon="105.299599"><ele>539.18805</ele><time>2025-12-27T19:41:10.000Z</time></trkpt>
        <trkpt lat="28.822585" lon="105.299639"><ele>538.9561</ele><time>2025-12-27T19:41:16.000Z</time></trkpt>
        <trkpt lat="28.822632" lon="105.299668"><ele>539.11597</ele><time>2025-12-27T19:41:22.000Z</time></trkpt>
        <trkpt lat="28.822679" lon="105.299696"><ele>539.1616</ele><time>2025-12-27T19:41:28.000Z</time></trkpt>
        <trkpt lat="28.822726" lon="105.299722"><ele>539.12366</ele><time>2025-12-27T19:41:34.000Z</time></trkpt>
        <trkpt lat="28.822758" lon="105.299761"><ele>539.1802</ele><time>2025-12-27T19:41:39.000Z</time></trkpt>
        <trkpt lat="28.822781" lon="105.299816"><ele>539.6061</ele><time>2025-12-27T19:41:44.000Z</time></trkpt>
        <trkpt lat="28.822789" lon="105.299873"><ele>539.8456</ele><time>2025-12-27T19:41:49.000Z</time></trkpt>
        <trkpt lat="28.822781" lon="105.299937"><ele>540.5509</ele><time>2025-12-27T19:41:55.000Z</time></trkpt>
        <trkpt lat="28.822768" lon="105.299988"><ele>541.01227</ele><time>2025-12-27T19:42:00.000Z</time></trkpt>
        <trkpt lat="28.822743" lon="105.300035"><ele>541.0284</ele><time>2025-12-27T19:42:05.000Z</time></trkpt>
        <trkpt lat="28.822703" lon="105.300075"><ele>540.9615</ele><time>2025-12-27T19:42:09.000Z</time></trkpt>
        <trkpt lat="28.822661" lon="105.3001"><ele>541.5157</ele><time>2025-12-27T19:42:13.000Z</time></trkpt>
        <trkpt lat="28.82262" lon="105.300127"><ele>542.1657</ele><time>2025-12-27T19:42:17.000Z</time></trkpt>
        <trkpt lat="28.822569" lon="105.300148"><ele>542.9778</ele><time>2025-12-27T19:42:22.000Z</time></trkpt>
        <trkpt lat="28.822519" lon="105.300173"><ele>542.84436</ele><time>2025-12-27T19:42:28.000Z</time></trkpt>
        <trkpt lat="28.822478" lon="105.300199"><ele>544.22156</ele><time>2025-12-27T19:43:01.000Z</time></trkpt>
        <trkpt lat="28.822461" lon="105.300233"><ele>544.13446</ele><time>2025-12-27T19:43:05.000Z</time></trkpt>
        <trkpt lat="28.822432" lon="105.300286"><ele>543.37085</ele><time>2025-12-27T19:43:09.000Z</time></trkpt>
        <trkpt lat="28.822408" lon="105.300346"><ele>544.56744</ele><time>2025-12-27T19:43:14.000Z</time></trkpt>
        <trkpt lat="28.822373" lon="105.300404"><ele>544.7053</ele><time>2025-12-27T19:43:20.000Z</time></trkpt>
        <trkpt lat="28.822336" lon="105.300446"><ele>545.2839</ele><time>2025-12-27T19:43:25.000Z</time></trkpt>
        <trkpt lat="28.822292" lon="105.300479"><ele>546.3744</ele><time>2025-12-27T19:43:29.000Z</time></trkpt>
        <trkpt lat="28.822263" lon="105.300528"><ele>545.18567</ele><time>2025-12-27T19:43:34.000Z</time></trkpt>
        <trkpt lat="28.822222" lon="105.300546"><ele>545.03723</ele><time>2025-12-27T19:43:38.000Z</time></trkpt>
        <trkpt lat="28.822176" lon="105.300559"><ele>545.98694</ele><time>2025-12-27T19:43:42.000Z</time></trkpt>
        <trkpt lat="28.822127" lon="105.300583"><ele>547.41925</ele><time>2025-12-27T19:43:46.000Z</time></trkpt>
        <trkpt lat="28.82208" lon="105.30062"><ele>548.60803</ele><time>2025-12-27T19:43:51.000Z</time></trkpt>
        <trkpt lat="28.822045" lon="105.300664"><ele>549.1554</ele><time>2025-12-27T19:43:55.000Z</time></trkpt>
        <trkpt lat="28.822006" lon="105.300717"><ele>548.91003</ele><time>2025-12-27T19:44:00.000Z</time></trkpt>
        <trkpt lat="28.821995" lon="105.300776"><ele>548.7712</ele><time>2025-12-27T19:44:05.000Z</time></trkpt>
        <trkpt lat="28.821996" lon="105.300839"><ele>548.1512</ele><time>2025-12-27T19:44:10.000Z</time></trkpt>
        <trkpt lat="28.822025" lon="105.300893"><ele>547.59216</ele><time>2025-12-27T19:44:17.000Z</time></trkpt>
        <trkpt lat="28.822036" lon="105.300938"><ele>547.3383</ele><time>2025-12-27T19:44:21.000Z</time></trkpt>
        <trkpt lat="28.822059" lon="105.300982"><ele>547.1623</ele><time>2025-12-27T19:44:25.000Z</time></trkpt>
        <trkpt lat="28.822096" lon="105.301024"><ele>547.3331</ele><time>2025-12-27T19:44:30.000Z</time></trkpt>
        <trkpt lat="28.822137" lon="105.301058"><ele>547.3075</ele><time>2025-12-27T19:44:35.000Z</time></trkpt>
        <trkpt lat="28.822167" lon="105.301104"><ele>547.4556</ele><time>2025-12-27T19:44:42.000Z</time></trkpt>
        <trkpt lat="28.82218" lon="105.301159"><ele>547.54865</ele><time>2025-12-27T19:44:49.000Z</time></trkpt>
        <trkpt lat="28.822176" lon="105.301213"><ele>548.2216</ele><time>2025-12-27T19:44:56.000Z</time></trkpt>
        <trkpt lat="28.822148" lon="105.301259"><ele>549.7351</ele><time>2025-12-27T19:45:07.000Z</time></trkpt>
        <trkpt lat="28.822137" lon="105.301304"><ele>550.8719</ele><time>2025-12-27T19:45:14.000Z</time></trkpt>
        <trkpt lat="28.822127" lon="105.301362"><ele>552.994</ele><time>2025-12-27T19:45:30.000Z</time></trkpt>
        <trkpt lat="28.822119" lon="105.301412"><ele>553.30444</ele><time>2025-12-27T19:45:40.000Z</time></trkpt>
        <trkpt lat="28.822113" lon="105.301466"><ele>554.01184</ele><time>2025-12-27T19:45:47.000Z</time></trkpt>
        <trkpt lat="28.822104" lon="105.301526"><ele>555.64124</ele><time>2025-12-27T19:45:55.000Z</time></trkpt>
        <trkpt lat="28.822102" lon="105.301588"><ele>555.3669</ele><time>2025-12-27T19:46:10.000Z</time></trkpt>
        <trkpt lat="28.822066" lon="105.301617"><ele>557.6294</ele><time>2025-12-27T19:46:18.000Z</time></trkpt>
        <trkpt lat="28.82203" lon="105.301652"><ele>559.37256</ele><time>2025-12-27T19:46:26.000Z</time></trkpt>
        <trkpt lat="28.821982" lon="105.301674"><ele>558.33026</ele><time>2025-12-27T19:46:37.000Z</time></trkpt>
        <trkpt lat="28.821938" lon="105.301691"><ele>559.1117</ele><time>2025-12-27T19:46:43.000Z</time></trkpt>
        <trkpt lat="28.821887" lon="105.301694"><ele>561.48334</ele><time>2025-12-27T19:46:50.000Z</time></trkpt>
        <trkpt lat="28.821846" lon="105.301702"><ele>562.7875</ele><time>2025-12-27T19:46:54.000Z</time></trkpt>
        <trkpt lat="28.821824" lon="105.301741"><ele>563.8145</ele><time>2025-12-27T19:46:58.000Z</time></trkpt>
        <trkpt lat="28.821814" lon="105.301797"><ele>563.4999</ele><time>2025-12-27T19:47:03.000Z</time></trkpt>
        <trkpt lat="28.821807" lon="105.301858"><ele>562.9342</ele><time>2025-12-27T19:47:09.000Z</time></trkpt>
        <trkpt lat="28.821807" lon="105.301914"><ele>561.9717</ele><time>2025-12-27T19:47:14.000Z</time></trkpt>
        <trkpt lat="28.821801" lon="105.301974"><ele>561.2911</ele><time>2025-12-27T19:47:23.000Z</time></trkpt>
        <trkpt lat="28.821792" lon="105.302026"><ele>561.72394</ele><time>2025-12-27T19:47:30.000Z</time></trkpt>
        <trkpt lat="28.821779" lon="105.302076"><ele>561.48035</ele><time>2025-12-27T19:47:37.000Z</time></trkpt>
        <trkpt lat="28.821765" lon="105.302137"><ele>561.97437</ele><time>2025-12-27T19:47:43.000Z</time></trkpt>
        <trkpt lat="28.821753" lon="105.302199"><ele>561.4355</ele><time>2025-12-27T19:47:49.000Z</time></trkpt>
        <trkpt lat="28.821738" lon="105.30225"><ele>561.4029</ele><time>2025-12-27T19:47:54.000Z</time></trkpt>
        <trkpt lat="28.82173" lon="105.302305"><ele>561.06604</ele><time>2025-12-27T19:47:59.000Z</time></trkpt>
        <trkpt lat="28.821712" lon="105.302366"><ele>561.6785</ele><time>2025-12-27T19:48:05.000Z</time></trkpt>
        <trkpt lat="28.821695" lon="105.302412"><ele>562.0107</ele><time>2025-12-27T19:48:09.000Z</time></trkpt>
        <trkpt lat="28.821691" lon="105.302467"><ele>562.0783</ele><time>2025-12-27T19:48:14.000Z</time></trkpt>
        <trkpt lat="28.821701" lon="105.302525"><ele>561.88477</ele><time>2025-12-27T19:48:20.000Z</time></trkpt>
        <trkpt lat="28.821709" lon="105.302583"><ele>561.83307</ele><time>2025-12-27T19:48:26.000Z</time></trkpt>
        <trkpt lat="28.821724" lon="105.302637"><ele>561.62384</ele><time>2025-12-27T19:48:32.000Z</time></trkpt>
        <trkpt lat="28.821743" lon="105.302684"><ele>561.9461</ele><time>2025-12-27T19:48:37.000Z</time></trkpt>
        <trkpt lat="28.821766" lon="105.30274"><ele>562.2846</ele><time>2025-12-27T19:48:43.000Z</time></trkpt>
        <trkpt lat="28.821777" lon="105.302799"><ele>562.8238</ele><time>2025-12-27T19:48:49.000Z</time></trkpt>
        <trkpt lat="28.821773" lon="105.302849"><ele>563.50745</ele><time>2025-12-27T19:48:53.000Z</time></trkpt>
        <trkpt lat="28.821741" lon="105.302903"><ele>565.37274</ele><time>2025-12-27T19:48:59.000Z</time></trkpt>
        <trkpt lat="28.821697" lon="105.302938"><ele>567.0075</ele><time>2025-12-27T19:49:06.000Z</time></trkpt>
        <trkpt lat="28.821646" lon="105.302964"><ele>568.2385</ele><time>2025-12-27T19:49:13.000Z</time></trkpt>
        <trkpt lat="28.821597" lon="105.302987"><ele>569.7445</ele><time>2025-12-27T19:49:20.000Z</time></trkpt>
        <trkpt lat="28.821565" lon="105.303028"><ele>570.99915</ele><time>2025-12-27T19:49:33.000Z</time></trkpt>
        <trkpt lat="28.821525" lon="105.303011"><ele>570.9675</ele><time>2025-12-27T19:49:41.000Z</time></trkpt>
        <trkpt lat="28.821481" lon="105.303018"><ele>571.39716</ele><time>2025-12-27T19:49:47.000Z</time></trkpt>
        <trkpt lat="28.821436" lon="105.30301"><ele>572.50665</ele><time>2025-12-27T19:49:52.000Z</time></trkpt>
        <trkpt lat="28.821382" lon="105.303011"><ele>573.5266</ele><time>2025-12-27T19:50:00.000Z</time></trkpt>
        <trkpt lat="28.82134" lon="105.303011"><ele>574.5262</ele><time>2025-12-27T19:50:06.000Z</time></trkpt>
        <trkpt lat="28.821291" lon="105.303018"><ele>576.40735</ele><time>2025-12-27T19:50:12.000Z</time></trkpt>
        <trkpt lat="28.821261" lon="105.303056"><ele>577.9138</ele><time>2025-12-27T19:50:17.000Z</time></trkpt>
        <trkpt lat="28.821235" lon="105.303106"><ele>579.8887</ele><time>2025-12-27T19:50:23.000Z</time></trkpt>
        <trkpt lat="28.821213" lon="105.303157"><ele>582.3224</ele><time>2025-12-27T19:50:29.000Z</time></trkpt>
        <trkpt lat="28.821192" lon="105.303211"><ele>583.2552</ele><time>2025-12-27T19:50:36.000Z</time></trkpt>
        <trkpt lat="28.821172" lon="105.30326"><ele>585.2916</ele><time>2025-12-27T19:50:42.000Z</time></trkpt>
        <trkpt lat="28.821157" lon="105.303312"><ele>586.2124</ele><time>2025-12-27T19:50:49.000Z</time></trkpt>
        <trkpt lat="28.821132" lon="105.303356"><ele>587.6515</ele><time>2025-12-27T19:50:55.000Z</time></trkpt>
        <trkpt lat="28.821118" lon="105.303412"><ele>589.5394</ele><time>2025-12-27T19:51:02.000Z</time></trkpt>
        <trkpt lat="28.821082" lon="105.303447"><ele>590.0615</ele><time>2025-12-27T19:51:09.000Z</time></trkpt>
        <trkpt lat="28.821121" lon="105.303415"><ele>587.8636</ele><time>2025-12-27T19:51:33.000Z</time></trkpt>
        <trkpt lat="28.821145" lon="105.303372"><ele>586.0701</ele><time>2025-12-27T19:51:39.000Z</time></trkpt>
        <trkpt lat="28.821163" lon="105.303316"><ele>585.0976</ele><time>2025-12-27T19:51:45.000Z</time></trkpt>
        <trkpt lat="28.821182" lon="105.303255"><ele>582.471</ele><time>2025-12-27T19:51:52.000Z</time></trkpt>
        <trkpt lat="28.821207" lon="105.303203"><ele>581.73785</ele><time>2025-12-27T19:51:58.000Z</time></trkpt>
        <trkpt lat="28.821229" lon="105.303148"><ele>580.5357</ele><time>2025-12-27T19:52:04.000Z</time></trkpt>
        <trkpt lat="28.821252" lon="105.303102"><ele>578.2965</ele><time>2025-12-27T19:52:09.000Z</time></trkpt>
        <trkpt lat="28.821282" lon="105.30307"><ele>577.3785</ele><time>2025-12-27T19:52:12.000Z</time></trkpt>
        <trkpt lat="28.821329" lon="105.303033"><ele>576.19214</ele><time>2025-12-27T19:52:17.000Z</time></trkpt>
        <trkpt lat="28.821384" lon="105.303014"><ele>574.4622</ele><time>2025-12-27T19:52:23.000Z</time></trkpt>
        <trkpt lat="28.821435" lon="105.303009"><ele>572.67944</ele><time>2025-12-27T19:52:29.000Z</time></trkpt>
        <trkpt lat="28.821478" lon="105.303015"><ele>571.5812</ele><time>2025-12-27T19:52:33.000Z</time></trkpt>
        <trkpt lat="28.821539" lon="105.303027"><ele>571.0761</ele><time>2025-12-27T19:52:38.000Z</time></trkpt>
        <trkpt lat="28.821592" lon="105.303025"><ele>569.74603</ele><time>2025-12-27T19:52:43.000Z</time></trkpt>
        <trkpt lat="28.821642" lon="105.303007"><ele>568.5196</ele><time>2025-12-27T19:52:48.000Z</time></trkpt>
        <trkpt lat="28.821601" lon="105.303011"><ele>569.4272</ele><time>2025-12-27T19:53:12.000Z</time></trkpt>
        <trkpt lat="28.821553" lon="105.303023"><ele>570.647</ele><time>2025-12-27T19:53:17.000Z</time></trkpt>
        <trkpt lat="28.82153" lon="105.303059"><ele>570.70557</ele><time>2025-12-27T19:53:21.000Z</time></trkpt>
        <trkpt lat="28.821515" lon="105.303117"><ele>571.1379</ele><time>2025-12-27T19:53:26.000Z</time></trkpt>
        <trkpt lat="28.821492" lon="105.303173"><ele>572.1735</ele><time>2025-12-27T19:53:34.000Z</time></trkpt>
        <trkpt lat="28.821504" lon="105.303226"><ele>573.015</ele><time>2025-12-27T20:02:10.000Z</time></trkpt>
        <trkpt lat="28.821517" lon="105.303173"><ele>572.10333</ele><time>2025-12-27T20:09:09.000Z</time></trkpt>
        <trkpt lat="28.821483" lon="105.303208"><ele>572.7634</ele><time>2025-12-27T20:09:23.000Z</time></trkpt>
        <trkpt lat="28.821519" lon="105.303163"><ele>573.6567</ele><time>2025-12-27T20:12:29.000Z</time></trkpt>
        <trkpt lat="28.821525" lon="105.303111"><ele>571.8214</ele><time>2025-12-27T20:12:56.000Z</time></trkpt>
        <trkpt lat="28.821544" lon="105.303065"><ele>570.6432</ele><time>2025-12-27T20:13:04.000Z</time></trkpt>
        <trkpt lat="28.821591" lon="105.303033"><ele>568.65106</ele><time>2025-12-27T20:13:14.000Z</time></trkpt>
        <trkpt lat="28.821639" lon="105.303021"><ele>568.6555</ele><time>2025-12-27T20:13:28.000Z</time></trkpt>
        <trkpt lat="28.821679" lon="105.302998"><ele>567.49475</ele><time>2025-12-27T20:13:38.000Z</time></trkpt>
        <trkpt lat="28.821712" lon="105.302952"><ele>566.83105</ele><time>2025-12-27T20:14:06.000Z</time></trkpt>
        <trkpt lat="28.821734" lon="105.302916"><ele>565.3749</ele><time>2025-12-27T20:14:13.000Z</time></trkpt>
        <trkpt lat="28.821762" lon="105.302866"><ele>564.4481</ele><time>2025-12-27T20:14:20.000Z</time></trkpt>
        <trkpt lat="28.821784" lon="105.302815"><ele>562.0969</ele><time>2025-12-27T20:14:27.000Z</time></trkpt>
        <trkpt lat="28.821789" lon="105.302767"><ele>561.3736</ele><time>2025-12-27T20:14:32.000Z</time></trkpt>
        <trkpt lat="28.821822" lon="105.302717"><ele>560.1368</ele><time>2025-12-27T20:14:37.000Z</time></trkpt>
        <trkpt lat="28.821867" lon="105.302683"><ele>558.4519</ele><time>2025-12-27T20:14:46.000Z</time></trkpt>
        <trkpt lat="28.821904" lon="105.30266"><ele>557.48004</ele><time>2025-12-27T20:14:51.000Z</time></trkpt>
        <trkpt lat="28.821942" lon="105.302627"><ele>556.5088</ele><time>2025-12-27T20:14:56.000Z</time></trkpt>
        <trkpt lat="28.821983" lon="105.302599"><ele>555.0604</ele><time>2025-12-27T20:15:01.000Z</time></trkpt>
        <trkpt lat="28.822022" lon="105.302564"><ele>554.07434</ele><time>2025-12-27T20:15:08.000Z</time></trkpt>
        <trkpt lat="28.822061" lon="105.302528"><ele>553.6646</ele><time>2025-12-27T20:15:15.000Z</time></trkpt>
        <trkpt lat="28.822109" lon="105.302518"><ele>552.7176</ele><time>2025-12-27T20:15:30.000Z</time></trkpt>
        <trkpt lat="28.822155" lon="105.302496"><ele>552.21204</ele><time>2025-12-27T20:15:38.000Z</time></trkpt>
        <trkpt lat="28.822202" lon="105.302489"><ele>551.3218</ele><time>2025-12-27T20:15:44.000Z</time></trkpt>
        <trkpt lat="28.822247" lon="105.302505"><ele>550.73474</ele><time>2025-12-27T20:15:50.000Z</time></trkpt>
        <trkpt lat="28.822296" lon="105.302548"><ele>550.38684</ele><time>2025-12-27T20:16:42.000Z</time></trkpt>
        <trkpt lat="28.822327" lon="105.302567"><ele>550.06335</ele><time>2025-12-27T20:16:49.000Z</time></trkpt>
        <trkpt lat="28.822369" lon="105.302609"><ele>549.6671</ele><time>2025-12-27T20:16:55.000Z</time></trkpt>
        <trkpt lat="28.822407" lon="105.302649"><ele>549.1744</ele><time>2025-12-27T20:17:01.000Z</time></trkpt>
        <trkpt lat="28.822457" lon="105.302675"><ele>548.52216</ele><time>2025-12-27T20:17:07.000Z</time></trkpt>
        <trkpt lat="28.822508" lon="105.302698"><ele>547.7711</ele><time>2025-12-27T20:17:16.000Z</time></trkpt>
        <trkpt lat="28.822547" lon="105.302704"><ele>547.1475</ele><time>2025-12-27T20:17:21.000Z</time></trkpt>
        <trkpt lat="28.822596" lon="105.302716"><ele>545.91187</ele><time>2025-12-27T20:17:27.000Z</time></trkpt>
        <trkpt lat="28.822647" lon="105.302711"><ele>545.0088</ele><time>2025-12-27T20:17:33.000Z</time></trkpt>
        <trkpt lat="28.822695" lon="105.302709"><ele>544.08374</ele><time>2025-12-27T20:17:38.000Z</time></trkpt>
        <trkpt lat="28.822743" lon="105.302719"><ele>543.42377</ele><time>2025-12-27T20:17:42.000Z</time></trkpt>
        <trkpt lat="28.822796" lon="105.302741"><ele>543.1026</ele><time>2025-12-27T20:17:47.000Z</time></trkpt>
        <trkpt lat="28.822845" lon="105.302753"><ele>543.77997</ele><time>2025-12-27T20:17:52.000Z</time></trkpt>
        <trkpt lat="28.822885" lon="105.302743"><ele>544.79694</ele><time>2025-12-27T20:17:56.000Z</time></trkpt>
        <trkpt lat="28.822932" lon="105.302709"><ele>545.51666</ele><time>2025-12-27T20:18:01.000Z</time></trkpt>
        <trkpt lat="28.822972" lon="105.30266"><ele>546.8969</ele><time>2025-12-27T20:18:07.000Z</time></trkpt>
        <trkpt lat="28.822991" lon="105.302609"><ele>548.3</ele><time>2025-12-27T20:18:13.000Z</time></trkpt>
        <trkpt lat="28.823005" lon="105.302557"><ele>548.971</ele><time>2025-12-27T20:18:18.000Z</time></trkpt>
        <trkpt lat="28.823029" lon="105.302496"><ele>549.73737</ele><time>2025-12-27T20:18:27.000Z</time></trkpt>
        <trkpt lat="28.823044" lon="105.302453"><ele>549.769</ele><time>2025-12-27T20:18:32.000Z</time></trkpt>
        <trkpt lat="28.823053" lon="105.302405"><ele>549.6597</ele><time>2025-12-27T20:18:36.000Z</time></trkpt>
        <trkpt lat="28.82307" lon="105.302348"><ele>549.0711</ele><time>2025-12-27T20:18:41.000Z</time></trkpt>
        <trkpt lat="28.823118" lon="105.302326"><ele>547.51855</ele><time>2025-12-27T20:18:55.000Z</time></trkpt>
        <trkpt lat="28.823144" lon="105.302367"><ele>549.6272</ele><time>2025-12-27T20:19:01.000Z</time></trkpt>
        <trkpt lat="28.823174" lon="105.302337"><ele>555.3671</ele><time>2025-12-27T20:19:11.000Z</time></trkpt>
        <trkpt lat="28.8232" lon="105.30229"><ele>556.80566</ele><time>2025-12-27T20:19:18.000Z</time></trkpt>
        <trkpt lat="28.823226" lon="105.302248"><ele>556.6653</ele><time>2025-12-27T20:19:23.000Z</time></trkpt>
        <trkpt lat="28.823244" lon="105.302199"><ele>555.98267</ele><time>2025-12-27T20:19:28.000Z</time></trkpt>
        <trkpt lat="28.823261" lon="105.302147"><ele>555.9282</ele><time>2025-12-27T20:19:33.000Z</time></trkpt>
        <trkpt lat="28.823299" lon="105.302108"><ele>555.965</ele><time>2025-12-27T20:19:39.000Z</time></trkpt>
        <trkpt lat="28.823354" lon="105.302103"><ele>557.533</ele><time>2025-12-27T20:19:50.000Z</time></trkpt>
        <trkpt lat="28.823395" lon="105.302083"><ele>559.3854</ele><time>2025-12-27T20:19:58.000Z</time></trkpt>
        <trkpt lat="28.823431" lon="105.302111"><ele>560.5116</ele><time>2025-12-27T20:20:06.000Z</time></trkpt>
        <trkpt lat="28.823411" lon="105.302167"><ele>561.66864</ele><time>2025-12-27T20:20:18.000Z</time></trkpt>
        <trkpt lat="28.823383" lon="105.302211"><ele>562.1632</ele><time>2025-12-27T20:20:24.000Z</time></trkpt>
        <trkpt lat="28.823414" lon="105.302249"><ele>563.3708</ele><time>2025-12-27T20:20:45.000Z</time></trkpt>
        <trkpt lat="28.823463" lon="105.302256"><ele>566.41376</ele><time>2025-12-27T20:21:02.000Z</time></trkpt>
        <trkpt lat="28.823474" lon="105.302304"><ele>568.7738</ele><time>2025-12-27T20:21:13.000Z</time></trkpt>
        <trkpt lat="28.823502" lon="105.302355"><ele>570.9347</ele><time>2025-12-27T20:21:36.000Z</time></trkpt>
        <trkpt lat="28.823507" lon="105.302404"><ele>574.1622</ele><time>2025-12-27T20:21:47.000Z</time></trkpt>
        <trkpt lat="28.823521" lon="105.302457"><ele>576.29865</ele><time>2025-12-27T20:22:02.000Z</time></trkpt>
        <trkpt lat="28.8235" lon="105.302501"><ele>579.2413</ele><time>2025-12-27T20:22:16.000Z</time></trkpt>
        <trkpt lat="28.823454" lon="105.302507"><ele>579.74506</ele><time>2025-12-27T20:22:39.000Z</time></trkpt>
        <trkpt lat="28.823479" lon="105.302553"><ele>579.8235</ele><time>2025-12-27T20:24:18.000Z</time></trkpt>
        <trkpt lat="28.823429" lon="105.302521"><ele>585.19965</ele><time>2025-12-27T20:24:35.000Z</time></trkpt>
        <trkpt lat="28.823451" lon="105.302557"><ele>582.75665</ele><time>2025-12-27T20:24:45.000Z</time></trkpt>
        <trkpt lat="28.823418" lon="105.30259"><ele>586.82074</ele><time>2025-12-27T20:25:02.000Z</time></trkpt>
        <trkpt lat="28.823418" lon="105.302643"><ele>586.12994</ele><time>2025-12-27T20:26:18.000Z</time></trkpt>
        <trkpt lat="28.823415" lon="105.302696"><ele>586.18463</ele><time>2025-12-27T20:27:06.000Z</time></trkpt>
        <trkpt lat="28.823435" lon="105.302745"><ele>594.21155</ele><time>2025-12-27T20:27:45.000Z</time></trkpt>
        <trkpt lat="28.823398" lon="105.302742"><ele>600.4433</ele><time>2025-12-27T20:27:55.000Z</time></trkpt>
        <trkpt lat="28.823425" lon="105.302784"><ele>606.24884</ele><time>2025-12-27T20:28:13.000Z</time></trkpt>
        <trkpt lat="28.823417" lon="105.302744"><ele>604.49786</ele><time>2025-12-27T20:28:22.000Z</time></trkpt>
        <trkpt lat="28.823427" lon="105.30268"><ele>597.24506</ele><time>2025-12-27T20:29:00.000Z</time></trkpt>
        <trkpt lat="28.823324" lon="105.302598"><ele>591.62604</ele><time>2025-12-27T20:29:53.000Z</time></trkpt>
        <trkpt lat="28.823345" lon="105.302608"><ele>591.807</ele><time>2025-12-27T20:29:56.000Z</time></trkpt>
        <trkpt lat="28.8234" lon="105.302635"><ele>594.0155</ele><time>2025-12-27T20:30:03.000Z</time></trkpt>
        <trkpt lat="28.823447" lon="105.30268"><ele>594.8481</ele><time>2025-12-27T20:30:18.000Z</time></trkpt>
        <trkpt lat="28.823403" lon="105.302701"><ele>599.869</ele><time>2025-12-27T20:30:39.000Z</time></trkpt>
        <trkpt lat="28.823449" lon="105.302712"><ele>594.9104</ele><time>2025-12-27T20:31:25.000Z</time></trkpt>
        <trkpt lat="28.82342" lon="105.302674"><ele>600.321</ele><time>2025-12-27T20:31:47.000Z</time></trkpt>
        <trkpt lat="28.823454" lon="105.302641"><ele>598.6717</ele><time>2025-12-27T20:32:30.000Z</time></trkpt>
        <trkpt lat="28.823479" lon="105.302672"><ele>596.6736</ele><time>2025-12-27T20:32:34.000Z</time></trkpt>
        <trkpt lat="28.823477" lon="105.302622"><ele>590.89417</ele><time>2025-12-27T20:33:32.000Z</time></trkpt>
        <trkpt lat="28.823499" lon="105.302576"><ele>591.9143</ele><time>2025-12-27T20:33:51.000Z</time></trkpt>
        <trkpt lat="28.823478" lon="105.302619"><ele>594.7327</ele><time>2025-12-27T20:34:05.000Z</time></trkpt>
        <trkpt lat="28.823437" lon="105.30266"><ele>595.52625</ele><time>2025-12-27T20:34:22.000Z</time></trkpt>
        <trkpt lat="28.823414" lon="105.302705"><ele>593.89935</ele><time>2025-12-27T20:36:46.000Z</time></trkpt>
        <trkpt lat="28.823375" lon="105.302666"><ele>600.2321</ele><time>2025-12-27T20:37:26.000Z</time></trkpt>
        <trkpt lat="28.823416" lon="105.302645"><ele>592.93195</ele><time>2025-12-27T20:37:56.000Z</time></trkpt>
        <trkpt lat="28.823436" lon="105.302701"><ele>599.4501</ele><time>2025-12-27T20:39:21.000Z</time></trkpt>
        <trkpt lat="28.82343" lon="105.302644"><ele>598.4749</ele><time>2025-12-27T20:39:34.000Z</time></trkpt>
        <trkpt lat="28.823424" lon="105.302688"><ele>597.0866</ele><time>2025-12-27T20:39:47.000Z</time></trkpt>
        <trkpt lat="28.823445" lon="105.302759"><ele>595.22485</ele><time>2025-12-27T20:40:21.000Z</time></trkpt>
        <trkpt lat="28.823437" lon="105.30273"><ele>594.7759</ele><time>2025-12-27T20:40:23.000Z</time></trkpt>
        <trkpt lat="28.823453" lon="105.302668"><ele>592.806</ele><time>2025-12-27T20:40:44.000Z</time></trkpt>
        <trkpt lat="28.823468" lon="105.302716"><ele>589.1967</ele><time>2025-12-27T20:41:12.000Z</time></trkpt>
        <trkpt lat="28.823475" lon="105.302738"><ele>590.7723</ele><time>2025-12-27T20:41:44.000Z</time></trkpt>
        <trkpt lat="28.823515" lon="105.302762"><ele>598.0413</ele><time>2025-12-27T20:42:10.000Z</time></trkpt>
        <trkpt lat="28.823558" lon="105.302744"><ele>596.0842</ele><time>2025-12-27T20:42:21.000Z</time></trkpt>
        <trkpt lat="28.823584" lon="105.302694"><ele>597.7477</ele><time>2025-12-27T20:42:44.000Z</time></trkpt>
        <trkpt lat="28.823628" lon="105.302679"><ele>602.0068</ele><time>2025-12-27T20:43:21.000Z</time></trkpt>
        <trkpt lat="28.823632" lon="105.302623"><ele>611.55634</ele><time>2025-12-27T20:43:48.000Z</time></trkpt>
        <trkpt lat="28.823681" lon="105.302615"><ele>606.2534</ele><time>2025-12-27T20:43:57.000Z</time></trkpt>
        <trkpt lat="28.823736" lon="105.302629"><ele>602.05286</ele><time>2025-12-27T20:44:10.000Z</time></trkpt>
        <trkpt lat="28.823747" lon="105.302576"><ele>605.17566</ele><time>2025-12-27T20:44:32.000Z</time></trkpt>
        <trkpt lat="28.823787" lon="105.302603"><ele>604.9772</ele><time>2025-12-27T20:44:43.000Z</time></trkpt>
        <trkpt lat="28.823799" lon="105.302574"><ele>606.6893</ele><time>2025-12-27T20:44:46.000Z</time></trkpt>
        <trkpt lat="28.82384" lon="105.302529"><ele>606.12476</ele><time>2025-12-27T20:45:13.000Z</time></trkpt>
        <trkpt lat="28.823858" lon="105.302475"><ele>605.5414</ele><time>2025-12-27T20:45:25.000Z</time></trkpt>
        <trkpt lat="28.823866" lon="105.302508"><ele>605.58984</ele><time>2025-12-27T20:45:30.000Z</time></trkpt>
        <trkpt lat="28.823903" lon="105.302553"><ele>604.2666</ele><time>2025-12-27T20:45:43.000Z</time></trkpt>
        <trkpt lat="28.823913" lon="105.302608"><ele>610.1451</ele><time>2025-12-27T20:46:29.000Z</time></trkpt>
        <trkpt lat="28.823931" lon="105.302664"><ele>611.7988</ele><time>2025-12-27T20:46:51.000Z</time></trkpt>
        <trkpt lat="28.823912" lon="105.302712"><ele>612.26685</ele><time>2025-12-27T20:47:02.000Z</time></trkpt>
        <trkpt lat="28.82392" lon="105.302772"><ele>614.28735</ele><time>2025-12-27T20:47:13.000Z</time></trkpt>
        <trkpt lat="28.823912" lon="105.302831"><ele>615.4974</ele><time>2025-12-27T20:47:27.000Z</time></trkpt>
        <trkpt lat="28.823919" lon="105.302885"><ele>618.1216</ele><time>2025-12-27T20:47:57.000Z</time></trkpt>
        <trkpt lat="28.823957" lon="105.30292"><ele>620.1654</ele><time>2025-12-27T20:48:06.000Z</time></trkpt>
        <trkpt lat="28.824002" lon="105.302946"><ele>620.2038</ele><time>2025-12-27T20:48:17.000Z</time></trkpt>
        <trkpt lat="28.824039" lon="105.302989"><ele>622.612</ele><time>2025-12-27T20:48:36.000Z</time></trkpt>
        <trkpt lat="28.824076" lon="105.303018"><ele>624.11584</ele><time>2025-12-27T20:48:49.000Z</time></trkpt>
        <trkpt lat="28.824108" lon="105.302978"><ele>625.3836</ele><time>2025-12-27T20:49:30.000Z</time></trkpt>
        <trkpt lat="28.824057" lon="105.302973"><ele>623.6502</ele><time>2025-12-27T20:49:51.000Z</time></trkpt>
        <trkpt lat="28.824099" lon="105.302993"><ele>624.9306</ele><time>2025-12-27T20:51:02.000Z</time></trkpt>
        <trkpt lat="28.824141" lon="105.303009"><ele>623.51636</ele><time>2025-12-27T20:51:11.000Z</time></trkpt>
        <trkpt lat="28.824187" lon="105.303036"><ele>625.9143</ele><time>2025-12-27T20:51:37.000Z</time></trkpt>
        <trkpt lat="28.824207" lon="105.303081"><ele>627.29254</ele><time>2025-12-27T20:51:43.000Z</time></trkpt>
        <trkpt lat="28.824235" lon="105.303148"><ele>627.8714</ele><time>2025-12-27T20:51:53.000Z</time></trkpt>
        <trkpt lat="28.824254" lon="105.303194"><ele>627.2253</ele><time>2025-12-27T20:52:00.000Z</time></trkpt>
        <trkpt lat="28.824298" lon="105.303222"><ele>626.9033</ele><time>2025-12-27T20:52:06.000Z</time></trkpt>
        <trkpt lat="28.824294" lon="105.303264"><ele>627.2741</ele><time>2025-12-27T20:52:12.000Z</time></trkpt>
        <trkpt lat="28.824282" lon="105.303318"><ele>627.09326</ele><time>2025-12-27T20:52:18.000Z</time></trkpt>
        <trkpt lat="28.824291" lon="105.303374"><ele>627.83936</ele><time>2025-12-27T20:52:26.000Z</time></trkpt>
        <trkpt lat="28.824284" lon="105.303422"><ele>628.0062</ele><time>2025-12-27T20:52:34.000Z</time></trkpt>
        <trkpt lat="28.824281" lon="105.303475"><ele>627.42926</ele><time>2025-12-27T20:52:40.000Z</time></trkpt>
        <trkpt lat="28.824318" lon="105.303508"><ele>628.7387</ele><time>2025-12-27T20:52:52.000Z</time></trkpt>
        <trkpt lat="28.824359" lon="105.303527"><ele>629.26117</ele><time>2025-12-27T20:53:00.000Z</time></trkpt>
        <trkpt lat="28.824352" lon="105.303585"><ele>630.07007</ele><time>2025-12-27T20:53:22.000Z</time></trkpt>
        <trkpt lat="28.824387" lon="105.303538"><ele>629.1436</ele><time>2025-12-27T20:55:25.000Z</time></trkpt>
        <trkpt lat="28.824421" lon="105.303576"><ele>630.3234</ele><time>2025-12-27T20:56:23.000Z</time></trkpt>
        <trkpt lat="28.824417" lon="105.303627"><ele>630.3291</ele><time>2025-12-27T20:56:31.000Z</time></trkpt>
        <trkpt lat="28.824417" lon="105.303682"><ele>630.5872</ele><time>2025-12-27T20:56:39.000Z</time></trkpt>
        <trkpt lat="28.824382" lon="105.303723"><ele>631.0895</ele><time>2025-12-27T20:57:00.000Z</time></trkpt>
        <trkpt lat="28.824345" lon="105.303764"><ele>631.16064</ele><time>2025-12-27T20:57:38.000Z</time></trkpt>
        <trkpt lat="28.824316" lon="105.303724"><ele>630.8775</ele><time>2025-12-27T20:57:57.000Z</time></trkpt>
        <trkpt lat="28.824334" lon="105.30367"><ele>630.55554</ele><time>2025-12-27T20:58:15.000Z</time></trkpt>
        <trkpt lat="28.824316" lon="105.303708"><ele>630.42804</ele><time>2025-12-27T20:58:23.000Z</time></trkpt>
        <trkpt lat="28.824328" lon="105.303765"><ele>630.9917</ele><time>2025-12-27T20:59:33.000Z</time></trkpt>
        <trkpt lat="28.824348" lon="105.303816"><ele>630.456</ele><time>2025-12-27T21:00:01.000Z</time></trkpt>
        <trkpt lat="28.824334" lon="105.303867"><ele>630.7737</ele><time>2025-12-27T21:00:21.000Z</time></trkpt>
        <trkpt lat="28.824316" lon="105.303911"><ele>630.85785</ele><time>2025-12-27T21:00:30.000Z</time></trkpt>
        <trkpt lat="28.824311" lon="105.303976"><ele>629.9692</ele><time>2025-12-27T21:00:38.000Z</time></trkpt>
        <trkpt lat="28.824345" lon="105.304016"><ele>631.3312</ele><time>2025-12-27T21:00:54.000Z</time></trkpt>
        <trkpt lat="28.824346" lon="105.304066"><ele>630.7672</ele><time>2025-12-27T21:01:16.000Z</time></trkpt>
        <trkpt lat="28.824349" lon="105.304119"><ele>630.41815</ele><time>2025-12-27T21:01:39.000Z</time></trkpt>
        <trkpt lat="28.824394" lon="105.30415"><ele>630.28845</ele><time>2025-12-27T21:02:07.000Z</time></trkpt>
        <trkpt lat="28.824394" lon="105.3042"><ele>628.6344</ele><time>2025-12-27T21:02:17.000Z</time></trkpt>
        <trkpt lat="28.824366" lon="105.304247"><ele>629.46967</ele><time>2025-12-27T21:02:37.000Z</time></trkpt>
        <trkpt lat="28.824385" lon="105.304288"><ele>628.166</ele><time>2025-12-27T21:02:46.000Z</time></trkpt>
        <trkpt lat="28.824405" lon="105.304334"><ele>626.8855</ele><time>2025-12-27T21:02:52.000Z</time></trkpt>
        <trkpt lat="28.824424" lon="105.304384"><ele>625.85754</ele><time>2025-12-27T21:02:57.000Z</time></trkpt>
        <trkpt lat="28.82443" lon="105.304449"><ele>625.01215</ele><time>2025-12-27T21:03:05.000Z</time></trkpt>
        <trkpt lat="28.82441" lon="105.304504"><ele>625.3409</ele><time>2025-12-27T21:03:13.000Z</time></trkpt>
        <trkpt lat="28.824384" lon="105.304547"><ele>626.07056</ele><time>2025-12-27T21:03:20.000Z</time></trkpt>
        <trkpt lat="28.824418" lon="105.304538"><ele>626.24536</ele><time>2025-12-27T21:03:26.000Z</time></trkpt>
        <trkpt lat="28.824472" lon="105.304559"><ele>625.1754</ele><time>2025-12-27T21:03:57.000Z</time></trkpt>
        <trkpt lat="28.824516" lon="105.30458"><ele>625.8577</ele><time>2025-12-27T21:04:07.000Z</time></trkpt>
        <trkpt lat="28.824517" lon="105.304636"><ele>626.48456</ele><time>2025-12-27T21:04:20.000Z</time></trkpt>
        <trkpt lat="28.824538" lon="105.304682"><ele>628.7182</ele><time>2025-12-27T21:04:30.000Z</time></trkpt>
        <trkpt lat="28.824585" lon="105.304699"><ele>629.69604</ele><time>2025-12-27T21:04:49.000Z</time></trkpt>
        <trkpt lat="28.8246" lon="105.304754"><ele>632.0542</ele><time>2025-12-27T21:05:06.000Z</time></trkpt>
        <trkpt lat="28.824579" lon="105.304805"><ele>634.4857</ele><time>2025-12-27T21:05:18.000Z</time></trkpt>
        <trkpt lat="28.824587" lon="105.304859"><ele>634.0642</ele><time>2025-12-27T21:05:30.000Z</time></trkpt>
        <trkpt lat="28.824594" lon="105.304914"><ele>636.1065</ele><time>2025-12-27T21:05:42.000Z</time></trkpt>
        <trkpt lat="28.824611" lon="105.304963"><ele>637.2285</ele><time>2025-12-27T21:05:51.000Z</time></trkpt>
        <trkpt lat="28.824613" lon="105.305014"><ele>639.4949</ele><time>2025-12-27T21:06:00.000Z</time></trkpt>
        <trkpt lat="28.82461" lon="105.305068"><ele>641.21295</ele><time>2025-12-27T21:06:07.000Z</time></trkpt>
        <trkpt lat="28.824601" lon="105.305124"><ele>641.2417</ele><time>2025-12-27T21:06:14.000Z</time></trkpt>
        <trkpt lat="28.824608" lon="105.305184"><ele>642.46643</ele><time>2025-12-27T21:06:22.000Z</time></trkpt>
        <trkpt lat="28.824636" lon="105.305238"><ele>644.0652</ele><time>2025-12-27T21:06:35.000Z</time></trkpt>
        <trkpt lat="28.824626" lon="105.305295"><ele>645.0479</ele><time>2025-12-27T21:07:04.000Z</time></trkpt>
        <trkpt lat="28.824638" lon="105.30534"><ele>646.72156</ele><time>2025-12-27T21:07:13.000Z</time></trkpt>
        <trkpt lat="28.824662" lon="105.305385"><ele>647.6553</ele><time>2025-12-27T21:07:18.000Z</time></trkpt>
        <trkpt lat="28.824699" lon="105.30543"><ele>647.9906</ele><time>2025-12-27T21:07:25.000Z</time></trkpt>
        <trkpt lat="28.824745" lon="105.30545"><ele>648.44525</ele><time>2025-12-27T21:07:32.000Z</time></trkpt>
        <trkpt lat="28.824797" lon="105.305439"><ele>648.7978</ele><time>2025-12-27T21:07:40.000Z</time></trkpt>
        <trkpt lat="28.82484" lon="105.305424"><ele>648.4978</ele><time>2025-12-27T21:07:45.000Z</time></trkpt>
        <trkpt lat="28.824891" lon="105.305402"><ele>647.5382</ele><time>2025-12-27T21:07:51.000Z</time></trkpt>
        <trkpt lat="28.824935" lon="105.30538"><ele>647.37897</ele><time>2025-12-27T21:07:57.000Z</time></trkpt>
        <trkpt lat="28.824946" lon="105.305327"><ele>646.67004</ele><time>2025-12-27T21:08:07.000Z</time></trkpt>
        <trkpt lat="28.824983" lon="105.305302"><ele>646.3194</ele><time>2025-12-27T21:08:22.000Z</time></trkpt>
        <trkpt lat="28.825025" lon="105.305284"><ele>643.85004</ele><time>2025-12-27T21:08:34.000Z</time></trkpt>
        <trkpt lat="28.825063" lon="105.305254"><ele>643.63745</ele><time>2025-12-27T21:08:41.000Z</time></trkpt>
        <trkpt lat="28.825091" lon="105.305289"><ele>644.5545</ele><time>2025-12-27T21:08:49.000Z</time></trkpt>
        <trkpt lat="28.825134" lon="105.30529"><ele>643.0779</ele><time>2025-12-27T21:08:56.000Z</time></trkpt>
        <trkpt lat="28.825179" lon="105.305278"><ele>641.9539</ele><time>2025-12-27T21:09:02.000Z</time></trkpt>
        <trkpt lat="28.825224" lon="105.305273"><ele>641.11115</ele><time>2025-12-27T21:09:06.000Z</time></trkpt>
        <trkpt lat="28.825271" lon="105.305265"><ele>640.6399</ele><time>2025-12-27T21:09:09.000Z</time></trkpt>
        <trkpt lat="28.825316" lon="105.305247"><ele>641.3648</ele><time>2025-12-27T21:09:12.000Z</time></trkpt>
        <trkpt lat="28.825372" lon="105.305212"><ele>642.89935</ele><time>2025-12-27T21:09:17.000Z</time></trkpt>
        <trkpt lat="28.825418" lon="105.305228"><ele>644.3086</ele><time>2025-12-27T21:09:47.000Z</time></trkpt>
        <trkpt lat="28.825412" lon="105.305277"><ele>644.7661</ele><time>2025-12-27T21:09:51.000Z</time></trkpt>
        <trkpt lat="28.825453" lon="105.3053"><ele>643.6857</ele><time>2025-12-27T21:09:57.000Z</time></trkpt>
        <trkpt lat="28.825503" lon="105.305296"><ele>644.23486</ele><time>2025-12-27T21:10:01.000Z</time></trkpt>
        <trkpt lat="28.82557" lon="105.305275"><ele>645.2637</ele><time>2025-12-27T21:10:07.000Z</time></trkpt>
        <trkpt lat="28.825627" lon="105.30527"><ele>645.9101</ele><time>2025-12-27T21:10:14.000Z</time></trkpt>
        <trkpt lat="28.825657" lon="105.305239"><ele>646.09314</ele><time>2025-12-27T21:10:20.000Z</time></trkpt>
        <trkpt lat="28.825708" lon="105.305229"><ele>645.16425</ele><time>2025-12-27T21:10:28.000Z</time></trkpt>
        <trkpt lat="28.825762" lon="105.305213"><ele>644.4273</ele><time>2025-12-27T21:11:12.000Z</time></trkpt>
        <trkpt lat="28.825722" lon="105.305248"><ele>645.2602</ele><time>2025-12-27T21:11:49.000Z</time></trkpt>
        <trkpt lat="28.825757" lon="105.305282"><ele>644.9913</ele><time>2025-12-27T21:12:13.000Z</time></trkpt>
        <trkpt lat="28.82576" lon="105.305237"><ele>645.2738</ele><time>2025-12-27T21:12:19.000Z</time></trkpt>
      </trkseg>
      <trkseg>
        <trkpt lat="28.825697" lon="105.305248"><ele>628.66046</ele><time>2025-12-27T21:47:57.000Z</time></trkpt>
        <trkpt lat="28.825697" lon="105.305248"><ele>628.65894</ele><time>2025-12-27T21:47:58.000Z</time></trkpt>
        <trkpt lat="28.825699" lon="105.305252"><ele>629.41437</ele><time>2025-12-27T21:48:01.000Z</time></trkpt>
        <trkpt lat="28.825679" lon="105.305365"><ele>648.28076</ele><time>2025-12-27T21:48:18.000Z</time></trkpt>
        <trkpt lat="28.825693" lon="105.305345"><ele>650.81836</ele><time>2025-12-27T21:48:21.000Z</time></trkpt>
        <trkpt lat="28.825694" lon="105.305273"><ele>647.39636</ele><time>2025-12-27T21:48:29.000Z</time></trkpt>
        <trkpt lat="28.825729" lon="105.305214"><ele>644.98346</ele><time>2025-12-27T21:48:33.000Z</time></trkpt>
        <trkpt lat="28.825729" lon="105.305173"><ele>644.5205</ele><time>2025-12-27T21:48:35.000Z</time></trkpt>
        <trkpt lat="28.825763" lon="105.30512"><ele>644.23175</ele><time>2025-12-27T21:48:41.000Z</time></trkpt>
        <trkpt lat="28.825784" lon="105.305069"><ele>644.92773</ele><time>2025-12-27T21:48:48.000Z</time></trkpt>
        <trkpt lat="28.825809" lon="105.30503"><ele>644.9197</ele><time>2025-12-27T21:48:53.000Z</time></trkpt>
        <trkpt lat="28.825838" lon="105.305081"><ele>643.6614</ele><time>2025-12-27T21:49:04.000Z</time></trkpt>
        <trkpt lat="28.825807" lon="105.305132"><ele>644.7882</ele><time>2025-12-27T21:49:11.000Z</time></trkpt>
        <trkpt lat="28.825798" lon="105.305193"><ele>645.7306</ele><time>2025-12-27T21:49:18.000Z</time></trkpt>
        <trkpt lat="28.825817" lon="105.305248"><ele>644.757</ele><time>2025-12-27T21:49:26.000Z</time></trkpt>
        <trkpt lat="28.825817" lon="105.305305"><ele>644.36444</ele><time>2025-12-27T21:49:31.000Z</time></trkpt>
        <trkpt lat="28.8258" lon="105.305359"><ele>644.3054</ele><time>2025-12-27T21:49:37.000Z</time></trkpt>
        <trkpt lat="28.82576" lon="105.305394"><ele>643.58875</ele><time>2025-12-27T21:49:45.000Z</time></trkpt>
        <trkpt lat="28.825784" lon="105.305418"><ele>642.6527</ele><time>2025-12-27T21:49:50.000Z</time></trkpt>
        <trkpt lat="28.825803" lon="105.30548"><ele>641.2096</ele><time>2025-12-27T21:49:58.000Z</time></trkpt>
        <trkpt lat="28.82579" lon="105.305542"><ele>639.95685</ele><time>2025-12-27T21:50:09.000Z</time></trkpt>
        <trkpt lat="28.82578" lon="105.305586"><ele>639.6229</ele><time>2025-12-27T21:50:14.000Z</time></trkpt>
        <trkpt lat="28.825776" lon="105.305642"><ele>637.94275</ele><time>2025-12-27T21:50:20.000Z</time></trkpt>
        <trkpt lat="28.825796" lon="105.305692"><ele>636.3757</ele><time>2025-12-27T21:50:28.000Z</time></trkpt>
        <trkpt lat="28.825838" lon="105.305709"><ele>635.7781</ele><time>2025-12-27T21:50:31.000Z</time></trkpt>
        <trkpt lat="28.825852" lon="105.305777"><ele>634.7857</ele><time>2025-12-27T21:50:37.000Z</time></trkpt>
        <trkpt lat="28.825837" lon="105.305842"><ele>634.4443</ele><time>2025-12-27T21:50:40.000Z</time></trkpt>
        <trkpt lat="28.825858" lon="105.305902"><ele>633.6051</ele><time>2025-12-27T21:50:46.000Z</time></trkpt>
        <trkpt lat="28.82588" lon="105.305966"><ele>633.2582</ele><time>2025-12-27T21:50:53.000Z</time></trkpt>
        <trkpt lat="28.825912" lon="105.306006"><ele>632.4632</ele><time>2025-12-27T21:51:01.000Z</time></trkpt>
        <trkpt lat="28.825923" lon="105.306053"><ele>631.896</ele><time>2025-12-27T21:51:09.000Z</time></trkpt>
        <trkpt lat="28.82593" lon="105.30611"><ele>632.3466</ele><time>2025-12-27T21:51:16.000Z</time></trkpt>
        <trkpt lat="28.825941" lon="105.306166"><ele>631.65045</ele><time>2025-12-27T21:51:22.000Z</time></trkpt>
        <trkpt lat="28.825959" lon="105.306212"><ele>630.9196</ele><time>2025-12-27T21:51:27.000Z</time></trkpt>
        <trkpt lat="28.825993" lon="105.306275"><ele>629.93945</ele><time>2025-12-27T21:51:34.000Z</time></trkpt>
        <trkpt lat="28.826012" lon="105.30633"><ele>629.1264</ele><time>2025-12-27T21:51:40.000Z</time></trkpt>
        <trkpt lat="28.826026" lon="105.306374"><ele>628.9762</ele><time>2025-12-27T21:51:44.000Z</time></trkpt>
        <trkpt lat="28.826055" lon="105.306424"><ele>629.5312</ele><time>2025-12-27T21:51:52.000Z</time></trkpt>
        <trkpt lat="28.826107" lon="105.306458"><ele>629.29755</ele><time>2025-12-27T21:52:01.000Z</time></trkpt>
        <trkpt lat="28.826146" lon="105.306509"><ele>627.8786</ele><time>2025-12-27T21:52:08.000Z</time></trkpt>
        <trkpt lat="28.826149" lon="105.306572"><ele>628.2188</ele><time>2025-12-27T21:52:14.000Z</time></trkpt>
        <trkpt lat="28.826136" lon="105.306631"><ele>628.1046</ele><time>2025-12-27T21:52:19.000Z</time></trkpt>
        <trkpt lat="28.826124" lon="105.306678"><ele>628.00555</ele><time>2025-12-27T21:52:22.000Z</time></trkpt>
        <trkpt lat="28.826135" lon="105.30675"><ele>628.5242</ele><time>2025-12-27T21:52:29.000Z</time></trkpt>
        <trkpt lat="28.826129" lon="105.306798"><ele>628.2906</ele><time>2025-12-27T21:52:33.000Z</time></trkpt>
        <trkpt lat="28.826115" lon="105.30685"><ele>627.90247</ele><time>2025-12-27T21:52:38.000Z</time></trkpt>
        <trkpt lat="28.826106" lon="105.306904"><ele>627.34235</ele><time>2025-12-27T21:52:41.000Z</time></trkpt>
        <trkpt lat="28.82612" lon="105.306969"><ele>626.84265</ele><time>2025-12-27T21:52:47.000Z</time></trkpt>
        <trkpt lat="28.826133" lon="105.307023"><ele>626.9664</ele><time>2025-12-27T21:52:54.000Z</time></trkpt>
        <trkpt lat="28.826105" lon="105.307062"><ele>626.0126</ele><time>2025-12-27T21:53:01.000Z</time></trkpt>
        <trkpt lat="28.826115" lon="105.307111"><ele>625.2793</ele><time>2025-12-27T21:53:10.000Z</time></trkpt>
        <trkpt lat="28.826124" lon="105.307168"><ele>623.9394</ele><time>2025-12-27T21:53:20.000Z</time></trkpt>
        <trkpt lat="28.826143" lon="105.307213"><ele>623.51373</ele><time>2025-12-27T21:53:26.000Z</time></trkpt>
        <trkpt lat="28.826144" lon="105.30727"><ele>620.9289</ele><time>2025-12-27T21:53:40.000Z</time></trkpt>
        <trkpt lat="28.826138" lon="105.307325"><ele>618.9934</ele><time>2025-12-27T21:53:51.000Z</time></trkpt>
        <trkpt lat="28.826157" lon="105.307375"><ele>618.38055</ele><time>2025-12-27T21:54:03.000Z</time></trkpt>
        <trkpt lat="28.82611" lon="105.307355"><ele>618.42566</ele><time>2025-12-27T21:54:28.000Z</time></trkpt>
        <trkpt lat="28.826145" lon="105.307399"><ele>618.0197</ele><time>2025-12-27T21:54:48.000Z</time></trkpt>
        <trkpt lat="28.826155" lon="105.307453"><ele>616.8326</ele><time>2025-12-27T21:54:57.000Z</time></trkpt>
        <trkpt lat="28.826123" lon="105.307504"><ele>613.92896</ele><time>2025-12-27T21:55:12.000Z</time></trkpt>
        <trkpt lat="28.826167" lon="105.307511"><ele>613.7837</ele><time>2025-12-27T21:55:23.000Z</time></trkpt>
        <trkpt lat="28.826221" lon="105.307506"><ele>614.1642</ele><time>2025-12-27T21:55:37.000Z</time></trkpt>
        <trkpt lat="28.826257" lon="105.307527"><ele>613.22266</ele><time>2025-12-27T21:55:44.000Z</time></trkpt>
        <trkpt lat="28.826312" lon="105.307545"><ele>611.48303</ele><time>2025-12-27T21:55:59.000Z</time></trkpt>
        <trkpt lat="28.82627" lon="105.307515"><ele>612.55725</ele><time>2025-12-27T21:56:12.000Z</time></trkpt>
        <trkpt lat="28.826265" lon="105.307556"><ele>612.6043</ele><time>2025-12-27T21:56:18.000Z</time></trkpt>
        <trkpt lat="28.826303" lon="105.307554"><ele>611.3617</ele><time>2025-12-27T21:56:23.000Z</time></trkpt>
        <trkpt lat="28.826353" lon="105.307518"><ele>611.30707</ele><time>2025-12-27T21:56:33.000Z</time></trkpt>
        <trkpt lat="28.826398" lon="105.307534"><ele>610.9294</ele><time>2025-12-27T21:56:42.000Z</time></trkpt>
        <trkpt lat="28.826431" lon="105.30759"><ele>609.8963</ele><time>2025-12-27T21:57:06.000Z</time></trkpt>
        <trkpt lat="28.826397" lon="105.30756"><ele>610.30035</ele><time>2025-12-27T21:57:17.000Z</time></trkpt>
        <trkpt lat="28.826367" lon="105.307518"><ele>611.43066</ele><time>2025-12-27T21:57:25.000Z</time></trkpt>
        <trkpt lat="28.826416" lon="105.307505"><ele>612.01074</ele><time>2025-12-27T21:57:51.000Z</time></trkpt>
        <trkpt lat="28.8264" lon="105.307479"><ele>612.5195</ele><time>2025-12-27T21:57:56.000Z</time></trkpt>
        <trkpt lat="28.826382" lon="105.307422"><ele>615.02106</ele><time>2025-12-27T21:58:03.000Z</time></trkpt>
        <trkpt lat="28.826411" lon="105.307377"><ele>615.43274</ele><time>2025-12-27T21:58:19.000Z</time></trkpt>
        <trkpt lat="28.82645" lon="105.307337"><ele>615.60754</ele><time>2025-12-27T21:58:32.000Z</time></trkpt>
        <trkpt lat="28.826469" lon="105.307287"><ele>615.1297</ele><time>2025-12-27T21:58:51.000Z</time></trkpt>
        <trkpt lat="28.826507" lon="105.307262"><ele>615.83813</ele><time>2025-12-27T21:59:08.000Z</time></trkpt>
        <trkpt lat="28.8265" lon="105.307209"><ele>617.0989</ele><time>2025-12-27T21:59:24.000Z</time></trkpt>
        <trkpt lat="28.826506" lon="105.307159"><ele>616.8547</ele><time>2025-12-27T21:59:32.000Z</time></trkpt>
        <trkpt lat="28.826536" lon="105.307116"><ele>617.2361</ele><time>2025-12-27T21:59:44.000Z</time></trkpt>
        <trkpt lat="28.826571" lon="105.307149"><ele>616.74274</ele><time>2025-12-27T21:59:53.000Z</time></trkpt>
        <trkpt lat="28.826624" lon="105.30716"><ele>615.7126</ele><time>2025-12-27T22:00:10.000Z</time></trkpt>
        <trkpt lat="28.826581" lon="105.307137"><ele>615.53125</ele><time>2025-12-27T22:00:28.000Z</time></trkpt>
        <trkpt lat="28.826608" lon="105.307138"><ele>615.58167</ele><time>2025-12-27T22:00:32.000Z</time></trkpt>
        <trkpt lat="28.826648" lon="105.307172"><ele>613.7612</ele><time>2025-12-27T22:00:36.000Z</time></trkpt>
        <trkpt lat="28.826633" lon="105.307209"><ele>612.92365</ele><time>2025-12-27T22:00:42.000Z</time></trkpt>
        <trkpt lat="28.826639" lon="105.307156"><ele>614.55585</ele><time>2025-12-27T22:01:09.000Z</time></trkpt>
        <trkpt lat="28.826596" lon="105.307154"><ele>615.42194</ele><time>2025-12-27T22:01:20.000Z</time></trkpt>
        <trkpt lat="28.826628" lon="105.307115"><ele>615.37335</ele><time>2025-12-27T22:01:42.000Z</time></trkpt>
        <trkpt lat="28.826674" lon="105.307133"><ele>613.8948</ele><time>2025-12-27T22:02:02.000Z</time></trkpt>
        <trkpt lat="28.826707" lon="105.307165"><ele>613.8313</ele><time>2025-12-27T22:02:08.000Z</time></trkpt>
        <trkpt lat="28.82675" lon="105.307218"><ele>613.73364</ele><time>2025-12-27T22:02:30.000Z</time></trkpt>
        <trkpt lat="28.826769" lon="105.307261"><ele>613.2798</ele><time>2025-12-27T22:02:40.000Z</time></trkpt>
        <trkpt lat="28.826772" lon="105.307313"><ele>612.5678</ele><time>2025-12-27T22:02:47.000Z</time></trkpt>
        <trkpt lat="28.826761" lon="105.307267"><ele>613.6475</ele><time>2025-12-27T22:03:05.000Z</time></trkpt>
        <trkpt lat="28.826766" lon="105.307292"><ele>614.169</ele><time>2025-12-27T22:03:08.000Z</time></trkpt>
        <trkpt lat="28.82679" lon="105.307361"><ele>614.55444</ele><time>2025-12-27T22:03:18.000Z</time></trkpt>
        <trkpt lat="28.826839" lon="105.307394"><ele>614.7987</ele><time>2025-12-27T22:03:35.000Z</time></trkpt>
        <trkpt lat="28.826887" lon="105.307426"><ele>616.0465</ele><time>2025-12-27T22:03:43.000Z</time></trkpt>
        <trkpt lat="28.826904" lon="105.307383"><ele>617.071</ele><time>2025-12-27T22:03:59.000Z</time></trkpt>
        <trkpt lat="28.826936" lon="105.307356"><ele>617.25793</ele><time>2025-12-27T22:04:06.000Z</time></trkpt>
        <trkpt lat="28.826976" lon="105.307392"><ele>617.0879</ele><time>2025-12-27T22:04:11.000Z</time></trkpt>
        <trkpt lat="28.826983" lon="105.307448"><ele>616.8134</ele><time>2025-12-27T22:04:16.000Z</time></trkpt>
        <trkpt lat="28.826981" lon="105.307512"><ele>617.3294</ele><time>2025-12-27T22:04:22.000Z</time></trkpt>
        <trkpt lat="28.826959" lon="105.307569"><ele>616.1169</ele><time>2025-12-27T22:04:28.000Z</time></trkpt>
        <trkpt lat="28.82696" lon="105.307621"><ele>615.50867</ele><time>2025-12-27T22:04:33.000Z</time></trkpt>
        <trkpt lat="28.826967" lon="105.307676"><ele>614.22437</ele><time>2025-12-27T22:04:38.000Z</time></trkpt>
        <trkpt lat="28.826979" lon="105.307743"><ele>613.5384</ele><time>2025-12-27T22:04:44.000Z</time></trkpt>
        <trkpt lat="28.826981" lon="105.307805"><ele>613.0549</ele><time>2025-12-27T22:04:52.000Z</time></trkpt>
        <trkpt lat="28.827014" lon="105.307848"><ele>613.4779</ele><time>2025-12-27T22:04:59.000Z</time></trkpt>
        <trkpt lat="28.827044" lon="105.307885"><ele>612.9911</ele><time>2025-12-27T22:05:04.000Z</time></trkpt>
        <trkpt lat="28.827072" lon="105.307934"><ele>612.81226</ele><time>2025-12-27T22:05:08.000Z</time></trkpt>
        <trkpt lat="28.827099" lon="105.307995"><ele>614.1631</ele><time>2025-12-27T22:05:14.000Z</time></trkpt>
        <trkpt lat="28.827127" lon="105.308035"><ele>614.671</ele><time>2025-12-27T22:05:18.000Z</time></trkpt>
        <trkpt lat="28.827151" lon="105.308084"><ele>614.55743</ele><time>2025-12-27T22:05:23.000Z</time></trkpt>
        <trkpt lat="28.827182" lon="105.30812"><ele>614.3509</ele><time>2025-12-27T22:05:28.000Z</time></trkpt>
        <trkpt lat="28.827223" lon="105.308173"><ele>615.4681</ele><time>2025-12-27T22:05:36.000Z</time></trkpt>
        <trkpt lat="28.827258" lon="105.308207"><ele>615.9351</ele><time>2025-12-27T22:05:43.000Z</time></trkpt>
        <trkpt lat="28.827295" lon="105.30824"><ele>615.38696</ele><time>2025-12-27T22:05:49.000Z</time></trkpt>
        <trkpt lat="28.827339" lon="105.308245"><ele>615.2044</ele><time>2025-12-27T22:05:54.000Z</time></trkpt>
        <trkpt lat="28.827386" lon="105.308265"><ele>614.1421</ele><time>2025-12-27T22:06:00.000Z</time></trkpt>
        <trkpt lat="28.82743" lon="105.308275"><ele>613.5911</ele><time>2025-12-27T22:06:04.000Z</time></trkpt>
        <trkpt lat="28.827487" lon="105.308278"><ele>612.6424</ele><time>2025-12-27T22:06:09.000Z</time></trkpt>
        <trkpt lat="28.82754" lon="105.308293"><ele>612.7583</ele><time>2025-12-27T22:06:18.000Z</time></trkpt>
        <trkpt lat="28.827579" lon="105.308316"><ele>614.1226</ele><time>2025-12-27T22:06:34.000Z</time></trkpt>
        <trkpt lat="28.827629" lon="105.308349"><ele>613.884</ele><time>2025-12-27T22:07:21.000Z</time></trkpt>
        <trkpt lat="28.82766" lon="105.308378"><ele>613.94775</ele><time>2025-12-27T22:07:25.000Z</time></trkpt>
        <trkpt lat="28.827695" lon="105.308425"><ele>615.3297</ele><time>2025-12-27T22:07:29.000Z</time></trkpt>
        <trkpt lat="28.827694" lon="105.308478"><ele>617.2832</ele><time>2025-12-27T22:07:33.000Z</time></trkpt>
        <trkpt lat="28.827672" lon="105.308541"><ele>617.89844</ele><time>2025-12-27T22:07:38.000Z</time></trkpt>
        <trkpt lat="28.827634" lon="105.308598"><ele>617.9961</ele><time>2025-12-27T22:07:44.000Z</time></trkpt>
        <trkpt lat="28.827612" lon="105.308652"><ele>618.43243</ele><time>2025-12-27T22:07:49.000Z</time></trkpt>
        <trkpt lat="28.827593" lon="105.308699"><ele>618.57336</ele><time>2025-12-27T22:07:53.000Z</time></trkpt>
        <trkpt lat="28.827584" lon="105.308746"><ele>618.4158</ele><time>2025-12-27T22:07:56.000Z</time></trkpt>
        <trkpt lat="28.827589" lon="105.308808"><ele>618.00635</ele><time>2025-12-27T22:08:00.000Z</time></trkpt>
        <trkpt lat="28.827587" lon="105.308881"><ele>618.0683</ele><time>2025-12-27T22:08:05.000Z</time></trkpt>
        <trkpt lat="28.827593" lon="105.308947"><ele>618.5557</ele><time>2025-12-27T22:08:10.000Z</time></trkpt>
        <trkpt lat="28.827591" lon="105.308997"><ele>619.1368</ele><time>2025-12-27T22:08:14.000Z</time></trkpt>
        <trkpt lat="28.827564" lon="105.30905"><ele>619.7004</ele><time>2025-12-27T22:08:19.000Z</time></trkpt>
        <trkpt lat="28.827524" lon="105.309084"><ele>619.5897</ele><time>2025-12-27T22:08:23.000Z</time></trkpt>
        <trkpt lat="28.827474" lon="105.309104"><ele>619.35486</ele><time>2025-12-27T22:08:28.000Z</time></trkpt>
        <trkpt lat="28.827414" lon="105.309105"><ele>619.3464</ele><time>2025-12-27T22:08:31.000Z</time></trkpt>
        <trkpt lat="28.827349" lon="105.309075"><ele>619.96893</ele><time>2025-12-27T22:08:37.000Z</time></trkpt>
        <trkpt lat="28.827306" lon="105.309098"><ele>621.7192</ele><time>2025-12-27T22:08:45.000Z</time></trkpt>
        <trkpt lat="28.827342" lon="105.309069"><ele>621.1341</ele><time>2025-12-27T22:09:03.000Z</time></trkpt>
        <trkpt lat="28.827355" lon="105.309018"><ele>620.7219</ele><time>2025-12-27T22:09:08.000Z</time></trkpt>
        <trkpt lat="28.827347" lon="105.309065"><ele>621.7666</ele><time>2025-12-27T22:09:30.000Z</time></trkpt>
        <trkpt lat="28.827341" lon="105.309118"><ele>622.8868</ele><time>2025-12-27T22:09:35.000Z</time></trkpt>
        <trkpt lat="28.827354" lon="105.30917"><ele>623.0756</ele><time>2025-12-27T22:09:39.000Z</time></trkpt>
        <trkpt lat="28.827388" lon="105.309223"><ele>623.01306</ele><time>2025-12-27T22:09:45.000Z</time></trkpt>
        <trkpt lat="28.827414" lon="105.309276"><ele>622.43604</ele><time>2025-12-27T22:09:51.000Z</time></trkpt>
        <trkpt lat="28.827423" lon="105.309327"><ele>622.8399</ele><time>2025-12-27T22:09:57.000Z</time></trkpt>
        <trkpt lat="28.827433" lon="105.309373"><ele>622.9122</ele><time>2025-12-27T22:10:01.000Z</time></trkpt>
        <trkpt lat="28.827437" lon="105.309429"><ele>622.70245</ele><time>2025-12-27T22:10:06.000Z</time></trkpt>
        <trkpt lat="28.827421" lon="105.309482"><ele>622.41907</ele><time>2025-12-27T22:10:10.000Z</time></trkpt>
        <trkpt lat="28.82741" lon="105.309541"><ele>621.94055</ele><time>2025-12-27T22:10:15.000Z</time></trkpt>
        <trkpt lat="28.827418" lon="105.309596"><ele>621.67645</ele><time>2025-12-27T22:10:20.000Z</time></trkpt>
        <trkpt lat="28.827433" lon="105.309643"><ele>621.7632</ele><time>2025-12-27T22:10:24.000Z</time></trkpt>
        <trkpt lat="28.827456" lon="105.30969"><ele>622.18536</ele><time>2025-12-27T22:10:28.000Z</time></trkpt>
        <trkpt lat="28.827477" lon="105.309724"><ele>622.2052</ele><time>2025-12-27T22:10:30.000Z</time></trkpt>
        <trkpt lat="28.827515" lon="105.309769"><ele>622.84344</ele><time>2025-12-27T22:10:34.000Z</time></trkpt>
        <trkpt lat="28.827553" lon="105.309822"><ele>623.63727</ele><time>2025-12-27T22:10:39.000Z</time></trkpt>
        <trkpt lat="28.827582" lon="105.30986"><ele>623.87</ele><time>2025-12-27T22:10:43.000Z</time></trkpt>
        <trkpt lat="28.827615" lon="105.309909"><ele>623.0398</ele><time>2025-12-27T22:10:51.000Z</time></trkpt>
        <trkpt lat="28.827639" lon="105.309979"><ele>620.83374</ele><time>2025-12-27T22:11:09.000Z</time></trkpt>
        <trkpt lat="28.827649" lon="105.310024"><ele>620.5932</ele><time>2025-12-27T22:11:15.000Z</time></trkpt>
        <trkpt lat="28.827663" lon="105.31007"><ele>620.40265</ele><time>2025-12-27T22:11:19.000Z</time></trkpt>
        <trkpt lat="28.827659" lon="105.310133"><ele>620.4313</ele><time>2025-12-27T22:11:24.000Z</time></trkpt>
        <trkpt lat="28.827645" lon="105.310187"><ele>620.9401</ele><time>2025-12-27T22:11:28.000Z</time></trkpt>
        <trkpt lat="28.827629" lon="105.310252"><ele>621.8636</ele><time>2025-12-27T22:11:34.000Z</time></trkpt>
        <trkpt lat="28.827615" lon="105.310293"><ele>622.5006</ele><time>2025-12-27T22:11:37.000Z</time></trkpt>
        <trkpt lat="28.827585" lon="105.31034"><ele>623.0022</ele><time>2025-12-27T22:11:41.000Z</time></trkpt>
        <trkpt lat="28.827561" lon="105.310392"><ele>624.1531</ele><time>2025-12-27T22:11:46.000Z</time></trkpt>
        <trkpt lat="28.827543" lon="105.310441"><ele>624.8815</ele><time>2025-12-27T22:11:51.000Z</time></trkpt>
        <trkpt lat="28.82751" lon="105.310481"><ele>625.8366</ele><time>2025-12-27T22:11:56.000Z</time></trkpt>
        <trkpt lat="28.827495" lon="105.310534"><ele>627.3507</ele><time>2025-12-27T22:12:01.000Z</time></trkpt>
        <trkpt lat="28.827478" lon="105.310596"><ele>628.6334</ele><time>2025-12-27T22:12:07.000Z</time></trkpt>
        <trkpt lat="28.827444" lon="105.310636"><ele>629.19257</ele><time>2025-12-27T22:12:11.000Z</time></trkpt>
        <trkpt lat="28.827409" lon="105.310699"><ele>629.435</ele><time>2025-12-27T22:12:20.000Z</time></trkpt>
        <trkpt lat="28.827391" lon="105.310733"><ele>629.69116</ele><time>2025-12-27T22:12:23.000Z</time></trkpt>
        <trkpt lat="28.827357" lon="105.310787"><ele>629.13153</ele><time>2025-12-27T22:12:28.000Z</time></trkpt>
        <trkpt lat="28.827345" lon="105.310844"><ele>628.78107</ele><time>2025-12-27T22:12:33.000Z</time></trkpt>
        <trkpt lat="28.827355" lon="105.310904"><ele>629.9731</ele><time>2025-12-27T22:12:51.000Z</time></trkpt>
        <trkpt lat="28.827398" lon="105.310911"><ele>631.0179</ele><time>2025-12-27T22:12:57.000Z</time></trkpt>
        <trkpt lat="28.827452" lon="105.310924"><ele>631.9095</ele><time>2025-12-27T22:13:06.000Z</time></trkpt>
        <trkpt lat="28.827492" lon="105.310957"><ele>632.25903</ele><time>2025-12-27T22:13:15.000Z</time></trkpt>
        <trkpt lat="28.827534" lon="105.310986"><ele>633.326</ele><time>2025-12-27T22:13:22.000Z</time></trkpt>
        <trkpt lat="28.827551" lon="105.311038"><ele>632.5229</ele><time>2025-12-27T22:13:27.000Z</time></trkpt>
        <trkpt lat="28.827581" lon="105.311088"><ele>633.44214</ele><time>2025-12-27T22:13:34.000Z</time></trkpt>
        <trkpt lat="28.827619" lon="105.311124"><ele>634.16876</ele><time>2025-12-27T22:13:42.000Z</time></trkpt>
        <trkpt lat="28.827649" lon="105.311166"><ele>634.48114</ele><time>2025-12-27T22:13:47.000Z</time></trkpt>
        <trkpt lat="28.827684" lon="105.311206"><ele>634.0562</ele><time>2025-12-27T22:13:52.000Z</time></trkpt>
        <trkpt lat="28.827715" lon="105.311246"><ele>634.3852</ele><time>2025-12-27T22:13:57.000Z</time></trkpt>
        <trkpt lat="28.827738" lon="105.31129"><ele>634.6425</ele><time>2025-12-27T22:14:02.000Z</time></trkpt>
        <trkpt lat="28.827773" lon="105.311337"><ele>634.26544</ele><time>2025-12-27T22:14:08.000Z</time></trkpt>
        <trkpt lat="28.827825" lon="105.311354"><ele>634.24945</ele><time>2025-12-27T22:14:14.000Z</time></trkpt>
        <trkpt lat="28.827857" lon="105.311391"><ele>634.6638</ele><time>2025-12-27T22:14:21.000Z</time></trkpt>
        <trkpt lat="28.827897" lon="105.311404"><ele>634.7885</ele><time>2025-12-27T22:14:28.000Z</time></trkpt>
        <trkpt lat="28.827947" lon="105.311417"><ele>633.9354</ele><time>2025-12-27T22:14:35.000Z</time></trkpt>
        <trkpt lat="28.828001" lon="105.311398"><ele>634.1601</ele><time>2025-12-27T22:14:43.000Z</time></trkpt>
        <trkpt lat="28.828049" lon="105.311399"><ele>634.01715</ele><time>2025-12-27T22:14:48.000Z</time></trkpt>
        <trkpt lat="28.828096" lon="105.31142"><ele>633.793</ele><time>2025-12-27T22:14:54.000Z</time></trkpt>
        <trkpt lat="28.828137" lon="105.311427"><ele>633.5406</ele><time>2025-12-27T22:14:57.000Z</time></trkpt>
        <trkpt lat="28.828192" lon="105.311435"><ele>633.6293</ele><time>2025-12-27T22:15:02.000Z</time></trkpt>
        <trkpt lat="28.82824" lon="105.311413"><ele>634.3969</ele><time>2025-12-27T22:15:08.000Z</time></trkpt>
        <trkpt lat="28.828282" lon="105.311381"><ele>634.99963</ele><time>2025-12-27T22:15:14.000Z</time></trkpt>
        <trkpt lat="28.828318" lon="105.311347"><ele>635.71313</ele><time>2025-12-27T22:15:21.000Z</time></trkpt>
        <trkpt lat="28.828369" lon="105.31132"><ele>636.14526</ele><time>2025-12-27T22:15:27.000Z</time></trkpt>
        <trkpt lat="28.828417" lon="105.311331"><ele>635.7971</ele><time>2025-12-27T22:15:31.000Z</time></trkpt>
        <trkpt lat="28.828461" lon="105.311363"><ele>635.52704</ele><time>2025-12-27T22:15:35.000Z</time></trkpt>
        <trkpt lat="28.828491" lon="105.311402"><ele>635.20105</ele><time>2025-12-27T22:15:38.000Z</time></trkpt>
        <trkpt lat="28.82852" lon="105.31146"><ele>634.5377</ele><time>2025-12-27T22:15:43.000Z</time></trkpt>
        <trkpt lat="28.828552" lon="105.3115"><ele>635.3763</ele><time>2025-12-27T22:15:48.000Z</time></trkpt>
        <trkpt lat="28.828556" lon="105.311553"><ele>637.0942</ele><time>2025-12-27T22:16:07.000Z</time></trkpt>
        <trkpt lat="28.828568" lon="105.311592"><ele>637.48956</ele><time>2025-12-27T22:16:15.000Z</time></trkpt>
        <trkpt lat="28.828584" lon="105.311653"><ele>637.57635</ele><time>2025-12-27T22:16:26.000Z</time></trkpt>
        <trkpt lat="28.828584" lon="105.3117"><ele>637.88</ele><time>2025-12-27T22:16:31.000Z</time></trkpt>
        <trkpt lat="28.828588" lon="105.311757"><ele>637.28357</ele><time>2025-12-27T22:16:36.000Z</time></trkpt>
        <trkpt lat="28.828608" lon="105.311807"><ele>636.75336</ele><time>2025-12-27T22:16:44.000Z</time></trkpt>
        <trkpt lat="28.828643" lon="105.311844"><ele>636.5565</ele><time>2025-12-27T22:16:55.000Z</time></trkpt>
        <trkpt lat="28.828683" lon="105.311876"><ele>635.92413</ele><time>2025-12-27T22:17:02.000Z</time></trkpt>
        <trkpt lat="28.8287" lon="105.311921"><ele>636.2318</ele><time>2025-12-27T22:17:07.000Z</time></trkpt>
        <trkpt lat="28.828673" lon="105.311954"><ele>636.2767</ele><time>2025-12-27T22:17:12.000Z</time></trkpt>
        <trkpt lat="28.828633" lon="105.311983"><ele>635.7085</ele><time>2025-12-27T22:17:16.000Z</time></trkpt>
        <trkpt lat="28.828572" lon="105.311995"><ele>635.518</ele><time>2025-12-27T22:17:23.000Z</time></trkpt>
        <trkpt lat="28.828527" lon="105.311958"><ele>634.33954</ele><time>2025-12-27T22:17:54.000Z</time></trkpt>
        <trkpt lat="28.828507" lon="105.311919"><ele>633.7443</ele><time>2025-12-27T22:17:59.000Z</time></trkpt>
        <trkpt lat="28.828537" lon="105.311935"><ele>635.0394</ele><time>2025-12-27T22:18:29.000Z</time></trkpt>
        <trkpt lat="28.828501" lon="105.311935"><ele>634.59814</ele><time>2025-12-27T22:18:36.000Z</time></trkpt>
        <trkpt lat="28.828524" lon="105.311956"><ele>633.9934</ele><time>2025-12-27T22:18:42.000Z</time></trkpt>
        <trkpt lat="28.828572" lon="105.311976"><ele>634.508</ele><time>2025-12-27T22:18:49.000Z</time></trkpt>
        <trkpt lat="28.828622" lon="105.312002"><ele>635.1161</ele><time>2025-12-27T22:18:59.000Z</time></trkpt>
        <trkpt lat="28.828635" lon="105.312049"><ele>633.825</ele><time>2025-12-27T22:19:05.000Z</time></trkpt>
        <trkpt lat="28.828662" lon="105.312101"><ele>634.75415</ele><time>2025-12-27T22:19:12.000Z</time></trkpt>
        <trkpt lat="28.828676" lon="105.312149"><ele>635.0477</ele><time>2025-12-27T22:19:16.000Z</time></trkpt>
        <trkpt lat="28.82869" lon="105.312209"><ele>634.0353</ele><time>2025-12-27T22:19:23.000Z</time></trkpt>
        <trkpt lat="28.82872" lon="105.312256"><ele>632.8562</ele><time>2025-12-27T22:19:34.000Z</time></trkpt>
        <trkpt lat="28.828758" lon="105.312273"><ele>633.50916</ele><time>2025-12-27T22:19:40.000Z</time></trkpt>
        <trkpt lat="28.828795" lon="105.312285"><ele>633.53577</ele><time>2025-12-27T22:19:43.000Z</time></trkpt>
        <trkpt lat="28.82885" lon="105.312309"><ele>633.9518</ele><time>2025-12-27T22:19:49.000Z</time></trkpt>
        <trkpt lat="28.82891" lon="105.312335"><ele>634.1044</ele><time>2025-12-27T22:19:56.000Z</time></trkpt>
        <trkpt lat="28.828955" lon="105.312311"><ele>633.38794</ele><time>2025-12-27T22:20:04.000Z</time></trkpt>
        <trkpt lat="28.828982" lon="105.312345"><ele>633.13</ele><time>2025-12-27T22:20:28.000Z</time></trkpt>
        <trkpt lat="28.828985" lon="105.3124"><ele>633.33875</ele><time>2025-12-27T22:20:39.000Z</time></trkpt>
        <trkpt lat="28.829002" lon="105.312452"><ele>632.53424</ele><time>2025-12-27T22:20:45.000Z</time></trkpt>
        <trkpt lat="28.829034" lon="105.312503"><ele>631.31934</ele><time>2025-12-27T22:20:52.000Z</time></trkpt>
        <trkpt lat="28.829053" lon="105.312553"><ele>631.0598</ele><time>2025-12-27T22:20:59.000Z</time></trkpt>
        <trkpt lat="28.829055" lon="105.312506"><ele>629.566</ele><time>2025-12-27T22:21:11.000Z</time></trkpt>
        <trkpt lat="28.829069" lon="105.312457"><ele>629.8311</ele><time>2025-12-27T22:21:15.000Z</time></trkpt>
        <trkpt lat="28.829101" lon="105.312416"><ele>629.802</ele><time>2025-12-27T22:21:19.000Z</time></trkpt>
        <trkpt lat="28.829141" lon="105.312373"><ele>629.6985</ele><time>2025-12-27T22:21:23.000Z</time></trkpt>
        <trkpt lat="28.829186" lon="105.312334"><ele>630.3301</ele><time>2025-12-27T22:21:28.000Z</time></trkpt>
        <trkpt lat="28.829222" lon="105.312304"><ele>631.0809</ele><time>2025-12-27T22:21:32.000Z</time></trkpt>
        <trkpt lat="28.829265" lon="105.312285"><ele>631.2539</ele><time>2025-12-27T22:21:37.000Z</time></trkpt>
        <trkpt lat="28.829317" lon="105.312266"><ele>630.43</ele><time>2025-12-27T22:21:42.000Z</time></trkpt>
        <trkpt lat="28.829374" lon="105.312268"><ele>629.4097</ele><time>2025-12-27T22:21:48.000Z</time></trkpt>
        <trkpt lat="28.829419" lon="105.312295"><ele>628.6596</ele><time>2025-12-27T22:21:52.000Z</time></trkpt>
        <trkpt lat="28.829463" lon="105.312343"><ele>628.14984</ele><time>2025-12-27T22:21:58.000Z</time></trkpt>
        <trkpt lat="28.829502" lon="105.312386"><ele>627.88745</ele><time>2025-12-27T22:22:04.000Z</time></trkpt>
        <trkpt lat="28.829535" lon="105.312423"><ele>628.432</ele><time>2025-12-27T22:22:10.000Z</time></trkpt>
        <trkpt lat="28.829588" lon="105.312442"><ele>629.1776</ele><time>2025-12-27T22:22:18.000Z</time></trkpt>
        <trkpt lat="28.829629" lon="105.312463"><ele>629.3901</ele><time>2025-12-27T22:22:24.000Z</time></trkpt>
        <trkpt lat="28.829666" lon="105.312489"><ele>629.55664</ele><time>2025-12-27T22:22:29.000Z</time></trkpt>
        <trkpt lat="28.82971" lon="105.31253"><ele>629.47644</ele><time>2025-12-27T22:22:34.000Z</time></trkpt>
        <trkpt lat="28.829768" lon="105.312564"><ele>629.11945</ele><time>2025-12-27T22:22:41.000Z</time></trkpt>
        <trkpt lat="28.829808" lon="105.312588"><ele>629.30133</ele><time>2025-12-27T22:22:46.000Z</time></trkpt>
        <trkpt lat="28.829854" lon="105.312609"><ele>630.1253</ele><time>2025-12-27T22:22:51.000Z</time></trkpt>
        <trkpt lat="28.829897" lon="105.312626"><ele>630.4109</ele><time>2025-12-27T22:22:54.000Z</time></trkpt>
        <trkpt lat="28.829946" lon="105.312643"><ele>631.41046</ele><time>2025-12-27T22:22:59.000Z</time></trkpt>
        <trkpt lat="28.830004" lon="105.312652"><ele>631.8141</ele><time>2025-12-27T22:23:05.000Z</time></trkpt>
        <trkpt lat="28.83005" lon="105.312646"><ele>632.17163</ele><time>2025-12-27T22:23:10.000Z</time></trkpt>
        <trkpt lat="28.830099" lon="105.31263"><ele>632.90125</ele><time>2025-12-27T22:23:15.000Z</time></trkpt>
        <trkpt lat="28.830162" lon="105.3126"><ele>633.17773</ele><time>2025-12-27T22:23:22.000Z</time></trkpt>
        <trkpt lat="28.830201" lon="105.312561"><ele>633.2005</ele><time>2025-12-27T22:23:27.000Z</time></trkpt>
        <trkpt lat="28.830246" lon="105.312529"><ele>633.41187</ele><time>2025-12-27T22:23:32.000Z</time></trkpt>
        <trkpt lat="28.830292" lon="105.312496"><ele>633.2323</ele><time>2025-12-27T22:23:38.000Z</time></trkpt>
        <trkpt lat="28.830337" lon="105.312471"><ele>632.65424</ele><time>2025-12-27T22:23:44.000Z</time></trkpt>
        <trkpt lat="28.830385" lon="105.312437"><ele>633.3226</ele><time>2025-12-27T22:23:49.000Z</time></trkpt>
        <trkpt lat="28.830441" lon="105.312413"><ele>633.80743</ele><time>2025-12-27T22:23:56.000Z</time></trkpt>
        <trkpt lat="28.830482" lon="105.312388"><ele>633.5494</ele><time>2025-12-27T22:24:01.000Z</time></trkpt>
        <trkpt lat="28.830523" lon="105.312367"><ele>632.973</ele><time>2025-12-27T22:24:05.000Z</time></trkpt>
        <trkpt lat="28.830561" lon="105.312331"><ele>631.89465</ele><time>2025-12-27T22:24:11.000Z</time></trkpt>
        <trkpt lat="28.830582" lon="105.312279"><ele>632.0447</ele><time>2025-12-27T22:24:17.000Z</time></trkpt>
        <trkpt lat="28.830603" lon="105.312232"><ele>631.6665</ele><time>2025-12-27T22:24:22.000Z</time></trkpt>
        <trkpt lat="28.830644" lon="105.312203"><ele>632.1276</ele><time>2025-12-27T22:24:27.000Z</time></trkpt>
        <trkpt lat="28.830694" lon="105.312175"><ele>632.9349</ele><time>2025-12-27T22:24:32.000Z</time></trkpt>
        <trkpt lat="28.83074" lon="105.312145"><ele>633.3168</ele><time>2025-12-27T22:24:37.000Z</time></trkpt>
        <trkpt lat="28.830785" lon="105.312124"><ele>633.26105</ele><time>2025-12-27T22:24:42.000Z</time></trkpt>
        <trkpt lat="28.830821" lon="105.312109"><ele>633.2963</ele><time>2025-12-27T22:24:45.000Z</time></trkpt>
        <trkpt lat="28.830873" lon="105.312085"><ele>633.1093</ele><time>2025-12-27T22:24:50.000Z</time></trkpt>
        <trkpt lat="28.830914" lon="105.312056"><ele>633.257</ele><time>2025-12-27T22:24:55.000Z</time></trkpt>
        <trkpt lat="28.830955" lon="105.31203"><ele>633.59064</ele><time>2025-12-27T22:25:00.000Z</time></trkpt>
        <trkpt lat="28.830998" lon="105.312013"><ele>633.25903</ele><time>2025-12-27T22:25:05.000Z</time></trkpt>
        <trkpt lat="28.831045" lon="105.312014"><ele>632.15466</ele><time>2025-12-27T22:25:10.000Z</time></trkpt>
        <trkpt lat="28.831097" lon="105.31203"><ele>631.12054</ele><time>2025-12-27T22:25:14.000Z</time></trkpt>
        <trkpt lat="28.831155" lon="105.312029"><ele>630.83966</ele><time>2025-12-27T22:25:19.000Z</time></trkpt>
        <trkpt lat="28.831202" lon="105.312025"><ele>630.2357</ele><time>2025-12-27T22:25:23.000Z</time></trkpt>
        <trkpt lat="28.831248" lon="105.312023"><ele>629.6744</ele><time>2025-12-27T22:25:27.000Z</time></trkpt>
        <trkpt lat="28.8313" lon="105.312012"><ele>629.3463</ele><time>2025-12-27T22:25:33.000Z</time></trkpt>
        <trkpt lat="28.831338" lon="105.311989"><ele>628.8664</ele><time>2025-12-27T22:25:38.000Z</time></trkpt>
        <trkpt lat="28.831379" lon="105.311952"><ele>628.94635</ele><time>2025-12-27T22:25:44.000Z</time></trkpt>
        <trkpt lat="28.831424" lon="105.311935"><ele>628.54333</ele><time>2025-12-27T22:25:50.000Z</time></trkpt>
        <trkpt lat="28.831475" lon="105.311912"><ele>628.1941</ele><time>2025-12-27T22:25:56.000Z</time></trkpt>
        <trkpt lat="28.831528" lon="105.3119"><ele>628.09247</ele><time>2025-12-27T22:26:03.000Z</time></trkpt>
        <trkpt lat="28.831576" lon="105.311886"><ele>627.8359</ele><time>2025-12-27T22:26:11.000Z</time></trkpt>
        <trkpt lat="28.831633" lon="105.311874"><ele>629.0525</ele><time>2025-12-27T22:26:20.000Z</time></trkpt>
        <trkpt lat="28.831682" lon="105.311886"><ele>628.17096</ele><time>2025-12-27T22:26:26.000Z</time></trkpt>
        <trkpt lat="28.831727" lon="105.311916"><ele>630.19574</ele><time>2025-12-27T22:26:37.000Z</time></trkpt>
        <trkpt lat="28.831766" lon="105.311925"><ele>629.8257</ele><time>2025-12-27T22:26:42.000Z</time></trkpt>
        <trkpt lat="28.831807" lon="105.311955"><ele>629.39825</ele><time>2025-12-27T22:26:47.000Z</time></trkpt>
        <trkpt lat="28.831845" lon="105.312"><ele>627.1678</ele><time>2025-12-27T22:26:57.000Z</time></trkpt>
        <trkpt lat="28.831815" lon="105.311959"><ele>627.3526</ele><time>2025-12-27T22:27:07.000Z</time></trkpt>
        <trkpt lat="28.831817" lon="105.311908"><ele>626.4806</ele><time>2025-12-27T22:27:13.000Z</time></trkpt>
        <trkpt lat="28.831823" lon="105.311852"><ele>625.5253</ele><time>2025-12-27T22:27:19.000Z</time></trkpt>
        <trkpt lat="28.831862" lon="105.311819"><ele>625.0562</ele><time>2025-12-27T22:27:27.000Z</time></trkpt>
        <trkpt lat="28.831895" lon="105.311843"><ele>625.0346</ele><time>2025-12-27T22:27:31.000Z</time></trkpt>
        <trkpt lat="28.831931" lon="105.31188"><ele>624.8493</ele><time>2025-12-27T22:27:35.000Z</time></trkpt>
        <trkpt lat="28.83197" lon="105.311916"><ele>624.2148</ele><time>2025-12-27T22:27:39.000Z</time></trkpt>
        <trkpt lat="28.83202" lon="105.31197"><ele>623.0011</ele><time>2025-12-27T22:27:45.000Z</time></trkpt>
        <trkpt lat="28.832039" lon="105.312027"><ele>622.97754</ele><time>2025-12-27T22:27:50.000Z</time></trkpt>
        <trkpt lat="28.832054" lon="105.312087"><ele>623.1209</ele><time>2025-12-27T22:27:57.000Z</time></trkpt>
        <trkpt lat="28.832074" lon="105.312128"><ele>623.19794</ele><time>2025-12-27T22:28:01.000Z</time></trkpt>
        <trkpt lat="28.832106" lon="105.312177"><ele>622.9152</ele><time>2025-12-27T22:28:06.000Z</time></trkpt>
        <trkpt lat="28.832148" lon="105.312217"><ele>622.0716</ele><time>2025-12-27T22:28:14.000Z</time></trkpt>
        <trkpt lat="28.832184" lon="105.312237"><ele>621.735</ele><time>2025-12-27T22:28:18.000Z</time></trkpt>
        <trkpt lat="28.832231" lon="105.312266"><ele>620.4997</ele><time>2025-12-27T22:28:25.000Z</time></trkpt>
        <trkpt lat="28.832278" lon="105.312281"><ele>619.50006</ele><time>2025-12-27T22:28:31.000Z</time></trkpt>
        <trkpt lat="28.832319" lon="105.312314"><ele>617.7451</ele><time>2025-12-27T22:28:38.000Z</time></trkpt>
        <trkpt lat="28.832362" lon="105.312333"><ele>616.18335</ele><time>2025-12-27T22:28:44.000Z</time></trkpt>
        <trkpt lat="28.832404" lon="105.312344"><ele>614.9384</ele><time>2025-12-27T22:28:48.000Z</time></trkpt>
        <trkpt lat="28.832455" lon="105.312354"><ele>614.0515</ele><time>2025-12-27T22:28:53.000Z</time></trkpt>
        <trkpt lat="28.832511" lon="105.312383"><ele>613.1024</ele><time>2025-12-27T22:29:01.000Z</time></trkpt>
        <trkpt lat="28.832543" lon="105.312409"><ele>612.6729</ele><time>2025-12-27T22:29:05.000Z</time></trkpt>
        <trkpt lat="28.832575" lon="105.312446"><ele>612.923</ele><time>2025-12-27T22:29:09.000Z</time></trkpt>
        <trkpt lat="28.832601" lon="105.312495"><ele>613.24884</ele><time>2025-12-27T22:29:14.000Z</time></trkpt>
        <trkpt lat="28.832614" lon="105.312549"><ele>613.5353</ele><time>2025-12-27T22:29:18.000Z</time></trkpt>
        <trkpt lat="28.832612" lon="105.312607"><ele>612.95557</ele><time>2025-12-27T22:29:24.000Z</time></trkpt>
        <trkpt lat="28.832615" lon="105.312654"><ele>612.42426</ele><time>2025-12-27T22:29:28.000Z</time></trkpt>
        <trkpt lat="28.832621" lon="105.31271"><ele>611.3988</ele><time>2025-12-27T22:29:32.000Z</time></trkpt>
        <trkpt lat="28.83262" lon="105.312774"><ele>611.47107</ele><time>2025-12-27T22:29:36.000Z</time></trkpt>
        <trkpt lat="28.832603" lon="105.312841"><ele>610.6437</ele><time>2025-12-27T22:29:44.000Z</time></trkpt>
        <trkpt lat="28.832586" lon="105.312894"><ele>607.8336</ele><time>2025-12-27T22:29:52.000Z</time></trkpt>
        <trkpt lat="28.832577" lon="105.312945"><ele>605.76685</ele><time>2025-12-27T22:29:56.000Z</time></trkpt>
        <trkpt lat="28.832589" lon="105.313002"><ele>603.7965</ele><time>2025-12-27T22:30:02.000Z</time></trkpt>
        <trkpt lat="28.832602" lon="105.313047"><ele>602.7617</ele><time>2025-12-27T22:30:05.000Z</time></trkpt>
        <trkpt lat="28.832622" lon="105.313101"><ele>601.1105</ele><time>2025-12-27T22:30:09.000Z</time></trkpt>
        <trkpt lat="28.832604" lon="105.313177"><ele>597.81433</ele><time>2025-12-27T22:30:18.000Z</time></trkpt>
        <trkpt lat="28.832599" lon="105.313239"><ele>595.17847</ele><time>2025-12-27T22:30:24.000Z</time></trkpt>
        <trkpt lat="28.832606" lon="105.3133"><ele>591.7868</ele><time>2025-12-27T22:30:32.000Z</time></trkpt>
        <trkpt lat="28.832616" lon="105.313349"><ele>589.45105</ele><time>2025-12-27T22:30:38.000Z</time></trkpt>
        <trkpt lat="28.832636" lon="105.313392"><ele>588.88586</ele><time>2025-12-27T22:30:42.000Z</time></trkpt>
        <trkpt lat="28.832667" lon="105.313444"><ele>588.50653</ele><time>2025-12-27T22:30:47.000Z</time></trkpt>
        <trkpt lat="28.832706" lon="105.31348"><ele>588.3248</ele><time>2025-12-27T22:30:52.000Z</time></trkpt>
        <trkpt lat="28.832762" lon="105.31349"><ele>587.90625</ele><time>2025-12-27T22:31:00.000Z</time></trkpt>
        <trkpt lat="28.83276" lon="105.313532"><ele>587.3723</ele><time>2025-12-27T22:31:05.000Z</time></trkpt>
        <trkpt lat="28.832742" lon="105.313597"><ele>585.81635</ele><time>2025-12-27T22:31:12.000Z</time></trkpt>
        <trkpt lat="28.832729" lon="105.313655"><ele>586.3168</ele><time>2025-12-27T22:31:18.000Z</time></trkpt>
        <trkpt lat="28.832724" lon="105.313715"><ele>587.0332</ele><time>2025-12-27T22:31:23.000Z</time></trkpt>
        <trkpt lat="28.83273" lon="105.313783"><ele>588.0468</ele><time>2025-12-27T22:31:36.000Z</time></trkpt>
        <trkpt lat="28.8327" lon="105.31382"><ele>589.7478</ele><time>2025-12-27T22:31:47.000Z</time></trkpt>
        <trkpt lat="28.832723" lon="105.313861"><ele>590.8362</ele><time>2025-12-27T22:32:00.000Z</time></trkpt>
        <trkpt lat="28.832736" lon="105.313914"><ele>590.53845</ele><time>2025-12-27T22:32:26.000Z</time></trkpt>
        <trkpt lat="28.83273" lon="105.313971"><ele>591.9661</ele><time>2025-12-27T22:32:38.000Z</time></trkpt>
        <trkpt lat="28.832692" lon="105.314027"><ele>593.9359</ele><time>2025-12-27T22:32:51.000Z</time></trkpt>
        <trkpt lat="28.832648" lon="105.314059"><ele>595.6672</ele><time>2025-12-27T22:33:06.000Z</time></trkpt>
        <trkpt lat="28.832609" lon="105.314088"><ele>597.66345</ele><time>2025-12-27T22:33:17.000Z</time></trkpt>
        <trkpt lat="28.832599" lon="105.314136"><ele>599.7497</ele><time>2025-12-27T22:33:23.000Z</time></trkpt>
        <trkpt lat="28.832644" lon="105.314139"><ele>598.8628</ele><time>2025-12-27T22:33:45.000Z</time></trkpt>
        <trkpt lat="28.83269" lon="105.314147"><ele>598.86346</ele><time>2025-12-27T22:33:53.000Z</time></trkpt>
        <trkpt lat="28.832648" lon="105.314147"><ele>597.93524</ele><time>2025-12-27T22:34:01.000Z</time></trkpt>
        <trkpt lat="28.832687" lon="105.314149"><ele>598.48315</ele><time>2025-12-27T22:34:21.000Z</time></trkpt>
        <trkpt lat="28.832728" lon="105.314183"><ele>598.4127</ele><time>2025-12-27T22:34:25.000Z</time></trkpt>
        <trkpt lat="28.832767" lon="105.314227"><ele>599.2882</ele><time>2025-12-27T22:34:30.000Z</time></trkpt>
        <trkpt lat="28.832804" lon="105.314266"><ele>601.03265</ele><time>2025-12-27T22:34:34.000Z</time></trkpt>
        <trkpt lat="28.832848" lon="105.31431"><ele>602.2723</ele><time>2025-12-27T22:34:40.000Z</time></trkpt>
        <trkpt lat="28.832884" lon="105.314345"><ele>603.04944</ele><time>2025-12-27T22:34:45.000Z</time></trkpt>
        <trkpt lat="28.83293" lon="105.314386"><ele>603.56415</ele><time>2025-12-27T22:34:51.000Z</time></trkpt>
        <trkpt lat="28.832971" lon="105.314422"><ele>604.9098</ele><time>2025-12-27T22:34:56.000Z</time></trkpt>
        <trkpt lat="28.833021" lon="105.314432"><ele>605.5079</ele><time>2025-12-27T22:35:01.000Z</time></trkpt>
        <trkpt lat="28.833071" lon="105.314411"><ele>605.5489</ele><time>2025-12-27T22:35:07.000Z</time></trkpt>
        <trkpt lat="28.833112" lon="105.31439"><ele>605.32837</ele><time>2025-12-27T22:35:11.000Z</time></trkpt>
        <trkpt lat="28.833167" lon="105.31439"><ele>604.46313</ele><time>2025-12-27T22:35:17.000Z</time></trkpt>
        <trkpt lat="28.833215" lon="105.314405"><ele>603.88934</ele><time>2025-12-27T22:35:22.000Z</time></trkpt>
        <trkpt lat="28.833266" lon="105.314404"><ele>604.186</ele><time>2025-12-27T22:35:27.000Z</time></trkpt>
        <trkpt lat="28.833311" lon="105.31439"><ele>603.9857</ele><time>2025-12-27T22:35:32.000Z</time></trkpt>
        <trkpt lat="28.833348" lon="105.314377"><ele>603.6308</ele><time>2025-12-27T22:35:35.000Z</time></trkpt>
        <trkpt lat="28.833397" lon="105.314373"><ele>602.86334</ele><time>2025-12-27T22:35:38.000Z</time></trkpt>
        <trkpt lat="28.833461" lon="105.314364"><ele>601.1496</ele><time>2025-12-27T22:35:44.000Z</time></trkpt>
        <trkpt lat="28.833506" lon="105.314391"><ele>599.6453</ele><time>2025-12-27T22:35:52.000Z</time></trkpt>
        <trkpt lat="28.833533" lon="105.314401"><ele>599.6405</ele><time>2025-12-27T22:35:54.000Z</time></trkpt>
        <trkpt lat="28.833585" lon="105.314419"><ele>597.91785</ele><time>2025-12-27T22:35:58.000Z</time></trkpt>
        <trkpt lat="28.833648" lon="105.314433"><ele>596.5287</ele><time>2025-12-27T22:36:03.000Z</time></trkpt>
        <trkpt lat="28.833697" lon="105.314431"><ele>595.4169</ele><time>2025-12-27T22:36:07.000Z</time></trkpt>
        <trkpt lat="28.83375" lon="105.314433"><ele>592.9871</ele><time>2025-12-27T22:36:13.000Z</time></trkpt>
        <trkpt lat="28.833794" lon="105.314442"><ele>592.0802</ele><time>2025-12-27T22:36:19.000Z</time></trkpt>
        <trkpt lat="28.833837" lon="105.314457"><ele>591.98505</ele><time>2025-12-27T22:36:23.000Z</time></trkpt>
        <trkpt lat="28.833887" lon="105.314492"><ele>591.50464</ele><time>2025-12-27T22:36:29.000Z</time></trkpt>
        <trkpt lat="28.833925" lon="105.314529"><ele>590.9684</ele><time>2025-12-27T22:36:34.000Z</time></trkpt>
        <trkpt lat="28.83396" lon="105.314568"><ele>593.4549</ele><time>2025-12-27T22:36:39.000Z</time></trkpt>
        <trkpt lat="28.833999" lon="105.3146"><ele>597.24927</ele><time>2025-12-27T22:36:44.000Z</time></trkpt>
        <trkpt lat="28.834038" lon="105.31464"><ele>601.13196</ele><time>2025-12-27T22:36:50.000Z</time></trkpt>
        <trkpt lat="28.834079" lon="105.31469"><ele>604.45654</ele><time>2025-12-27T22:36:57.000Z</time></trkpt>
        <trkpt lat="28.834111" lon="105.314719"><ele>605.9457</ele><time>2025-12-27T22:37:01.000Z</time></trkpt>
        <trkpt lat="28.834167" lon="105.314739"><ele>607.798</ele><time>2025-12-27T22:37:08.000Z</time></trkpt>
        <trkpt lat="28.834222" lon="105.314747"><ele>607.6677</ele><time>2025-12-27T22:37:15.000Z</time></trkpt>
        <trkpt lat="28.834273" lon="105.314761"><ele>608.72076</ele><time>2025-12-27T22:37:22.000Z</time></trkpt>
        <trkpt lat="28.834321" lon="105.314754"><ele>609.11365</ele><time>2025-12-27T22:37:27.000Z</time></trkpt>
        <trkpt lat="28.834376" lon="105.314762"><ele>609.57117</ele><time>2025-12-27T22:37:33.000Z</time></trkpt>
        <trkpt lat="28.834426" lon="105.31477"><ele>607.3425</ele><time>2025-12-27T22:37:38.000Z</time></trkpt>
        <trkpt lat="28.834464" lon="105.314806"><ele>602.08044</ele><time>2025-12-27T22:39:27.000Z</time></trkpt>
        <trkpt lat="28.834493" lon="105.314841"><ele>600.2451</ele><time>2025-12-27T22:39:38.000Z</time></trkpt>
        <trkpt lat="28.834532" lon="105.314887"><ele>598.403</ele><time>2025-12-27T22:39:44.000Z</time></trkpt>
        <trkpt lat="28.834569" lon="105.314935"><ele>599.83905</ele><time>2025-12-27T22:39:51.000Z</time></trkpt>
        <trkpt lat="28.834546" lon="105.314877"><ele>604.0327</ele><time>2025-12-27T22:40:15.000Z</time></trkpt>
        <trkpt lat="28.834532" lon="105.314832"><ele>603.10675</ele><time>2025-12-27T22:40:19.000Z</time></trkpt>
        <trkpt lat="28.834525" lon="105.314864"><ele>601.24255</ele><time>2025-12-27T22:40:26.000Z</time></trkpt>
        <trkpt lat="28.834575" lon="105.314877"><ele>601.6627</ele><time>2025-12-27T22:40:40.000Z</time></trkpt>
        <trkpt lat="28.834532" lon="105.314881"><ele>608.32153</ele><time>2025-12-27T22:42:47.000Z</time></trkpt>
        <trkpt lat="28.834555" lon="105.314837"><ele>612.18304</ele><time>2025-12-27T22:43:34.000Z</time></trkpt>
        <trkpt lat="28.834558" lon="105.314891"><ele>608.84174</ele><time>2025-12-27T22:43:59.000Z</time></trkpt>
        <trkpt lat="28.834533" lon="105.314837"><ele>604.7624</ele><time>2025-12-27T22:44:20.000Z</time></trkpt>
        <trkpt lat="28.834512" lon="105.314887"><ele>598.0758</ele><time>2025-12-27T22:44:46.000Z</time></trkpt>
        <trkpt lat="28.834525" lon="105.314839"><ele>592.23566</ele><time>2025-12-27T22:44:59.000Z</time></trkpt>
        <trkpt lat="28.834498" lon="105.314797"><ele>593.29816</ele><time>2025-12-27T22:45:06.000Z</time></trkpt>
        <trkpt lat="28.834477" lon="105.314836"><ele>597.595</ele><time>2025-12-27T22:45:14.000Z</time></trkpt>
        <trkpt lat="28.834473" lon="105.314888"><ele>599.1432</ele><time>2025-12-27T22:45:18.000Z</time></trkpt>
        <trkpt lat="28.83449" lon="105.314937"><ele>601.6169</ele><time>2025-12-27T22:45:22.000Z</time></trkpt>
        <trkpt lat="28.834541" lon="105.314962"><ele>603.4221</ele><time>2025-12-27T22:45:29.000Z</time></trkpt>
        <trkpt lat="28.834552" lon="105.314909"><ele>602.81995</ele><time>2025-12-27T22:45:35.000Z</time></trkpt>
        <trkpt lat="28.834586" lon="105.31494"><ele>597.52594</ele><time>2025-12-27T22:46:04.000Z</time></trkpt>
        <trkpt lat="28.834604" lon="105.31499"><ele>593.71484</ele><time>2025-12-27T22:46:10.000Z</time></trkpt>
        <trkpt lat="28.834635" lon="105.315038"><ele>594.35913</ele><time>2025-12-27T22:46:17.000Z</time></trkpt>
        <trkpt lat="28.834621" lon="105.314992"><ele>594.0792</ele><time>2025-12-27T22:46:34.000Z</time></trkpt>
        <trkpt lat="28.834586" lon="105.314954"><ele>594.77716</ele><time>2025-12-27T22:46:43.000Z</time></trkpt>
        <trkpt lat="28.834562" lon="105.314914"><ele>595.11505</ele><time>2025-12-27T22:46:51.000Z</time></trkpt>
        <trkpt lat="28.834531" lon="105.314931"><ele>596.51196</ele><time>2025-12-27T22:46:55.000Z</time></trkpt>
        <trkpt lat="28.834496" lon="105.314907"><ele>598.0822</ele><time>2025-12-27T22:47:02.000Z</time></trkpt>
        <trkpt lat="28.834478" lon="105.31486"><ele>595.882</ele><time>2025-12-27T22:47:07.000Z</time></trkpt>
        <trkpt lat="28.834454" lon="105.314813"><ele>595.70306</ele><time>2025-12-27T22:47:12.000Z</time></trkpt>
        <trkpt lat="28.834415" lon="105.314774"><ele>597.89844</ele><time>2025-12-27T22:47:19.000Z</time></trkpt>
        <trkpt lat="28.834367" lon="105.314756"><ele>602.688</ele><time>2025-12-27T22:47:28.000Z</time></trkpt>
        <trkpt lat="28.834321" lon="105.314748"><ele>604.7256</ele><time>2025-12-27T22:47:35.000Z</time></trkpt>
        <trkpt lat="28.834277" lon="105.314761"><ele>606.5698</ele><time>2025-12-27T22:47:42.000Z</time></trkpt>
        <trkpt lat="28.834227" lon="105.314771"><ele>608.8643</ele><time>2025-12-27T22:47:49.000Z</time></trkpt>
        <trkpt lat="28.834176" lon="105.314758"><ele>608.88153</ele><time>2025-12-27T22:47:56.000Z</time></trkpt>
        <trkpt lat="28.834131" lon="105.314752"><ele>609.48193</ele><time>2025-12-27T22:48:01.000Z</time></trkpt>
        <trkpt lat="28.83408" lon="105.314735"><ele>610.4298</ele><time>2025-12-27T22:48:08.000Z</time></trkpt>
        <trkpt lat="28.834046" lon="105.3147"><ele>609.9909</ele><time>2025-12-27T22:48:14.000Z</time></trkpt>
        <trkpt lat="28.834014" lon="105.314651"><ele>609.7211</ele><time>2025-12-27T22:48:20.000Z</time></trkpt>
        <trkpt lat="28.833984" lon="105.314607"><ele>608.9003</ele><time>2025-12-27T22:48:25.000Z</time></trkpt>
        <trkpt lat="28.833948" lon="105.314571"><ele>607.38654</ele><time>2025-12-27T22:48:30.000Z</time></trkpt>
        <trkpt lat="28.833909" lon="105.31453"><ele>607.205</ele><time>2025-12-27T22:48:35.000Z</time></trkpt>
        <trkpt lat="28.833869" lon="105.314498"><ele>603.88306</ele><time>2025-12-27T22:48:40.000Z</time></trkpt>
        <trkpt lat="28.833824" lon="105.31447"><ele>597.4265</ele><time>2025-12-27T22:48:46.000Z</time></trkpt>
        <trkpt lat="28.833775" lon="105.314451"><ele>592.10034</ele><time>2025-12-27T22:48:53.000Z</time></trkpt>
        <trkpt lat="28.833726" lon="105.314447"><ele>591.6658</ele><time>2025-12-27T22:48:59.000Z</time></trkpt>
        <trkpt lat="28.833677" lon="105.314435"><ele>592.3919</ele><time>2025-12-27T22:49:04.000Z</time></trkpt>
        <trkpt lat="28.833631" lon="105.314429"><ele>593.1128</ele><time>2025-12-27T22:49:08.000Z</time></trkpt>
        <trkpt lat="28.833573" lon="105.314411"><ele>594.57825</ele><time>2025-12-27T22:49:13.000Z</time></trkpt>
        <trkpt lat="28.833524" lon="105.314395"><ele>595.94226</ele><time>2025-12-27T22:49:17.000Z</time></trkpt>
        <trkpt lat="28.83347" lon="105.314392"><ele>597.4899</ele><time>2025-12-27T22:49:22.000Z</time></trkpt>
        <trkpt lat="28.833415" lon="105.314411"><ele>599.699</ele><time>2025-12-27T22:49:29.000Z</time></trkpt>
        <trkpt lat="28.833372" lon="105.314397"><ele>602.2291</ele><time>2025-12-27T22:49:35.000Z</time></trkpt>
        <trkpt lat="28.833321" lon="105.314402"><ele>604.32526</ele><time>2025-12-27T22:49:40.000Z</time></trkpt>
        <trkpt lat="28.833268" lon="105.314414"><ele>605.2929</ele><time>2025-12-27T22:49:46.000Z</time></trkpt>
        <trkpt lat="28.833218" lon="105.314411"><ele>605.81323</ele><time>2025-12-27T22:49:53.000Z</time></trkpt>
        <trkpt lat="28.833066" lon="105.314414"><ele>605.48364</ele><time>2025-12-27T22:50:15.000Z</time></trkpt>
        <trkpt lat="28.833015" lon="105.31444"><ele>605.2865</ele><time>2025-12-27T22:50:21.000Z</time></trkpt>
        <trkpt lat="28.832965" lon="105.314428"><ele>606.0636</ele><time>2025-12-27T22:50:26.000Z</time></trkpt>
        <trkpt lat="28.832922" lon="105.314396"><ele>605.6663</ele><time>2025-12-27T22:50:31.000Z</time></trkpt>
        <trkpt lat="28.832881" lon="105.314355"><ele>604.77094</ele><time>2025-12-27T22:50:36.000Z</time></trkpt>
        <trkpt lat="28.832841" lon="105.314315"><ele>603.5097</ele><time>2025-12-27T22:50:41.000Z</time></trkpt>
        <trkpt lat="28.832795" lon="105.314283"><ele>601.93994</ele><time>2025-12-27T22:50:47.000Z</time></trkpt>
        <trkpt lat="28.832755" lon="105.314236"><ele>601.7535</ele><time>2025-12-27T22:50:54.000Z</time></trkpt>
        <trkpt lat="28.832725" lon="105.314192"><ele>601.3828</ele><time>2025-12-27T22:50:59.000Z</time></trkpt>
        <trkpt lat="28.832683" lon="105.314163"><ele>599.0634</ele><time>2025-12-27T22:51:07.000Z</time></trkpt>
        <trkpt lat="28.83264" lon="105.314152"><ele>598.0425</ele><time>2025-12-27T22:51:13.000Z</time></trkpt>
        <trkpt lat="28.832601" lon="105.314132"><ele>597.848</ele><time>2025-12-27T22:51:18.000Z</time></trkpt>
        <trkpt lat="28.832603" lon="105.314091"><ele>597.31665</ele><time>2025-12-27T22:51:22.000Z</time></trkpt>
        <trkpt lat="28.832643" lon="105.314055"><ele>596.4777</ele><time>2025-12-27T22:51:28.000Z</time></trkpt>
        <trkpt lat="28.832714" lon="105.314034"><ele>595.1386</ele><time>2025-12-27T22:51:37.000Z</time></trkpt>
        <trkpt lat="28.832672" lon="105.314013"><ele>594.83466</ele><time>2025-12-27T22:52:06.000Z</time></trkpt>
        <trkpt lat="28.832715" lon="105.314039"><ele>596.83435</ele><time>2025-12-27T22:52:41.000Z</time></trkpt>
        <trkpt lat="28.832686" lon="105.313999"><ele>596.4782</ele><time>2025-12-27T22:54:05.000Z</time></trkpt>
        <trkpt lat="28.832681" lon="105.313938"><ele>592.6855</ele><time>2025-12-27T22:54:25.000Z</time></trkpt>
        <trkpt lat="28.832705" lon="105.313889"><ele>591.5501</ele><time>2025-12-27T22:54:33.000Z</time></trkpt>
        <trkpt lat="28.832771" lon="105.313905"><ele>593.7763</ele><time>2025-12-27T22:55:08.000Z</time></trkpt>
        <trkpt lat="28.832718" lon="105.313911"><ele>592.7881</ele><time>2025-12-27T22:55:19.000Z</time></trkpt>
        <trkpt lat="28.832729" lon="105.313923"><ele>592.67944</ele><time>2025-12-27T22:55:20.000Z</time></trkpt>
        <trkpt lat="28.832759" lon="105.313897"><ele>592.9821</ele><time>2025-12-27T22:55:26.000Z</time></trkpt>
        <trkpt lat="28.83276" lon="105.313838"><ele>591.939</ele><time>2025-12-27T22:55:42.000Z</time></trkpt>
        <trkpt lat="28.832799" lon="105.31385"><ele>589.2995</ele><time>2025-12-27T22:55:53.000Z</time></trkpt>
        <trkpt lat="28.832839" lon="105.313895"><ele>590.18176</ele><time>2025-12-27T22:56:04.000Z</time></trkpt>
        <trkpt lat="28.832868" lon="105.313929"><ele>591.4636</ele><time>2025-12-27T22:56:09.000Z</time></trkpt>
        <trkpt lat="28.83292" lon="105.313946"><ele>591.6468</ele><time>2025-12-27T22:56:26.000Z</time></trkpt>
        <trkpt lat="28.832887" lon="105.313908"><ele>590.6782</ele><time>2025-12-27T22:56:54.000Z</time></trkpt>
        <trkpt lat="28.832867" lon="105.313876"><ele>589.695</ele><time>2025-12-27T22:56:58.000Z</time></trkpt>
        <trkpt lat="28.832877" lon="105.313799"><ele>587.34375</ele><time>2025-12-27T22:57:33.000Z</time></trkpt>
        <trkpt lat="28.832889" lon="105.313857"><ele>588.3386</ele><time>2025-12-27T22:58:08.000Z</time></trkpt>
        <trkpt lat="28.832889" lon="105.313907"><ele>590.3121</ele><time>2025-12-27T22:58:18.000Z</time></trkpt>
        <trkpt lat="28.832844" lon="105.313915"><ele>591.38745</ele><time>2025-12-27T22:58:30.000Z</time></trkpt>
        <trkpt lat="28.832804" lon="105.313907"><ele>591.19684</ele><time>2025-12-27T22:58:33.000Z</time></trkpt>
        <trkpt lat="28.832741" lon="105.313931"><ele>591.6038</ele><time>2025-12-27T22:58:42.000Z</time></trkpt>
        <trkpt lat="28.832689" lon="105.313916"><ele>591.24426</ele><time>2025-12-27T22:58:48.000Z</time></trkpt>
        <trkpt lat="28.832655" lon="105.313874"><ele>590.0263</ele><time>2025-12-27T22:58:52.000Z</time></trkpt>
        <trkpt lat="28.832652" lon="105.313821"><ele>588.8014</ele><time>2025-12-27T22:58:56.000Z</time></trkpt>
        <trkpt lat="28.832659" lon="105.313755"><ele>588.0274</ele><time>2025-12-27T22:59:00.000Z</time></trkpt>
        <trkpt lat="28.832681" lon="105.3137"><ele>587.9413</ele><time>2025-12-27T22:59:04.000Z</time></trkpt>
        <trkpt lat="28.832727" lon="105.313688"><ele>587.361</ele><time>2025-12-27T22:59:09.000Z</time></trkpt>
        <trkpt lat="28.83278" lon="105.313729"><ele>586.3763</ele><time>2025-12-27T22:59:21.000Z</time></trkpt>
        <trkpt lat="28.832816" lon="105.313688"><ele>586.22546</ele><time>2025-12-27T22:59:37.000Z</time></trkpt>
        <trkpt lat="28.83287" lon="105.313656"><ele>586.3741</ele><time>2025-12-27T23:00:13.000Z</time></trkpt>
        <trkpt lat="28.832914" lon="105.313655"><ele>584.66504</ele><time>2025-12-27T23:00:24.000Z</time></trkpt>
        <trkpt lat="28.83297" lon="105.313661"><ele>582.7474</ele><time>2025-12-27T23:00:35.000Z</time></trkpt>
        <trkpt lat="28.833016" lon="105.313655"><ele>581.18994</ele><time>2025-12-27T23:00:43.000Z</time></trkpt>
        <trkpt lat="28.833061" lon="105.313659"><ele>581.63745</ele><time>2025-12-27T23:00:49.000Z</time></trkpt>
        <trkpt lat="28.833103" lon="105.31368"><ele>580.9976</ele><time>2025-12-27T23:00:56.000Z</time></trkpt>
        <trkpt lat="28.833127" lon="105.313639"><ele>580.66223</ele><time>2025-12-27T23:01:11.000Z</time></trkpt>
        <trkpt lat="28.833154" lon="105.313662"><ele>581.36237</ele><time>2025-12-27T23:01:17.000Z</time></trkpt>
        <trkpt lat="28.833204" lon="105.313669"><ele>581.8439</ele><time>2025-12-27T23:01:26.000Z</time></trkpt>
        <trkpt lat="28.833254" lon="105.313701"><ele>581.8105</ele><time>2025-12-27T23:01:46.000Z</time></trkpt>
        <trkpt lat="28.833299" lon="105.313743"><ele>582.8077</ele><time>2025-12-27T23:02:07.000Z</time></trkpt>
        <trkpt lat="28.833285" lon="105.313709"><ele>582.9792</ele><time>2025-12-27T23:02:12.000Z</time></trkpt>
        <trkpt lat="28.833308" lon="105.313679"><ele>582.6898</ele><time>2025-12-27T23:02:16.000Z</time></trkpt>
        <trkpt lat="28.83331" lon="105.31362"><ele>581.8177</ele><time>2025-12-27T23:02:25.000Z</time></trkpt>
        <trkpt lat="28.833345" lon="105.313593"><ele>580.6774</ele><time>2025-12-27T23:02:34.000Z</time></trkpt>
        <trkpt lat="28.833398" lon="105.313567"><ele>579.54016</ele><time>2025-12-27T23:02:43.000Z</time></trkpt>
        <trkpt lat="28.833374" lon="105.313521"><ele>580.43884</ele><time>2025-12-27T23:03:00.000Z</time></trkpt>
        <trkpt lat="28.833416" lon="105.313512"><ele>578.5268</ele><time>2025-12-27T23:03:14.000Z</time></trkpt>
        <trkpt lat="28.833466" lon="105.313491"><ele>577.75183</ele><time>2025-12-27T23:03:22.000Z</time></trkpt>
        <trkpt lat="28.833517" lon="105.313496"><ele>574.16125</ele><time>2025-12-27T23:03:40.000Z</time></trkpt>
        <trkpt lat="28.833561" lon="105.313509"><ele>573.8434</ele><time>2025-12-27T23:03:47.000Z</time></trkpt>
        <trkpt lat="28.833571" lon="105.313457"><ele>571.875</ele><time>2025-12-27T23:04:18.000Z</time></trkpt>
        <trkpt lat="28.833526" lon="105.3134"><ele>570.6111</ele><time>2025-12-27T23:05:26.000Z</time></trkpt>
        <trkpt lat="28.833506" lon="105.313456"><ele>571.5368</ele><time>2025-12-27T23:05:38.000Z</time></trkpt>
        <trkpt lat="28.833467" lon="105.313428"><ele>574.70624</ele><time>2025-12-27T23:05:53.000Z</time></trkpt>
        <trkpt lat="28.833503" lon="105.313443"><ele>576.5942</ele><time>2025-12-27T23:06:04.000Z</time></trkpt>
        <trkpt lat="28.833564" lon="105.313471"><ele>574.1691</ele><time>2025-12-27T23:07:00.000Z</time></trkpt>
        <trkpt lat="28.833562" lon="105.313524"><ele>571.2434</ele><time>2025-12-27T23:07:14.000Z</time></trkpt>
        <trkpt lat="28.83358" lon="105.313584"><ele>572.421</ele><time>2025-12-27T23:07:20.000Z</time></trkpt>
        <trkpt lat="28.833618" lon="105.313559"><ele>571.5587</ele><time>2025-12-27T23:07:47.000Z</time></trkpt>
        <trkpt lat="28.833653" lon="105.313577"><ele>569.65936</ele><time>2025-12-27T23:07:57.000Z</time></trkpt>
        <trkpt lat="28.833593" lon="105.313553"><ele>568.8168</ele><time>2025-12-27T23:08:12.000Z</time></trkpt>
        <trkpt lat="28.833607" lon="105.313525"><ele>569.9962</ele><time>2025-12-27T23:08:15.000Z</time></trkpt>
        <trkpt lat="28.833605" lon="105.313466"><ele>568.3869</ele><time>2025-12-27T23:08:27.000Z</time></trkpt>
        <trkpt lat="28.83364" lon="105.313428"><ele>560.22076</ele><time>2025-12-27T23:08:55.000Z</time></trkpt>
        <trkpt lat="28.83364" lon="105.313479"><ele>564.54395</ele><time>2025-12-27T23:09:19.000Z</time></trkpt>
        <trkpt lat="28.833605" lon="105.313468"><ele>564.41754</ele><time>2025-12-27T23:09:22.000Z</time></trkpt>
        <trkpt lat="28.83358" lon="105.313445"><ele>563.91486</ele><time>2025-12-27T23:09:23.000Z</time></trkpt>
        <trkpt lat="28.833576" lon="105.313444"><ele>563.53314</ele><time>2025-12-27T23:09:24.000Z</time></trkpt>
        <trkpt lat="28.833578" lon="105.313479"><ele>563.01965</ele><time>2025-12-27T23:09:29.000Z</time></trkpt>
        <trkpt lat="28.833627" lon="105.313506"><ele>558.5425</ele><time>2025-12-27T23:09:43.000Z</time></trkpt>
        <trkpt lat="28.833619" lon="105.313475"><ele>558.9531</ele><time>2025-12-27T23:10:00.000Z</time></trkpt>
        <trkpt lat="28.833583" lon="105.313507"><ele>565.64026</ele><time>2025-12-27T23:10:09.000Z</time></trkpt>
        <trkpt lat="28.833636" lon="105.313495"><ele>569.4254</ele><time>2025-12-27T23:10:24.000Z</time></trkpt>
        <trkpt lat="28.833594" lon="105.313496"><ele>565.99866</ele><time>2025-12-27T23:10:49.000Z</time></trkpt>
        <trkpt lat="28.833599" lon="105.31355"><ele>562.4206</ele><time>2025-12-27T23:12:43.000Z</time></trkpt>
        <trkpt lat="28.833636" lon="105.313512"><ele>562.1019</ele><time>2025-12-27T23:12:53.000Z</time></trkpt>
        <trkpt lat="28.833671" lon="105.31348"><ele>560.8967</ele><time>2025-12-27T23:13:04.000Z</time></trkpt>
        <trkpt lat="28.833675" lon="105.313533"><ele>558.505</ele><time>2025-12-27T23:14:00.000Z</time></trkpt>
        <trkpt lat="28.833678" lon="105.313482"><ele>560.13654</ele><time>2025-12-27T23:14:14.000Z</time></trkpt>
        <trkpt lat="28.833703" lon="105.313431"><ele>560.5136</ele><time>2025-12-27T23:14:18.000Z</time></trkpt>
        <trkpt lat="28.833745" lon="105.313383"><ele>559.99493</ele><time>2025-12-27T23:14:26.000Z</time></trkpt>
        <trkpt lat="28.833787" lon="105.313417"><ele>557.64246</ele><time>2025-12-27T23:14:38.000Z</time></trkpt>
        <trkpt lat="28.833792" lon="105.313382"><ele>557.25323</ele><time>2025-12-27T23:14:43.000Z</time></trkpt>
        <trkpt lat="28.833752" lon="105.313384"><ele>556.50604</ele><time>2025-12-27T23:14:48.000Z</time></trkpt>
        <trkpt lat="28.833703" lon="105.31345"><ele>555.5033</ele><time>2025-12-27T23:14:52.000Z</time></trkpt>
        <trkpt lat="28.833704" lon="105.313474"><ele>555.4367</ele><time>2025-12-27T23:14:57.000Z</time></trkpt>
        <trkpt lat="28.833655" lon="105.313496"><ele>557.3733</ele><time>2025-12-27T23:15:08.000Z</time></trkpt>
        <trkpt lat="28.833644" lon="105.313426"><ele>560.1421</ele><time>2025-12-27T23:15:13.000Z</time></trkpt>
        <trkpt lat="28.83369" lon="105.313383"><ele>560.8104</ele><time>2025-12-27T23:15:18.000Z</time></trkpt>
        <trkpt lat="28.833758" lon="105.313359"><ele>559.8323</ele><time>2025-12-27T23:15:27.000Z</time></trkpt>
        <trkpt lat="28.833809" lon="105.313367"><ele>558.1989</ele><time>2025-12-27T23:15:39.000Z</time></trkpt>
        <trkpt lat="28.833758" lon="105.313438"><ele>554.4141</ele><time>2025-12-27T23:16:20.000Z</time></trkpt>
        <trkpt lat="28.83378" lon="105.313381"><ele>555.36774</ele><time>2025-12-27T23:16:50.000Z</time></trkpt>
        <trkpt lat="28.833733" lon="105.313415"><ele>552.7319</ele><time>2025-12-27T23:17:00.000Z</time></trkpt>
        <trkpt lat="28.833686" lon="105.313449"><ele>550.8616</ele><time>2025-12-27T23:17:08.000Z</time></trkpt>
        <trkpt lat="28.833748" lon="105.31352"><ele>547.03125</ele><time>2025-12-27T23:17:29.000Z</time></trkpt>
        <trkpt lat="28.833706" lon="105.31351"><ele>546.7573</ele><time>2025-12-27T23:17:45.000Z</time></trkpt>
        <trkpt lat="28.833666" lon="105.313547"><ele>547.3798</ele><time>2025-12-27T23:17:51.000Z</time></trkpt>
        <trkpt lat="28.833629" lon="105.313578"><ele>545.8704</ele><time>2025-12-27T23:17:56.000Z</time></trkpt>
        <trkpt lat="28.833636" lon="105.313541"><ele>548.9853</ele><time>2025-12-27T23:17:59.000Z</time></trkpt>
        <trkpt lat="28.833659" lon="105.3135"><ele>553.7682</ele><time>2025-12-27T23:18:01.000Z</time></trkpt>
        <trkpt lat="28.833754" lon="105.313447"><ele>558.5517</ele><time>2025-12-27T23:18:29.000Z</time></trkpt>
        <trkpt lat="28.833738" lon="105.313408"><ele>560.0689</ele><time>2025-12-27T23:18:40.000Z</time></trkpt>
        <trkpt lat="28.833769" lon="105.313373"><ele>560.9898</ele><time>2025-12-27T23:19:03.000Z</time></trkpt>
        <trkpt lat="28.833802" lon="105.313427"><ele>560.43506</ele><time>2025-12-27T23:19:07.000Z</time></trkpt>
        <trkpt lat="28.833805" lon="105.313416"><ele>560.8091</ele><time>2025-12-27T23:19:07.000Z</time></trkpt>
        <trkpt lat="28.833789" lon="105.313421"><ele>560.4726</ele><time>2025-12-27T23:19:08.000Z</time></trkpt>
        <trkpt lat="28.833791" lon="105.313392"><ele>559.4101</ele><time>2025-12-27T23:19:21.000Z</time></trkpt>
        <trkpt lat="28.833768" lon="105.313408"><ele>558.8572</ele><time>2025-12-27T23:19:24.000Z</time></trkpt>
        <trkpt lat="28.833752" lon="105.313331"><ele>556.3927</ele><time>2025-12-27T23:19:54.000Z</time></trkpt>
        <trkpt lat="28.833732" lon="105.31339"><ele>555.86584</ele><time>2025-12-27T23:20:04.000Z</time></trkpt>
        <trkpt lat="28.833671" lon="105.313403"><ele>558.3039</ele><time>2025-12-27T23:20:32.000Z</time></trkpt>
        <trkpt lat="28.833708" lon="105.313388"><ele>556.7539</ele><time>2025-12-27T23:20:40.000Z</time></trkpt>
        <trkpt lat="28.833761" lon="105.313368"><ele>552.9623</ele><time>2025-12-27T23:20:59.000Z</time></trkpt>
        <trkpt lat="28.83374" lon="105.313403"><ele>551.43274</ele><time>2025-12-27T23:21:05.000Z</time></trkpt>
        <trkpt lat="28.83366" lon="105.313409"><ele>553.43207</ele><time>2025-12-27T23:21:53.000Z</time></trkpt>
        <trkpt lat="28.83371" lon="105.313418"><ele>555.1974</ele><time>2025-12-27T23:22:14.000Z</time></trkpt>
        <trkpt lat="28.833756" lon="105.31335"><ele>556.41266</ele><time>2025-12-27T23:22:31.000Z</time></trkpt>
        <trkpt lat="28.833713" lon="105.313386"><ele>555.72797</ele><time>2025-12-27T23:22:43.000Z</time></trkpt>
        <trkpt lat="28.833721" lon="105.313342"><ele>553.83606</ele><time>2025-12-27T23:23:10.000Z</time></trkpt>
        <trkpt lat="28.833703" lon="105.313389"><ele>553.3364</ele><time>2025-12-27T23:23:51.000Z</time></trkpt>
        <trkpt lat="28.833707" lon="105.313335"><ele>551.8193</ele><time>2025-12-27T23:24:17.000Z</time></trkpt>
        <trkpt lat="28.833721" lon="105.313395"><ele>549.5661</ele><time>2025-12-27T23:24:32.000Z</time></trkpt>
        <trkpt lat="28.83375" lon="105.313368"><ele>554.88855</ele><time>2025-12-27T23:24:44.000Z</time></trkpt>
        <trkpt lat="28.833703" lon="105.313345"><ele>553.30255</ele><time>2025-12-27T23:25:41.000Z</time></trkpt>
        <trkpt lat="28.833737" lon="105.313378"><ele>554.1696</ele><time>2025-12-27T23:26:15.000Z</time></trkpt>
        <trkpt lat="28.833762" lon="105.313323"><ele>556.8058</ele><time>2025-12-27T23:26:47.000Z</time></trkpt>
        <trkpt lat="28.833737" lon="105.313372"><ele>551.6563</ele><time>2025-12-27T23:27:08.000Z</time></trkpt>
        <trkpt lat="28.833706" lon="105.31341"><ele>550.00256</ele><time>2025-12-27T23:27:25.000Z</time></trkpt>
        <trkpt lat="28.833695" lon="105.313368"><ele>552.9455</ele><time>2025-12-27T23:27:30.000Z</time></trkpt>
        <trkpt lat="28.833714" lon="105.313306"><ele>554.4888</ele><time>2025-12-27T23:27:57.000Z</time></trkpt>
        <trkpt lat="28.833713" lon="105.313357"><ele>554.0363</ele><time>2025-12-27T23:28:12.000Z</time></trkpt>
        <trkpt lat="28.833742" lon="105.313398"><ele>551.4095</ele><time>2025-12-27T23:28:30.000Z</time></trkpt>
        <trkpt lat="28.833764" lon="105.313445"><ele>546.967</ele><time>2025-12-27T23:28:50.000Z</time></trkpt>
        <trkpt lat="28.833719" lon="105.313456"><ele>542.9011</ele><time>2025-12-27T23:29:22.000Z</time></trkpt>
        <trkpt lat="28.833756" lon="105.313485"><ele>540.3074</ele><time>2025-12-27T23:30:15.000Z</time></trkpt>
        <trkpt lat="28.833705" lon="105.313496"><ele>539.7589</ele><time>2025-12-27T23:30:52.000Z</time></trkpt>
        <trkpt lat="28.833714" lon="105.313447"><ele>547.9623</ele><time>2025-12-27T23:31:05.000Z</time></trkpt>
        <trkpt lat="28.833727" lon="105.313391"><ele>551.9131</ele><time>2025-12-27T23:31:11.000Z</time></trkpt>
        <trkpt lat="28.833746" lon="105.313334"><ele>556.2523</ele><time>2025-12-27T23:31:19.000Z</time></trkpt>
        <trkpt lat="28.83376" lon="105.313383"><ele>553.35443</ele><time>2025-12-27T23:31:38.000Z</time></trkpt>
        <trkpt lat="28.833802" lon="105.313421"><ele>550.14386</ele><time>2025-12-27T23:31:51.000Z</time></trkpt>
        <trkpt lat="28.833834" lon="105.313459"><ele>545.64087</ele><time>2025-12-27T23:32:07.000Z</time></trkpt>
        <trkpt lat="28.833859" lon="105.313399"><ele>546.5555</ele><time>2025-12-27T23:32:13.000Z</time></trkpt>
        <trkpt lat="28.83386" lon="105.313356"><ele>547.07965</ele><time>2025-12-27T23:32:14.000Z</time></trkpt>
        <trkpt lat="28.833864" lon="105.31336"><ele>547.1941</ele><time>2025-12-27T23:32:15.000Z</time></trkpt>
        <trkpt lat="28.833849" lon="105.313371"><ele>547.5552</ele><time>2025-12-27T23:32:17.000Z</time></trkpt>
        <trkpt lat="28.833848" lon="105.313364"><ele>547.34174</ele><time>2025-12-27T23:32:18.000Z</time></trkpt>
        <trkpt lat="28.833837" lon="105.313294"><ele>557.4914</ele><time>2025-12-27T23:32:41.000Z</time></trkpt>
        <trkpt lat="28.833844" lon="105.313328"><ele>555.5846</ele><time>2025-12-27T23:33:19.000Z</time></trkpt>
        <trkpt lat="28.83386" lon="105.313378"><ele>552.9852</ele><time>2025-12-27T23:33:27.000Z</time></trkpt>
        <trkpt lat="28.833861" lon="105.313428"><ele>550.81964</ele><time>2025-12-27T23:33:35.000Z</time></trkpt>
        <trkpt lat="28.833839" lon="105.313495"><ele>542.8627</ele><time>2025-12-27T23:34:15.000Z</time></trkpt>
        <trkpt lat="28.833867" lon="105.313445"><ele>549.8366</ele><time>2025-12-27T23:34:36.000Z</time></trkpt>
        <trkpt lat="28.833822" lon="105.313434"><ele>542.6704</ele><time>2025-12-27T23:35:14.000Z</time></trkpt>
        <trkpt lat="28.833812" lon="105.313495"><ele>538.6519</ele><time>2025-12-27T23:35:51.000Z</time></trkpt>
        <trkpt lat="28.833792" lon="105.313539"><ele>538.59863</ele><time>2025-12-27T23:36:00.000Z</time></trkpt>
        <trkpt lat="28.833822" lon="105.313495"><ele>541.7812</ele><time>2025-12-27T23:36:12.000Z</time></trkpt>
        <trkpt lat="28.833843" lon="105.313442"><ele>548.71765</ele><time>2025-12-27T23:36:45.000Z</time></trkpt>
        <trkpt lat="28.833826" lon="105.313389"><ele>551.7451</ele><time>2025-12-27T23:39:04.000Z</time></trkpt>
        <trkpt lat="28.833863" lon="105.313343"><ele>553.65283</ele><time>2025-12-27T23:39:31.000Z</time></trkpt>
        <trkpt lat="28.83387" lon="105.313395"><ele>547.9745</ele><time>2025-12-27T23:39:49.000Z</time></trkpt>
        <trkpt lat="28.833837" lon="105.313437"><ele>541.9157</ele><time>2025-12-27T23:40:03.000Z</time></trkpt>
        <trkpt lat="28.833819" lon="105.313495"><ele>535.5807</ele><time>2025-12-27T23:41:18.000Z</time></trkpt>
        <trkpt lat="28.833847" lon="105.313522"><ele>537.44147</ele><time>2025-12-27T23:41:46.000Z</time></trkpt>
        <trkpt lat="28.833855" lon="105.313456"><ele>538.9998</ele><time>2025-12-27T23:42:40.000Z</time></trkpt>
        <trkpt lat="28.833867" lon="105.313403"><ele>545.45917</ele><time>2025-12-27T23:43:03.000Z</time></trkpt>
        <trkpt lat="28.833867" lon="105.313403"><ele>545.5935</ele><time>2025-12-27T23:43:32.000Z</time></trkpt>
        <trkpt lat="28.833901" lon="105.313446"><ele>546.4466</ele><time>2025-12-27T23:44:46.000Z</time></trkpt>
        <trkpt lat="28.833878" lon="105.31352"><ele>543.82526</ele><time>2025-12-27T23:45:56.000Z</time></trkpt>
        <trkpt lat="28.833894" lon="105.313482"><ele>544.42084</ele><time>2025-12-27T23:46:03.000Z</time></trkpt>
        <trkpt lat="28.833908" lon="105.313414"><ele>544.99384</ele><time>2025-12-27T23:46:21.000Z</time></trkpt>
        <trkpt lat="28.833883" lon="105.313458"><ele>544.5129</ele><time>2025-12-27T23:46:38.000Z</time></trkpt>
        <trkpt lat="28.833835" lon="105.313464"><ele>540.7039</ele><time>2025-12-27T23:46:54.000Z</time></trkpt>
        <trkpt lat="28.833812" lon="105.313529"><ele>537.4291</ele><time>2025-12-27T23:47:15.000Z</time></trkpt>
        <trkpt lat="28.833828" lon="105.3135"><ele>540.22687</ele><time>2025-12-27T23:47:18.000Z</time></trkpt>
        <trkpt lat="28.833846" lon="105.313379"><ele>546.96906</ele><time>2025-12-27T23:47:32.000Z</time></trkpt>
        <trkpt lat="28.833863" lon="105.31343"><ele>547.99146</ele><time>2025-12-27T23:48:30.000Z</time></trkpt>
        <trkpt lat="28.833882" lon="105.313379"><ele>545.8321</ele><time>2025-12-27T23:49:12.000Z</time></trkpt>
        <trkpt lat="28.833837" lon="105.313387"><ele>546.8186</ele><time>2025-12-27T23:49:49.000Z</time></trkpt>
        <trkpt lat="28.833884" lon="105.313411"><ele>548.139</ele><time>2025-12-27T23:50:31.000Z</time></trkpt>
        <trkpt lat="28.833916" lon="105.31345"><ele>546.0401</ele><time>2025-12-27T23:50:45.000Z</time></trkpt>
        <trkpt lat="28.833909" lon="105.313404"><ele>547.66595</ele><time>2025-12-27T23:51:07.000Z</time></trkpt>
        <trkpt lat="28.833921" lon="105.313451"><ele>547.77264</ele><time>2025-12-27T23:51:34.000Z</time></trkpt>
        <trkpt lat="28.833903" lon="105.3135"><ele>539.40656</ele><time>2025-12-27T23:52:22.000Z</time></trkpt>
        <trkpt lat="28.833945" lon="105.313523"><ele>528.2116</ele><time>2025-12-27T23:52:59.000Z</time></trkpt>
        <trkpt lat="28.833975" lon="105.313548"><ele>527.4821</ele><time>2025-12-27T23:53:17.000Z</time></trkpt>
        <trkpt lat="28.833932" lon="105.313573"><ele>531.6848</ele><time>2025-12-27T23:53:32.000Z</time></trkpt>
        <trkpt lat="28.833958" lon="105.313578"><ele>532.6437</ele><time>2025-12-27T23:53:34.000Z</time></trkpt>
        <trkpt lat="28.834002" lon="105.313525"><ele>533.4784</ele><time>2025-12-27T23:54:03.000Z</time></trkpt>
        <trkpt lat="28.834006" lon="105.313473"><ele>533.40356</ele><time>2025-12-27T23:54:14.000Z</time></trkpt>
        <trkpt lat="28.833966" lon="105.313494"><ele>535.09424</ele><time>2025-12-27T23:54:23.000Z</time></trkpt>
        <trkpt lat="28.834005" lon="105.313503"><ele>530.85236</ele><time>2025-12-27T23:54:38.000Z</time></trkpt>
        <trkpt lat="28.833975" lon="105.31344"><ele>528.396</ele><time>2025-12-27T23:58:00.000Z</time></trkpt>
        <trkpt lat="28.834014" lon="105.313433"><ele>529.2647</ele><time>2025-12-27T23:58:08.000Z</time></trkpt>
        <trkpt lat="28.834061" lon="105.313465"><ele>529.68365</ele><time>2025-12-27T23:58:15.000Z</time></trkpt>
        <trkpt lat="28.83402" lon="105.313473"><ele>529.08234</ele><time>2025-12-27T23:58:29.000Z</time></trkpt>
        <trkpt lat="28.833977" lon="105.313432"><ele>530.5325</ele><time>2025-12-27T23:58:36.000Z</time></trkpt>
        <trkpt lat="28.83399" lon="105.313475"><ele>531.37616</ele><time>2025-12-27T23:59:29.000Z</time></trkpt>
        <trkpt lat="28.833958" lon="105.313477"><ele>530.76855</ele><time>2025-12-27T23:59:36.000Z</time></trkpt>
        <trkpt lat="28.834003" lon="105.313444"><ele>529.95233</ele><time>2025-12-27T23:59:41.000Z</time></trkpt>
        <trkpt lat="28.833989" lon="105.313451"><ele>531.6624</ele><time>2025-12-27T23:59:47.000Z</time></trkpt>
        <trkpt lat="28.834019" lon="105.313489"><ele>531.2733</ele><time>2025-12-27T23:59:55.000Z</time></trkpt>
        <trkpt lat="28.833955" lon="105.313494"><ele>534.18933</ele><time>2025-12-28T00:00:09.000Z</time></trkpt>
        <trkpt lat="28.83398" lon="105.313497"><ele>533.80096</ele><time>2025-12-28T00:00:11.000Z</time></trkpt>
        <trkpt lat="28.83399" lon="105.313448"><ele>529.4948</ele><time>2025-12-28T00:00:38.000Z</time></trkpt>
        <trkpt lat="28.833963" lon="105.313494"><ele>528.3538</ele><time>2025-12-28T00:00:54.000Z</time></trkpt>
        <trkpt lat="28.83399" lon="105.313558"><ele>521.4966</ele><time>2025-12-28T00:01:08.000Z</time></trkpt>
        <trkpt lat="28.833952" lon="105.313524"><ele>526.50244</ele><time>2025-12-28T00:01:53.000Z</time></trkpt>
        <trkpt lat="28.83398" lon="105.313562"><ele>528.79755</ele><time>2025-12-28T00:02:07.000Z</time></trkpt>
        <trkpt lat="28.833994" lon="105.313518"><ele>532.6126</ele><time>2025-12-28T00:02:28.000Z</time></trkpt>
        <trkpt lat="28.833997" lon="105.313571"><ele>523.3259</ele><time>2025-12-28T00:03:15.000Z</time></trkpt>
        <trkpt lat="28.834048" lon="105.313541"><ele>523.014</ele><time>2025-12-28T00:03:27.000Z</time></trkpt>
        <trkpt lat="28.833968" lon="105.313544"><ele>523.17926</ele><time>2025-12-28T00:03:44.000Z</time></trkpt>
        <trkpt lat="28.834004" lon="105.313567"><ele>529.3426</ele><time>2025-12-28T00:03:55.000Z</time></trkpt>
        <trkpt lat="28.834051" lon="105.313602"><ele>532.5644</ele><time>2025-12-28T00:04:26.000Z</time></trkpt>
        <trkpt lat="28.834041" lon="105.313656"><ele>531.89355</ele><time>2025-12-28T00:05:04.000Z</time></trkpt>
        <trkpt lat="28.834069" lon="105.313625"><ele>530.8456</ele><time>2025-12-28T00:05:09.000Z</time></trkpt>
        <trkpt lat="28.834051" lon="105.313655"><ele>529.20123</ele><time>2025-12-28T00:05:17.000Z</time></trkpt>
        <trkpt lat="28.834082" lon="105.313655"><ele>533.79034</ele><time>2025-12-28T00:05:24.000Z</time></trkpt>
        <trkpt lat="28.83413" lon="105.313656"><ele>534.6711</ele><time>2025-12-28T00:05:29.000Z</time></trkpt>
        <trkpt lat="28.834092" lon="105.313655"><ele>528.8386</ele><time>2025-12-28T00:05:42.000Z</time></trkpt>
        <trkpt lat="28.834043" lon="105.313678"><ele>526.61206</ele><time>2025-12-28T00:05:51.000Z</time></trkpt>
        <trkpt lat="28.834068" lon="105.313645"><ele>526.85016</ele><time>2025-12-28T00:06:00.000Z</time></trkpt>
        <trkpt lat="28.834026" lon="105.313661"><ele>523.1254</ele><time>2025-12-28T00:06:42.000Z</time></trkpt>
        <trkpt lat="28.833977" lon="105.313654"><ele>521.81055</ele><time>2025-12-28T00:06:52.000Z</time></trkpt>
        <trkpt lat="28.83401" lon="105.313615"><ele>536.5497</ele><time>2025-12-28T00:07:17.000Z</time></trkpt>
        <trkpt lat="28.834051" lon="105.313591"><ele>538.0418</ele><time>2025-12-28T00:07:24.000Z</time></trkpt>
        <trkpt lat="28.834112" lon="105.313576"><ele>533.806</ele><time>2025-12-28T00:07:37.000Z</time></trkpt>
        <trkpt lat="28.834157" lon="105.313576"><ele>529.53937</ele><time>2025-12-28T00:07:58.000Z</time></trkpt>
        <trkpt lat="28.834132" lon="105.313602"><ele>528.0295</ele><time>2025-12-28T00:08:03.000Z</time></trkpt>
        <trkpt lat="28.834164" lon="105.313568"><ele>530.588</ele><time>2025-12-28T00:08:55.000Z</time></trkpt>
        <trkpt lat="28.834228" lon="105.313585"><ele>535.8375</ele><time>2025-12-28T00:11:00.000Z</time></trkpt>
        <trkpt lat="28.834184" lon="105.313611"><ele>536.80396</ele><time>2025-12-28T00:11:27.000Z</time></trkpt>
        <trkpt lat="28.834175" lon="105.313561"><ele>536.09033</ele><time>2025-12-28T00:11:43.000Z</time></trkpt>
        <trkpt lat="28.834238" lon="105.313557"><ele>535.0283</ele><time>2025-12-28T00:11:59.000Z</time></trkpt>
        <trkpt lat="28.834159" lon="105.313597"><ele>531.657</ele><time>2025-12-28T00:12:14.000Z</time></trkpt>
        <trkpt lat="28.834105" lon="105.313611"><ele>530.90625</ele><time>2025-12-28T00:12:27.000Z</time></trkpt>
        <trkpt lat="28.834141" lon="105.313568"><ele>537.6789</ele><time>2025-12-28T00:13:28.000Z</time></trkpt>
        <trkpt lat="28.834107" lon="105.313601"><ele>526.0585</ele><time>2025-12-28T00:13:46.000Z</time></trkpt>
        <trkpt lat="28.834066" lon="105.313627"><ele>522.3989</ele><time>2025-12-28T00:13:54.000Z</time></trkpt>
        <trkpt lat="28.834024" lon="105.313649"><ele>521.21185</ele><time>2025-12-28T00:14:05.000Z</time></trkpt>
        <trkpt lat="28.834065" lon="105.313622"><ele>530.73535</ele><time>2025-12-28T00:14:23.000Z</time></trkpt>
        <trkpt lat="28.834114" lon="105.313616"><ele>535.47614</ele><time>2025-12-28T00:14:37.000Z</time></trkpt>
        <trkpt lat="28.83417" lon="105.313619"><ele>531.8246</ele><time>2025-12-28T00:15:24.000Z</time></trkpt>
        <trkpt lat="28.834126" lon="105.313606"><ele>526.8855</ele><time>2025-12-28T00:15:33.000Z</time></trkpt>
        <trkpt lat="28.834076" lon="105.31359"><ele>524.036</ele><time>2025-12-28T00:15:56.000Z</time></trkpt>
        <trkpt lat="28.834073" lon="105.31364"><ele>520.3417</ele><time>2025-12-28T00:16:05.000Z</time></trkpt>
        <trkpt lat="28.834107" lon="105.313659"><ele>523.50214</ele><time>2025-12-28T00:16:10.000Z</time></trkpt>
        <trkpt lat="28.834113" lon="105.313709"><ele>523.4671</ele><time>2025-12-28T00:16:20.000Z</time></trkpt>
        <trkpt lat="28.834066" lon="105.31372"><ele>517.09863</ele><time>2025-12-28T00:17:20.000Z</time></trkpt>
        <trkpt lat="28.834077" lon="105.313668"><ele>513.3187</ele><time>2025-12-28T00:18:12.000Z</time></trkpt>
        <trkpt lat="28.834118" lon="105.313677"><ele>516.39154</ele><time>2025-12-28T00:18:15.000Z</time></trkpt>
        <trkpt lat="28.834178" lon="105.313652"><ele>516.9682</ele><time>2025-12-28T00:18:24.000Z</time></trkpt>
        <trkpt lat="28.834226" lon="105.313633"><ele>514.95074</ele><time>2025-12-28T00:18:35.000Z</time></trkpt>
        <trkpt lat="28.834273" lon="105.313628"><ele>522.3032</ele><time>2025-12-28T00:19:06.000Z</time></trkpt>
        <trkpt lat="28.834206" lon="105.313659"><ele>524.8569</ele><time>2025-12-28T00:19:38.000Z</time></trkpt>
        <trkpt lat="28.834253" lon="105.313637"><ele>528.13354</ele><time>2025-12-28T00:20:06.000Z</time></trkpt>
        <trkpt lat="28.834294" lon="105.313623"><ele>524.0636</ele><time>2025-12-28T00:20:10.000Z</time></trkpt>
        <trkpt lat="28.834345" lon="105.313612"><ele>519.0814</ele><time>2025-12-28T00:20:17.000Z</time></trkpt>
        <trkpt lat="28.834391" lon="105.313645"><ele>522.2428</ele><time>2025-12-28T00:20:54.000Z</time></trkpt>
        <trkpt lat="28.83434" lon="105.313657"><ele>524.9173</ele><time>2025-12-28T00:21:24.000Z</time></trkpt>
        <trkpt lat="28.834372" lon="105.313619"><ele>525.23425</ele><time>2025-12-28T00:21:46.000Z</time></trkpt>
        <trkpt lat="28.834418" lon="105.313629"><ele>519.5056</ele><time>2025-12-28T00:21:59.000Z</time></trkpt>
        <trkpt lat="28.834386" lon="105.313593"><ele>516.71313</ele><time>2025-12-28T00:22:42.000Z</time></trkpt>
        <trkpt lat="28.834414" lon="105.31356"><ele>517.9595</ele><time>2025-12-28T00:22:50.000Z</time></trkpt>
        <trkpt lat="28.834396" lon="105.313511"><ele>515.55945</ele><time>2025-12-28T00:23:12.000Z</time></trkpt>
        <trkpt lat="28.834358" lon="105.313521"><ele>515.89874</ele><time>2025-12-28T00:23:16.000Z</time></trkpt>
        <trkpt lat="28.834307" lon="105.313518"><ele>517.222</ele><time>2025-12-28T00:23:19.000Z</time></trkpt>
        <trkpt lat="28.834296" lon="105.313484"><ele>517.9899</ele><time>2025-12-28T00:23:22.000Z</time></trkpt>
        <trkpt lat="28.834346" lon="105.313457"><ele>515.58936</ele><time>2025-12-28T00:23:33.000Z</time></trkpt>
        <trkpt lat="28.834381" lon="105.31341"><ele>508.69247</ele><time>2025-12-28T00:24:05.000Z</time></trkpt>
        <trkpt lat="28.834423" lon="105.313396"><ele>507.51556</ele><time>2025-12-28T00:24:21.000Z</time></trkpt>
        <trkpt lat="28.834428" lon="105.313344"><ele>507.7676</ele><time>2025-12-28T00:24:44.000Z</time></trkpt>
        <trkpt lat="28.834391" lon="105.313305"><ele>506.61795</ele><time>2025-12-28T00:25:53.000Z</time></trkpt>
        <trkpt lat="28.834348" lon="105.313298"><ele>508.13873</ele><time>2025-12-28T00:26:11.000Z</time></trkpt>
        <trkpt lat="28.834361" lon="105.313244"><ele>504.73584</ele><time>2025-12-28T00:26:51.000Z</time></trkpt>
        <trkpt lat="28.834397" lon="105.313211"><ele>507.48965</ele><time>2025-12-28T00:28:00.000Z</time></trkpt>
        <trkpt lat="28.834441" lon="105.313184"><ele>504.64987</ele><time>2025-12-28T00:29:02.000Z</time></trkpt>
        <trkpt lat="28.834437" lon="105.31313"><ele>509.24762</ele><time>2025-12-28T00:30:00.000Z</time></trkpt>
        <trkpt lat="28.83443" lon="105.313164"><ele>501.52585</ele><time>2025-12-28T00:31:12.000Z</time></trkpt>
        <trkpt lat="28.834413" lon="105.313116"><ele>502.65594</ele><time>2025-12-28T00:31:54.000Z</time></trkpt>
        <trkpt lat="28.834368" lon="105.31313"><ele>505.008</ele><time>2025-12-28T00:32:14.000Z</time></trkpt>
        <trkpt lat="28.834379" lon="105.313056"><ele>499.34204</ele><time>2025-12-28T00:32:44.000Z</time></trkpt>
        <trkpt lat="28.834379" lon="105.313112"><ele>492.06107</ele><time>2025-12-28T00:33:17.000Z</time></trkpt>
        <trkpt lat="28.834346" lon="105.31316"><ele>493.7856</ele><time>2025-12-28T00:33:28.000Z</time></trkpt>
        <trkpt lat="28.834347" lon="105.313123"><ele>495.66666</ele><time>2025-12-28T00:33:33.000Z</time></trkpt>
        <trkpt lat="28.83439" lon="105.313067"><ele>491.3705</ele><time>2025-12-28T00:34:09.000Z</time></trkpt>
        <trkpt lat="28.834441" lon="105.313097"><ele>495.27432</ele><time>2025-12-28T00:34:34.000Z</time></trkpt>
        <trkpt lat="28.834402" lon="105.313071"><ele>494.51392</ele><time>2025-12-28T00:36:21.000Z</time></trkpt>
        <trkpt lat="28.834416" lon="105.313019"><ele>496.07016</ele><time>2025-12-28T00:36:55.000Z</time></trkpt>
        <trkpt lat="28.834458" lon="105.312997"><ele>495.42896</ele><time>2025-12-28T00:38:07.000Z</time></trkpt>
        <trkpt lat="28.834411" lon="105.313016"><ele>497.34842</ele><time>2025-12-28T00:38:35.000Z</time></trkpt>
        <trkpt lat="28.834416" lon="105.313068"><ele>498.27386</ele><time>2025-12-28T00:38:43.000Z</time></trkpt>
        <trkpt lat="28.834412" lon="105.313024"><ele>499.65</ele><time>2025-12-28T00:39:06.000Z</time></trkpt>
        <trkpt lat="28.83446" lon="105.313018"><ele>488.96622</ele><time>2025-12-28T00:40:10.000Z</time></trkpt>
        <trkpt lat="28.834504" lon="105.312981"><ele>488.5139</ele><time>2025-12-28T00:41:03.000Z</time></trkpt>
        <trkpt lat="28.83449" lon="105.313023"><ele>486.0046</ele><time>2025-12-28T00:41:14.000Z</time></trkpt>
        <trkpt lat="28.834482" lon="105.312983"><ele>487.93</ele><time>2025-12-28T00:41:30.000Z</time></trkpt>
        <trkpt lat="28.834531" lon="105.312967"><ele>491.4172</ele><time>2025-12-28T00:42:20.000Z</time></trkpt>
        <trkpt lat="28.834489" lon="105.312946"><ele>481.23264</ele><time>2025-12-28T00:44:30.000Z</time></trkpt>
        <trkpt lat="28.834535" lon="105.312942"><ele>487.4339</ele><time>2025-12-28T00:45:08.000Z</time></trkpt>
        <trkpt lat="28.834571" lon="105.312909"><ele>483.35373</ele><time>2025-12-28T00:46:12.000Z</time></trkpt>
        <trkpt lat="28.8346" lon="105.312868"><ele>483.07352</ele><time>2025-12-28T00:47:09.000Z</time></trkpt>
        <trkpt lat="28.834581" lon="105.312917"><ele>481.0879</ele><time>2025-12-28T00:47:45.000Z</time></trkpt>
        <trkpt lat="28.834628" lon="105.3129"><ele>482.54608</ele><time>2025-12-28T00:48:15.000Z</time></trkpt>
        <trkpt lat="28.834659" lon="105.312861"><ele>478.86038</ele><time>2025-12-28T00:48:30.000Z</time></trkpt>
        <trkpt lat="28.83464" lon="105.312807"><ele>478.37976</ele><time>2025-12-28T00:48:42.000Z</time></trkpt>
        <trkpt lat="28.834693" lon="105.31282"><ele>480.69275</ele><time>2025-12-28T00:49:58.000Z</time></trkpt>
        <trkpt lat="28.83465" lon="105.312832"><ele>479.49823</ele><time>2025-12-28T00:50:17.000Z</time></trkpt>
        <trkpt lat="28.834601" lon="105.312817"><ele>477.16406</ele><time>2025-12-28T00:50:31.000Z</time></trkpt>
        <trkpt lat="28.834649" lon="105.312833"><ele>483.91724</ele><time>2025-12-28T00:53:18.000Z</time></trkpt>
        <trkpt lat="28.834691" lon="105.312868"><ele>480.76056</ele><time>2025-12-28T00:53:45.000Z</time></trkpt>
        <trkpt lat="28.834731" lon="105.312867"><ele>479.7616</ele><time>2025-12-28T00:53:51.000Z</time></trkpt>
        <trkpt lat="28.834785" lon="105.312859"><ele>478.25122</ele><time>2025-12-28T00:54:00.000Z</time></trkpt>
        <trkpt lat="28.834825" lon="105.31285"><ele>477.15796</ele><time>2025-12-28T00:54:05.000Z</time></trkpt>
        <trkpt lat="28.834877" lon="105.312842"><ele>475.682</ele><time>2025-12-28T00:54:11.000Z</time></trkpt>
        <trkpt lat="28.834934" lon="105.312841"><ele>474.85672</ele><time>2025-12-28T00:54:20.000Z</time></trkpt>
        <trkpt lat="28.834973" lon="105.312831"><ele>474.17767</ele><time>2025-12-28T00:54:25.000Z</time></trkpt>
        <trkpt lat="28.835021" lon="105.312799"><ele>463.78952</ele><time>2025-12-28T00:54:48.000Z</time></trkpt>
        <trkpt lat="28.835053" lon="105.312784"><ele>463.8163</ele><time>2025-12-28T00:54:52.000Z</time></trkpt>
        <trkpt lat="28.835088" lon="105.312762"><ele>467.40582</ele><time>2025-12-28T00:54:55.000Z</time></trkpt>
        <trkpt lat="28.835142" lon="105.312735"><ele>469.11584</ele><time>2025-12-28T00:54:59.000Z</time></trkpt>
        <trkpt lat="28.8352" lon="105.312705"><ele>469.06946</ele><time>2025-12-28T00:55:04.000Z</time></trkpt>
        <trkpt lat="28.835256" lon="105.312688"><ele>467.47525</ele><time>2025-12-28T00:55:14.000Z</time></trkpt>
        <trkpt lat="28.835298" lon="105.312667"><ele>466.13925</ele><time>2025-12-28T00:55:22.000Z</time></trkpt>
        <trkpt lat="28.835347" lon="105.312663"><ele>465.31152</ele><time>2025-12-28T00:55:28.000Z</time></trkpt>
        <trkpt lat="28.835315" lon="105.312643"><ele>464.09735</ele><time>2025-12-28T00:55:42.000Z</time></trkpt>
        <trkpt lat="28.835263" lon="105.312649"><ele>464.94733</ele><time>2025-12-28T00:55:47.000Z</time></trkpt>
        <trkpt lat="28.83522" lon="105.312657"><ele>465.45837</ele><time>2025-12-28T00:55:51.000Z</time></trkpt>
        <trkpt lat="28.835173" lon="105.312666"><ele>465.54745</ele><time>2025-12-28T00:55:55.000Z</time></trkpt>
        <trkpt lat="28.835098" lon="105.31266"><ele>465.73502</ele><time>2025-12-28T00:56:05.000Z</time></trkpt>
        <trkpt lat="28.83505" lon="105.312675"><ele>467.27527</ele><time>2025-12-28T00:56:11.000Z</time></trkpt>
        <trkpt lat="28.83501" lon="105.312699"><ele>468.63467</ele><time>2025-12-28T00:56:15.000Z</time></trkpt>
        <trkpt lat="28.834968" lon="105.31274"><ele>468.9146</ele><time>2025-12-28T00:56:21.000Z</time></trkpt>
        <trkpt lat="28.834927" lon="105.312787"><ele>468.784</ele><time>2025-12-28T00:56:28.000Z</time></trkpt>
        <trkpt lat="28.834893" lon="105.312762"><ele>469.94656</ele><time>2025-12-28T00:56:34.000Z</time></trkpt>
        <trkpt lat="28.834853" lon="105.312723"><ele>472.31836</ele><time>2025-12-28T00:56:40.000Z</time></trkpt>
        <trkpt lat="28.834801" lon="105.312707"><ele>472.87448</ele><time>2025-12-28T00:56:46.000Z</time></trkpt>
        <trkpt lat="28.834784" lon="105.312665"><ele>472.8324</ele><time>2025-12-28T00:56:51.000Z</time></trkpt>
        <trkpt lat="28.834773" lon="105.312602"><ele>471.76038</ele><time>2025-12-28T00:56:56.000Z</time></trkpt>
        <trkpt lat="28.834779" lon="105.312542"><ele>470.7991</ele><time>2025-12-28T00:57:01.000Z</time></trkpt>
        <trkpt lat="28.834787" lon="105.312478"><ele>469.16486</ele><time>2025-12-28T00:57:07.000Z</time></trkpt>
        <trkpt lat="28.834798" lon="105.312424"><ele>469.15985</ele><time>2025-12-28T00:57:13.000Z</time></trkpt>
        <trkpt lat="28.834811" lon="105.312369"><ele>468.57382</ele><time>2025-12-28T00:57:21.000Z</time></trkpt>
        <trkpt lat="28.834837" lon="105.31233"><ele>468.55893</ele><time>2025-12-28T00:57:26.000Z</time></trkpt>
        <trkpt lat="28.834854" lon="105.312268"><ele>468.9257</ele><time>2025-12-28T00:57:33.000Z</time></trkpt>
        <trkpt lat="28.834862" lon="105.312213"><ele>468.7123</ele><time>2025-12-28T00:57:39.000Z</time></trkpt>
        <trkpt lat="28.834875" lon="105.312155"><ele>469.1072</ele><time>2025-12-28T00:57:44.000Z</time></trkpt>
        <trkpt lat="28.834857" lon="105.312101"><ele>469.47873</ele><time>2025-12-28T00:57:51.000Z</time></trkpt>
        <trkpt lat="28.83483" lon="105.312056"><ele>469.60098</ele><time>2025-12-28T00:57:58.000Z</time></trkpt>
        <trkpt lat="28.834795" lon="105.31202"><ele>470.09735</ele><time>2025-12-28T00:58:05.000Z</time></trkpt>
        <trkpt lat="28.834745" lon="105.312031"><ele>472.3168</ele><time>2025-12-28T00:58:14.000Z</time></trkpt>
        <trkpt lat="28.834697" lon="105.31203"><ele>473.22852</ele><time>2025-12-28T00:58:25.000Z</time></trkpt>
        <trkpt lat="28.834659" lon="105.312001"><ele>477.83368</ele><time>2025-12-28T00:58:38.000Z</time></trkpt>
        <trkpt lat="28.834659" lon="105.311948"><ele>477.46088</ele><time>2025-12-28T00:58:53.000Z</time></trkpt>
        <trkpt lat="28.834669" lon="105.312002"><ele>476.57025</ele><time>2025-12-28T00:59:26.000Z</time></trkpt>
        <trkpt lat="28.834718" lon="105.311998"><ele>474.75162</ele><time>2025-12-28T00:59:43.000Z</time></trkpt>
        <trkpt lat="28.834708" lon="105.312069"><ele>471.50583</ele><time>2025-12-28T01:00:08.000Z</time></trkpt>
        <trkpt lat="28.834718" lon="105.312044"><ele>471.7009</ele><time>2025-12-28T01:00:12.000Z</time></trkpt>
        <trkpt lat="28.834759" lon="105.312023"><ele>471.2727</ele><time>2025-12-28T01:00:17.000Z</time></trkpt>
        <trkpt lat="28.834814" lon="105.312023"><ele>470.16748</ele><time>2025-12-28T01:00:23.000Z</time></trkpt>
        <trkpt lat="28.834857" lon="105.312064"><ele>468.28677</ele><time>2025-12-28T01:00:41.000Z</time></trkpt>
        <trkpt lat="28.834862" lon="105.312117"><ele>468.00223</ele><time>2025-12-28T01:00:47.000Z</time></trkpt>
        <trkpt lat="28.834874" lon="105.31217"><ele>467.6619</ele><time>2025-12-28T01:00:52.000Z</time></trkpt>
        <trkpt lat="28.834874" lon="105.312223"><ele>467.11407</ele><time>2025-12-28T01:00:57.000Z</time></trkpt>
        <trkpt lat="28.83486" lon="105.312287"><ele>467.30945</ele><time>2025-12-28T01:01:05.000Z</time></trkpt>
        <trkpt lat="28.834843" lon="105.312328"><ele>467.39508</ele><time>2025-12-28T01:01:09.000Z</time></trkpt>
        <trkpt lat="28.834822" lon="105.312393"><ele>467.67862</ele><time>2025-12-28T01:01:17.000Z</time></trkpt>
        <trkpt lat="28.834805" lon="105.312448"><ele>468.10785</ele><time>2025-12-28T01:01:22.000Z</time></trkpt>
        <trkpt lat="28.834802" lon="105.312502"><ele>468.53223</ele><time>2025-12-28T01:01:27.000Z</time></trkpt>
        <trkpt lat="28.834804" lon="105.312551"><ele>468.69077</ele><time>2025-12-28T01:01:31.000Z</time></trkpt>
        <trkpt lat="28.834799" lon="105.312613"><ele>469.6412</ele><time>2025-12-28T01:01:36.000Z</time></trkpt>
        <trkpt lat="28.834794" lon="105.31267"><ele>470.5694</ele><time>2025-12-28T01:01:42.000Z</time></trkpt>
        <trkpt lat="28.834821" lon="105.312726"><ele>471.30106</ele><time>2025-12-28T01:01:48.000Z</time></trkpt>
        <trkpt lat="28.834874" lon="105.312748"><ele>471.91135</ele><time>2025-12-28T01:01:55.000Z</time></trkpt>
        <trkpt lat="28.834929" lon="105.31275"><ele>471.311</ele><time>2025-12-28T01:02:02.000Z</time></trkpt>
        <trkpt lat="28.834987" lon="105.31274"><ele>470.21762</ele><time>2025-12-28T01:02:09.000Z</time></trkpt>
        <trkpt lat="28.835023" lon="105.312715"><ele>468.7045</ele><time>2025-12-28T01:02:12.000Z</time></trkpt>
        <trkpt lat="28.835065" lon="105.312684"><ele>468.12268</ele><time>2025-12-28T01:02:17.000Z</time></trkpt>
        <trkpt lat="28.835116" lon="105.31267"><ele>467.54156</ele><time>2025-12-28T01:02:22.000Z</time></trkpt>
        <trkpt lat="28.835166" lon="105.312652"><ele>467.6746</ele><time>2025-12-28T01:02:27.000Z</time></trkpt>
        <trkpt lat="28.835221" lon="105.312635"><ele>466.7841</ele><time>2025-12-28T01:02:32.000Z</time></trkpt>
        <trkpt lat="28.835259" lon="105.312648"><ele>466.5506</ele><time>2025-12-28T01:02:35.000Z</time></trkpt>
        <trkpt lat="28.835298" lon="105.312625"><ele>466.80426</ele><time>2025-12-28T01:02:39.000Z</time></trkpt>
        <trkpt lat="28.835344" lon="105.312597"><ele>465.43094</ele><time>2025-12-28T01:02:45.000Z</time></trkpt>
        <trkpt lat="28.83539" lon="105.312601"><ele>464.04465</ele><time>2025-12-28T01:02:51.000Z</time></trkpt>
        <trkpt lat="28.835425" lon="105.312636"><ele>464.48605</ele><time>2025-12-28T01:02:56.000Z</time></trkpt>
        <trkpt lat="28.835462" lon="105.312689"><ele>464.42395</ele><time>2025-12-28T01:03:02.000Z</time></trkpt>
        <trkpt lat="28.835496" lon="105.312729"><ele>465.521</ele><time>2025-12-28T01:03:07.000Z</time></trkpt>
        <trkpt lat="28.835536" lon="105.31276"><ele>466.2385</ele><time>2025-12-28T01:03:13.000Z</time></trkpt>
        <trkpt lat="28.835582" lon="105.312776"><ele>466.20126</ele><time>2025-12-28T01:03:19.000Z</time></trkpt>
        <trkpt lat="28.835641" lon="105.312793"><ele>466.75455</ele><time>2025-12-28T01:03:27.000Z</time></trkpt>
        <trkpt lat="28.835689" lon="105.312811"><ele>465.44165</ele><time>2025-12-28T01:03:34.000Z</time></trkpt>
        <trkpt lat="28.835742" lon="105.312814"><ele>463.8841</ele><time>2025-12-28T01:03:40.000Z</time></trkpt>
        <trkpt lat="28.835787" lon="105.312835"><ele>463.231</ele><time>2025-12-28T01:03:45.000Z</time></trkpt>
        <trkpt lat="28.835835" lon="105.312863"><ele>463.3918</ele><time>2025-12-28T01:03:50.000Z</time></trkpt>
        <trkpt lat="28.835889" lon="105.312875"><ele>462.12573</ele><time>2025-12-28T01:03:57.000Z</time></trkpt>
        <trkpt lat="28.835933" lon="105.312865"><ele>459.49017</ele><time>2025-12-28T01:04:03.000Z</time></trkpt>
        <trkpt lat="28.835975" lon="105.312836"><ele>458.17545</ele><time>2025-12-28T01:04:08.000Z</time></trkpt>
        <trkpt lat="28.836026" lon="105.312848"><ele>458.14005</ele><time>2025-12-28T01:04:13.000Z</time></trkpt>
        <trkpt lat="28.836075" lon="105.312879"><ele>457.32797</ele><time>2025-12-28T01:04:17.000Z</time></trkpt>
        <trkpt lat="28.836116" lon="105.312914"><ele>456.76816</ele><time>2025-12-28T01:04:22.000Z</time></trkpt>
        <trkpt lat="28.836154" lon="105.31295"><ele>456.66766</ele><time>2025-12-28T01:04:28.000Z</time></trkpt>
        <trkpt lat="28.836186" lon="105.312996"><ele>455.9746</ele><time>2025-12-28T01:04:35.000Z</time></trkpt>
        <trkpt lat="28.83622" lon="105.31302"><ele>456.2541</ele><time>2025-12-28T01:04:39.000Z</time></trkpt>
        <trkpt lat="28.836266" lon="105.313054"><ele>456.67172</ele><time>2025-12-28T01:04:45.000Z</time></trkpt>
        <trkpt lat="28.836297" lon="105.313091"><ele>456.16714</ele><time>2025-12-28T01:04:49.000Z</time></trkpt>
        <trkpt lat="28.836333" lon="105.313144"><ele>457.31335</ele><time>2025-12-28T01:04:55.000Z</time></trkpt>
        <trkpt lat="28.836373" lon="105.313181"><ele>458.02054</ele><time>2025-12-28T01:05:00.000Z</time></trkpt>
        <trkpt lat="28.836422" lon="105.313159"><ele>457.81317</ele><time>2025-12-28T01:05:18.000Z</time></trkpt>
        <trkpt lat="28.836459" lon="105.313147"><ele>457.0167</ele><time>2025-12-28T01:05:23.000Z</time></trkpt>
        <trkpt lat="28.836509" lon="105.313156"><ele>457.54984</ele><time>2025-12-28T01:05:30.000Z</time></trkpt>
        <trkpt lat="28.83656" lon="105.313148"><ele>456.94006</ele><time>2025-12-28T01:05:35.000Z</time></trkpt>
        <trkpt lat="28.836598" lon="105.313108"><ele>455.28064</ele><time>2025-12-28T01:05:43.000Z</time></trkpt>
        <trkpt lat="28.83662" lon="105.313068"><ele>455.0956</ele><time>2025-12-28T01:05:48.000Z</time></trkpt>
        <trkpt lat="28.836665" lon="105.313043"><ele>453.91528</ele><time>2025-12-28T01:05:55.000Z</time></trkpt>
        <trkpt lat="28.836715" lon="105.313046"><ele>453.14532</ele><time>2025-12-28T01:06:02.000Z</time></trkpt>
        <trkpt lat="28.836751" lon="105.313094"><ele>451.86652</ele><time>2025-12-28T01:06:07.000Z</time></trkpt>
        <trkpt lat="28.836798" lon="105.313133"><ele>450.9671</ele><time>2025-12-28T01:06:31.000Z</time></trkpt>
        <trkpt lat="28.836832" lon="105.31311"><ele>450.09488</ele><time>2025-12-28T01:06:37.000Z</time></trkpt>
        <trkpt lat="28.836876" lon="105.313071"><ele>447.28864</ele><time>2025-12-28T01:06:47.000Z</time></trkpt>
        <trkpt lat="28.836922" lon="105.313069"><ele>445.34296</ele><time>2025-12-28T01:06:53.000Z</time></trkpt>
        <trkpt lat="28.836968" lon="105.313098"><ele>444.64108</ele><time>2025-12-28T01:06:58.000Z</time></trkpt>
        <trkpt lat="28.837012" lon="105.313135"><ele>444.4089</ele><time>2025-12-28T01:07:03.000Z</time></trkpt>
        <trkpt lat="28.837062" lon="105.313154"><ele>444.33267</ele><time>2025-12-28T01:07:08.000Z</time></trkpt>
        <trkpt lat="28.837109" lon="105.313137"><ele>442.31677</ele><time>2025-12-28T01:07:14.000Z</time></trkpt>
        <trkpt lat="28.837155" lon="105.313108"><ele>440.7378</ele><time>2025-12-28T01:07:20.000Z</time></trkpt>
        <trkpt lat="28.83719" lon="105.313077"><ele>440.89145</ele><time>2025-12-28T01:07:24.000Z</time></trkpt>
        <trkpt lat="28.837237" lon="105.313037"><ele>439.04443</ele><time>2025-12-28T01:07:32.000Z</time></trkpt>
        <trkpt lat="28.837272" lon="105.313014"><ele>437.88882</ele><time>2025-12-28T01:07:36.000Z</time></trkpt>
        <trkpt lat="28.837326" lon="105.312977"><ele>435.50348</ele><time>2025-12-28T01:07:43.000Z</time></trkpt>
        <trkpt lat="28.837376" lon="105.31294"><ele>434.77954</ele><time>2025-12-28T01:07:59.000Z</time></trkpt>
        <trkpt lat="28.837413" lon="105.312912"><ele>431.60114</ele><time>2025-12-28T01:08:22.000Z</time></trkpt>
        <trkpt lat="28.837446" lon="105.312891"><ele>431.2912</ele><time>2025-12-28T01:08:26.000Z</time></trkpt>
        <trkpt lat="28.837507" lon="105.312877"><ele>430.2657</ele><time>2025-12-28T01:08:36.000Z</time></trkpt>
        <trkpt lat="28.837554" lon="105.312855"><ele>429.7669</ele><time>2025-12-28T01:08:42.000Z</time></trkpt>
        <trkpt lat="28.837608" lon="105.312825"><ele>429.52072</ele><time>2025-12-28T01:08:47.000Z</time></trkpt>
        <trkpt lat="28.837664" lon="105.312793"><ele>428.07278</ele><time>2025-12-28T01:08:56.000Z</time></trkpt>
        <trkpt lat="28.837707" lon="105.312762"><ele>425.32315</ele><time>2025-12-28T01:09:07.000Z</time></trkpt>
        <trkpt lat="28.837745" lon="105.31274"><ele>424.5595</ele><time>2025-12-28T01:09:13.000Z</time></trkpt>
        <trkpt lat="28.837784" lon="105.312703"><ele>422.64966</ele><time>2025-12-28T01:09:20.000Z</time></trkpt>
        <trkpt lat="28.837818" lon="105.312663"><ele>420.43213</ele><time>2025-12-28T01:09:29.000Z</time></trkpt>
        <trkpt lat="28.83785" lon="105.312624"><ele>419.42627</ele><time>2025-12-28T01:09:38.000Z</time></trkpt>
        <trkpt lat="28.837886" lon="105.312573"><ele>417.39587</ele><time>2025-12-28T01:09:49.000Z</time></trkpt>
        <trkpt lat="28.837916" lon="105.31253"><ele>415.06888</ele><time>2025-12-28T01:09:57.000Z</time></trkpt>
        <trkpt lat="28.837965" lon="105.312527"><ele>414.38132</ele><time>2025-12-28T01:10:08.000Z</time></trkpt>
        <trkpt lat="28.838012" lon="105.312518"><ele>413.15817</ele><time>2025-12-28T01:10:21.000Z</time></trkpt>
        <trkpt lat="28.838054" lon="105.3125"><ele>411.62326</ele><time>2025-12-28T01:10:30.000Z</time></trkpt>
        <trkpt lat="28.838102" lon="105.312513"><ele>410.49182</ele><time>2025-12-28T01:10:36.000Z</time></trkpt>
        <trkpt lat="28.838148" lon="105.31253"><ele>409.34137</ele><time>2025-12-28T01:10:43.000Z</time></trkpt>
        <trkpt lat="28.83819" lon="105.312502"><ele>406.3367</ele><time>2025-12-28T01:10:52.000Z</time></trkpt>
        <trkpt lat="28.838228" lon="105.312469"><ele>405.5558</ele><time>2025-12-28T01:10:59.000Z</time></trkpt>
        <trkpt lat="28.838269" lon="105.312445"><ele>404.02304</ele><time>2025-12-28T01:11:05.000Z</time></trkpt>
        <trkpt lat="28.838299" lon="105.312413"><ele>401.8783</ele><time>2025-12-28T01:11:09.000Z</time></trkpt>
        <trkpt lat="28.838302" lon="105.312363"><ele>400.60968</ele><time>2025-12-28T01:11:14.000Z</time></trkpt>
        <trkpt lat="28.838292" lon="105.312303"><ele>399.02585</ele><time>2025-12-28T01:11:22.000Z</time></trkpt>
        <trkpt lat="28.838275" lon="105.312251"><ele>398.3726</ele><time>2025-12-28T01:11:30.000Z</time></trkpt>
        <trkpt lat="28.838258" lon="105.312203"><ele>396.60434</ele><time>2025-12-28T01:11:38.000Z</time></trkpt>
        <trkpt lat="28.838236" lon="105.31216"><ele>395.4838</ele><time>2025-12-28T01:11:45.000Z</time></trkpt>
        <trkpt lat="28.838224" lon="105.312112"><ele>394.6552</ele><time>2025-12-28T01:11:50.000Z</time></trkpt>
        <trkpt lat="28.838228" lon="105.312057"><ele>392.41165</ele><time>2025-12-28T01:11:56.000Z</time></trkpt>
        <trkpt lat="28.838232" lon="105.312005"><ele>391.3005</ele><time>2025-12-28T01:12:01.000Z</time></trkpt>
        <trkpt lat="28.838244" lon="105.311944"><ele>389.61856</ele><time>2025-12-28T01:12:10.000Z</time></trkpt>
        <trkpt lat="28.838276" lon="105.31191"><ele>388.4037</ele><time>2025-12-28T01:12:18.000Z</time></trkpt>
        <trkpt lat="28.83832" lon="105.311876"><ele>387.84982</ele><time>2025-12-28T01:12:26.000Z</time></trkpt>
        <trkpt lat="28.838361" lon="105.311849"><ele>387.13464</ele><time>2025-12-28T01:12:31.000Z</time></trkpt>
        <trkpt lat="28.838419" lon="105.311839"><ele>384.93707</ele><time>2025-12-28T01:13:13.000Z</time></trkpt>
        <trkpt lat="28.838435" lon="105.311791"><ele>383.16937</ele><time>2025-12-28T01:13:24.000Z</time></trkpt>
        <trkpt lat="28.838453" lon="105.311733"><ele>381.83447</ele><time>2025-12-28T01:13:32.000Z</time></trkpt>
        <trkpt lat="28.838464" lon="105.311675"><ele>380.01437</ele><time>2025-12-28T01:13:39.000Z</time></trkpt>
        <trkpt lat="28.83848" lon="105.311627"><ele>378.0691</ele><time>2025-12-28T01:13:44.000Z</time></trkpt>
        <trkpt lat="28.838488" lon="105.311571"><ele>376.83844</ele><time>2025-12-28T01:13:50.000Z</time></trkpt>
        <trkpt lat="28.83849" lon="105.311516"><ele>375.76236</ele><time>2025-12-28T01:13:55.000Z</time></trkpt>
        <trkpt lat="28.838483" lon="105.311461"><ele>375.2925</ele><time>2025-12-28T01:13:59.000Z</time></trkpt>
        <trkpt lat="28.838487" lon="105.311401"><ele>374.09854</ele><time>2025-12-28T01:14:04.000Z</time></trkpt>
        <trkpt lat="28.838505" lon="105.311333"><ele>371.90085</ele><time>2025-12-28T01:14:12.000Z</time></trkpt>
        <trkpt lat="28.83852" lon="105.311286"><ele>369.34213</ele><time>2025-12-28T01:14:19.000Z</time></trkpt>
        <trkpt lat="28.838541" lon="105.311238"><ele>367.67957</ele><time>2025-12-28T01:14:27.000Z</time></trkpt>
        <trkpt lat="28.838558" lon="105.311198"><ele>368.34317</ele><time>2025-12-28T01:14:31.000Z</time></trkpt>
        <trkpt lat="28.838559" lon="105.311136"><ele>367.17093</ele><time>2025-12-28T01:14:38.000Z</time></trkpt>
        <trkpt lat="28.838557" lon="105.311083"><ele>365.81714</ele><time>2025-12-28T01:14:43.000Z</time></trkpt>
        <trkpt lat="28.838566" lon="105.311027"><ele>364.09537</ele><time>2025-12-28T01:14:48.000Z</time></trkpt>
        <trkpt lat="28.8386" lon="105.310998"><ele>363.98825</ele><time>2025-12-28T01:14:52.000Z</time></trkpt>
        <trkpt lat="28.838645" lon="105.31097"><ele>363.82474</ele><time>2025-12-28T01:14:57.000Z</time></trkpt>
        <trkpt lat="28.838686" lon="105.31094"><ele>363.6654</ele><time>2025-12-28T01:15:01.000Z</time></trkpt>
        <trkpt lat="28.838733" lon="105.310906"><ele>364.23172</ele><time>2025-12-28T01:15:04.000Z</time></trkpt>
        <trkpt lat="28.838789" lon="105.310871"><ele>362.74802</ele><time>2025-12-28T01:15:11.000Z</time></trkpt>
        <trkpt lat="28.838855" lon="105.310839"><ele>361.25476</ele><time>2025-12-28T01:15:27.000Z</time></trkpt>
        <trkpt lat="28.838889" lon="105.310811"><ele>362.10373</ele><time>2025-12-28T01:15:34.000Z</time></trkpt>
        <trkpt lat="28.838932" lon="105.310777"><ele>361.49295</ele><time>2025-12-28T01:15:43.000Z</time></trkpt>
        <trkpt lat="28.838966" lon="105.310747"><ele>361.1093</ele><time>2025-12-28T01:15:48.000Z</time></trkpt>
        <trkpt lat="28.83901" lon="105.310711"><ele>360.0796</ele><time>2025-12-28T01:15:57.000Z</time></trkpt>
        <trkpt lat="28.839048" lon="105.310685"><ele>360.17105</ele><time>2025-12-28T01:16:01.000Z</time></trkpt>
        <trkpt lat="28.839099" lon="105.310667"><ele>359.9543</ele><time>2025-12-28T01:16:06.000Z</time></trkpt>
        <trkpt lat="28.839155" lon="105.310656"><ele>359.55798</ele><time>2025-12-28T01:16:11.000Z</time></trkpt>
        <trkpt lat="28.83922" lon="105.310642"><ele>359.2749</ele><time>2025-12-28T01:16:17.000Z</time></trkpt>
        <trkpt lat="28.839275" lon="105.31062"><ele>359.61142</ele><time>2025-12-28T01:16:23.000Z</time></trkpt>
        <trkpt lat="28.839313" lon="105.3106"><ele>359.40784</ele><time>2025-12-28T01:16:27.000Z</time></trkpt>
        <trkpt lat="28.83936" lon="105.31057"><ele>358.45532</ele><time>2025-12-28T01:16:32.000Z</time></trkpt>
        <trkpt lat="28.839407" lon="105.310543"><ele>357.09857</ele><time>2025-12-28T01:16:37.000Z</time></trkpt>
        <trkpt lat="28.839453" lon="105.310526"><ele>356.60916</ele><time>2025-12-28T01:16:42.000Z</time></trkpt>
        <trkpt lat="28.839507" lon="105.310505"><ele>354.70886</ele><time>2025-12-28T01:16:49.000Z</time></trkpt>
        <trkpt lat="28.839552" lon="105.310478"><ele>352.60217</ele><time>2025-12-28T01:16:54.000Z</time></trkpt>
        <trkpt lat="28.839598" lon="105.31045"><ele>353.553</ele><time>2025-12-28T01:16:59.000Z</time></trkpt>
        <trkpt lat="28.83964" lon="105.310431"><ele>354.86447</ele><time>2025-12-28T01:17:02.000Z</time></trkpt>
        <trkpt lat="28.839706" lon="105.310395"><ele>356.12628</ele><time>2025-12-28T01:17:07.000Z</time></trkpt>
        <trkpt lat="28.83976" lon="105.310374"><ele>356.49277</ele><time>2025-12-28T01:17:12.000Z</time></trkpt>
        <trkpt lat="28.839806" lon="105.310338"><ele>354.50748</ele><time>2025-12-28T01:17:17.000Z</time></trkpt>
        <trkpt lat="28.839838" lon="105.3103"><ele>354.06378</ele><time>2025-12-28T01:17:21.000Z</time></trkpt>
        <trkpt lat="28.83989" lon="105.310272"><ele>353.47272</ele><time>2025-12-28T01:17:29.000Z</time></trkpt>
        <trkpt lat="28.83988" lon="105.310315"><ele>352.3067</ele><time>2025-12-28T01:17:38.000Z</time></trkpt>
        <trkpt lat="28.839836" lon="105.310324"><ele>352.12262</ele><time>2025-12-28T01:17:42.000Z</time></trkpt>
        <trkpt lat="28.839805" lon="105.310269"><ele>351.31488</ele><time>2025-12-28T01:18:10.000Z</time></trkpt>
        <trkpt lat="28.839791" lon="105.310317"><ele>353.966</ele><time>2025-12-28T01:18:36.000Z</time></trkpt>
        <trkpt lat="28.839838" lon="105.310317"><ele>353.38046</ele><time>2025-12-28T01:18:50.000Z</time></trkpt>
        <trkpt lat="28.839886" lon="105.310303"><ele>352.4802</ele><time>2025-12-28T01:18:55.000Z</time></trkpt>
        <trkpt lat="28.839939" lon="105.3103"><ele>353.13394</ele><time>2025-12-28T01:19:00.000Z</time></trkpt>
        <trkpt lat="28.839992" lon="105.310296"><ele>352.63297</ele><time>2025-12-28T01:19:05.000Z</time></trkpt>
        <trkpt lat="28.840037" lon="105.310301"><ele>352.534</ele><time>2025-12-28T01:19:09.000Z</time></trkpt>
        <trkpt lat="28.840093" lon="105.310294"><ele>353.4081</ele><time>2025-12-28T01:19:14.000Z</time></trkpt>
        <trkpt lat="28.840145" lon="105.310286"><ele>353.14926</ele><time>2025-12-28T01:19:19.000Z</time></trkpt>
        <trkpt lat="28.840197" lon="105.310281"><ele>354.0457</ele><time>2025-12-28T01:19:23.000Z</time></trkpt>
        <trkpt lat="28.840253" lon="105.310296"><ele>354.75565</ele><time>2025-12-28T01:19:51.000Z</time></trkpt>
        <trkpt lat="28.840295" lon="105.310306"><ele>353.2858</ele><time>2025-12-28T01:20:03.000Z</time></trkpt>
        <trkpt lat="28.840341" lon="105.310323"><ele>352.6628</ele><time>2025-12-28T01:20:10.000Z</time></trkpt>
        <trkpt lat="28.840382" lon="105.310355"><ele>351.75433</ele><time>2025-12-28T01:20:15.000Z</time></trkpt>
        <trkpt lat="28.840417" lon="105.310401"><ele>350.0022</ele><time>2025-12-28T01:20:24.000Z</time></trkpt>
        <trkpt lat="28.840458" lon="105.310413"><ele>348.21365</ele><time>2025-12-28T01:20:33.000Z</time></trkpt>
        <trkpt lat="28.840501" lon="105.310435"><ele>347.20715</ele><time>2025-12-28T01:20:51.000Z</time></trkpt>
        <trkpt lat="28.840536" lon="105.310445"><ele>346.4889</ele><time>2025-12-28T01:20:55.000Z</time></trkpt>
        <trkpt lat="28.84058" lon="105.310432"><ele>345.19492</ele><time>2025-12-28T01:20:59.000Z</time></trkpt>
        <trkpt lat="28.840623" lon="105.310395"><ele>343.54416</ele><time>2025-12-28T01:21:04.000Z</time></trkpt>
        <trkpt lat="28.840661" lon="105.310397"><ele>343.3637</ele><time>2025-12-28T01:21:08.000Z</time></trkpt>
        <trkpt lat="28.840705" lon="105.310399"><ele>342.8058</ele><time>2025-12-28T01:21:12.000Z</time></trkpt>
        <trkpt lat="28.840725" lon="105.310452"><ele>341.56744</ele><time>2025-12-28T01:21:30.000Z</time></trkpt>
        <trkpt lat="28.840709" lon="105.3105"><ele>341.19592</ele><time>2025-12-28T01:21:36.000Z</time></trkpt>
        <trkpt lat="28.840737" lon="105.310549"><ele>341.05258</ele><time>2025-12-28T01:21:43.000Z</time></trkpt>
        <trkpt lat="28.84076" lon="105.310607"><ele>339.43353</ele><time>2025-12-28T01:21:50.000Z</time></trkpt>
        <trkpt lat="28.840782" lon="105.310662"><ele>339.7757</ele><time>2025-12-28T01:21:56.000Z</time></trkpt>
        <trkpt lat="28.840816" lon="105.310684"><ele>339.90082</ele><time>2025-12-28T01:22:00.000Z</time></trkpt>
        <trkpt lat="28.840867" lon="105.310693"><ele>339.4006</ele><time>2025-12-28T01:22:06.000Z</time></trkpt>
        <trkpt lat="28.840912" lon="105.310701"><ele>339.32837</ele><time>2025-12-28T01:22:10.000Z</time></trkpt>
        <trkpt lat="28.840967" lon="105.310695"><ele>339.0096</ele><time>2025-12-28T01:22:21.000Z</time></trkpt>
        <trkpt lat="28.840973" lon="105.310742"><ele>339.56567</ele><time>2025-12-28T01:22:31.000Z</time></trkpt>
        <trkpt lat="28.840993" lon="105.310783"><ele>340.19992</ele><time>2025-12-28T01:22:35.000Z</time></trkpt>
        <trkpt lat="28.841044" lon="105.310802"><ele>338.7693</ele><time>2025-12-28T01:22:45.000Z</time></trkpt>
        <trkpt lat="28.841048" lon="105.310757"><ele>338.12405</ele><time>2025-12-28T01:22:51.000Z</time></trkpt>
        <trkpt lat="28.841058" lon="105.310795"><ele>338.72223</ele><time>2025-12-28T01:22:57.000Z</time></trkpt>
        <trkpt lat="28.841104" lon="105.3108"><ele>337.79425</ele><time>2025-12-28T01:23:06.000Z</time></trkpt>
        <trkpt lat="28.841152" lon="105.310799"><ele>337.62097</ele><time>2025-12-28T01:23:13.000Z</time></trkpt>
        <trkpt lat="28.841201" lon="105.310798"><ele>337.73016</ele><time>2025-12-28T01:23:21.000Z</time></trkpt>
        <trkpt lat="28.841242" lon="105.310825"><ele>338.4538</ele><time>2025-12-28T01:23:40.000Z</time></trkpt>
        <trkpt lat="28.841288" lon="105.310824"><ele>337.94098</ele><time>2025-12-28T01:23:56.000Z</time></trkpt>
        <trkpt lat="28.841325" lon="105.310783"><ele>337.24463</ele><time>2025-12-28T01:24:03.000Z</time></trkpt>
        <trkpt lat="28.841333" lon="105.310722"><ele>336.71103</ele><time>2025-12-28T01:24:24.000Z</time></trkpt>
        <trkpt lat="28.841344" lon="105.31078"><ele>338.44177</ele><time>2025-12-28T01:25:02.000Z</time></trkpt>
        <trkpt lat="28.841355" lon="105.310825"><ele>338.5863</ele><time>2025-12-28T01:25:07.000Z</time></trkpt>
        <trkpt lat="28.841351" lon="105.310885"><ele>338.73285</ele><time>2025-12-28T01:25:12.000Z</time></trkpt>
        <trkpt lat="28.841373" lon="105.310933"><ele>338.91998</ele><time>2025-12-28T01:25:17.000Z</time></trkpt>
        <trkpt lat="28.84142" lon="105.310962"><ele>338.77057</ele><time>2025-12-28T01:25:24.000Z</time></trkpt>
        <trkpt lat="28.841455" lon="105.310992"><ele>338.24374</ele><time>2025-12-28T01:25:29.000Z</time></trkpt>
        <trkpt lat="28.841494" lon="105.311028"><ele>337.96838</ele><time>2025-12-28T01:25:34.000Z</time></trkpt>
        <trkpt lat="28.841539" lon="105.31107"><ele>337.56454</ele><time>2025-12-28T01:25:45.000Z</time></trkpt>
        <trkpt lat="28.841565" lon="105.311033"><ele>336.7925</ele><time>2025-12-28T01:25:53.000Z</time></trkpt>
        <trkpt lat="28.841601" lon="105.310998"><ele>336.4575</ele><time>2025-12-28T01:26:00.000Z</time></trkpt>
        <trkpt lat="28.841651" lon="105.310978"><ele>337.008</ele><time>2025-12-28T01:26:17.000Z</time></trkpt>
        <trkpt lat="28.841692" lon="105.310961"><ele>337.28165</ele><time>2025-12-28T01:26:27.000Z</time></trkpt>
        <trkpt lat="28.84175" lon="105.31095"><ele>338.15683</ele><time>2025-12-28T01:26:39.000Z</time></trkpt>
        <trkpt lat="28.841797" lon="105.310944"><ele>338.85602</ele><time>2025-12-28T01:27:27.000Z</time></trkpt>
        <trkpt lat="28.841816" lon="105.310909"><ele>338.6336</ele><time>2025-12-28T01:27:32.000Z</time></trkpt>
        <trkpt lat="28.841802" lon="105.310843"><ele>337.93637</ele><time>2025-12-28T01:31:35.000Z</time></trkpt>
        <trkpt lat="28.841796" lon="105.310796"><ele>337.54953</ele><time>2025-12-28T01:31:41.000Z</time></trkpt>
        <trkpt lat="28.841795" lon="105.31073"><ele>338.2753</ele><time>2025-12-28T01:31:46.000Z</time></trkpt>
        <trkpt lat="28.841791" lon="105.310662"><ele>338.4443</ele><time>2025-12-28T01:31:53.000Z</time></trkpt>
        <trkpt lat="28.841788" lon="105.310607"><ele>338.3674</ele><time>2025-12-28T01:31:59.000Z</time></trkpt>
        <trkpt lat="28.841786" lon="105.310551"><ele>338.91183</ele><time>2025-12-28T01:32:05.000Z</time></trkpt>
        <trkpt lat="28.841779" lon="105.310503"><ele>339.1366</ele><time>2025-12-28T01:32:09.000Z</time></trkpt>
        <trkpt lat="28.841777" lon="105.310445"><ele>339.23218</ele><time>2025-12-28T01:32:14.000Z</time></trkpt>
        <trkpt lat="28.841781" lon="105.310395"><ele>339.46255</ele><time>2025-12-28T01:32:18.000Z</time></trkpt>
        <trkpt lat="28.841778" lon="105.310334"><ele>340.19043</ele><time>2025-12-28T01:32:23.000Z</time></trkpt>
        <trkpt lat="28.841782" lon="105.310276"><ele>341.07</ele><time>2025-12-28T01:32:28.000Z</time></trkpt>
        <trkpt lat="28.84178" lon="105.310217"><ele>341.1266</ele><time>2025-12-28T01:32:33.000Z</time></trkpt>
        <trkpt lat="28.841779" lon="105.310163"><ele>341.33856</ele><time>2025-12-28T01:32:38.000Z</time></trkpt>
        <trkpt lat="28.841775" lon="105.310102"><ele>342.66064</ele><time>2025-12-28T01:32:45.000Z</time></trkpt>
        <trkpt lat="28.841772" lon="105.310042"><ele>343.22037</ele><time>2025-12-28T01:32:54.000Z</time></trkpt>
        <trkpt lat="28.841762" lon="105.30999"><ele>343.74213</ele><time>2025-12-28T01:33:01.000Z</time></trkpt>
        <trkpt lat="28.841753" lon="105.309924"><ele>343.98474</ele><time>2025-12-28T01:33:08.000Z</time></trkpt>
        <trkpt lat="28.841761" lon="105.309862"><ele>343.7546</ele><time>2025-12-28T01:33:14.000Z</time></trkpt>
        <trkpt lat="28.841757" lon="105.309809"><ele>344.2208</ele><time>2025-12-28T01:33:19.000Z</time></trkpt>
        <trkpt lat="28.841748" lon="105.309756"><ele>344.2601</ele><time>2025-12-28T01:33:24.000Z</time></trkpt>
        <trkpt lat="28.841743" lon="105.309697"><ele>344.2696</ele><time>2025-12-28T01:33:29.000Z</time></trkpt>
        <trkpt lat="28.841739" lon="105.309646"><ele>343.89062</ele><time>2025-12-28T01:33:34.000Z</time></trkpt>
        <trkpt lat="28.84174" lon="105.309594"><ele>343.47562</ele><time>2025-12-28T01:33:39.000Z</time></trkpt>
        <trkpt lat="28.841732" lon="105.309535"><ele>342.71716</ele><time>2025-12-28T01:33:45.000Z</time></trkpt>
        <trkpt lat="28.841738" lon="105.309485"><ele>342.65607</ele><time>2025-12-28T01:33:50.000Z</time></trkpt>
        <trkpt lat="28.841742" lon="105.309429"><ele>342.34418</ele><time>2025-12-28T01:33:55.000Z</time></trkpt>
        <trkpt lat="28.841738" lon="105.309372"><ele>342.63098</ele><time>2025-12-28T01:34:00.000Z</time></trkpt>
        <trkpt lat="28.841731" lon="105.309312"><ele>343.15732</ele><time>2025-12-28T01:34:07.000Z</time></trkpt>
        <trkpt lat="28.841723" lon="105.309257"><ele>343.03824</ele><time>2025-12-28T01:34:14.000Z</time></trkpt>
        <trkpt lat="28.841721" lon="105.309204"><ele>343.152</ele><time>2025-12-28T01:34:21.000Z</time></trkpt>
        <trkpt lat="28.841721" lon="105.309146"><ele>343.30942</ele><time>2025-12-28T01:34:27.000Z</time></trkpt>
        <trkpt lat="28.841725" lon="105.30908"><ele>343.47632</ele><time>2025-12-28T01:34:34.000Z</time></trkpt>
        <trkpt lat="28.84173" lon="105.309026"><ele>343.95007</ele><time>2025-12-28T01:34:39.000Z</time></trkpt>
        <trkpt lat="28.841729" lon="105.308965"><ele>344.65613</ele><time>2025-12-28T01:34:45.000Z</time></trkpt>
        <trkpt lat="28.841728" lon="105.308901"><ele>344.73166</ele><time>2025-12-28T01:34:51.000Z</time></trkpt>
        <trkpt lat="28.841725" lon="105.308845"><ele>345.25598</ele><time>2025-12-28T01:34:56.000Z</time></trkpt>
        <trkpt lat="28.841719" lon="105.308787"><ele>345.94028</ele><time>2025-12-28T01:35:03.000Z</time></trkpt>
        <trkpt lat="28.841729" lon="105.308732"><ele>347.17328</ele><time>2025-12-28T01:35:12.000Z</time></trkpt>
        <trkpt lat="28.841768" lon="105.308718"><ele>347.64603</ele><time>2025-12-28T01:35:17.000Z</time></trkpt>
        <trkpt lat="28.841816" lon="105.308721"><ele>347.0578</ele><time>2025-12-28T01:35:21.000Z</time></trkpt>
        <trkpt lat="28.841869" lon="105.308714"><ele>347.25986</ele><time>2025-12-28T01:35:26.000Z</time></trkpt>
        <trkpt lat="28.841912" lon="105.308743"><ele>348.2586</ele><time>2025-12-28T01:35:34.000Z</time></trkpt>
        <trkpt lat="28.841902" lon="105.308807"><ele>350.04797</ele><time>2025-12-28T01:38:45.000Z</time></trkpt>
        <trkpt lat="28.841917" lon="105.308757"><ele>348.99197</ele><time>2025-12-28T01:41:35.000Z</time></trkpt>
        <trkpt lat="28.841922" lon="105.308724"><ele>349.1741</ele><time>2025-12-28T01:41:39.000Z</time></trkpt>
        <trkpt lat="28.841919" lon="105.308669"><ele>348.9858</ele><time>2025-12-28T01:41:43.000Z</time></trkpt>
        <trkpt lat="28.841928" lon="105.308606"><ele>349.31067</ele><time>2025-12-28T01:41:48.000Z</time></trkpt>
        <trkpt lat="28.841926" lon="105.308544"><ele>349.74878</ele><time>2025-12-28T01:41:53.000Z</time></trkpt>
        <trkpt lat="28.841909" lon="105.308489"><ele>349.88614</ele><time>2025-12-28T01:41:58.000Z</time></trkpt>
        <trkpt lat="28.8419" lon="105.308438"><ele>350.31277</ele><time>2025-12-28T01:42:03.000Z</time></trkpt>
        <trkpt lat="28.841899" lon="105.308379"><ele>351.0873</ele><time>2025-12-28T01:42:09.000Z</time></trkpt>
        <trkpt lat="28.841898" lon="105.308324"><ele>351.44748</ele><time>2025-12-28T01:42:14.000Z</time></trkpt>
        <trkpt lat="28.841911" lon="105.308272"><ele>351.4955</ele><time>2025-12-28T01:42:19.000Z</time></trkpt>
        <trkpt lat="28.841913" lon="105.308218"><ele>351.82135</ele><time>2025-12-28T01:42:24.000Z</time></trkpt>
        <trkpt lat="28.841911" lon="105.30816"><ele>352.3837</ele><time>2025-12-28T01:42:29.000Z</time></trkpt>
        <trkpt lat="28.8419" lon="105.308101"><ele>352.53717</ele><time>2025-12-28T01:42:34.000Z</time></trkpt>
        <trkpt lat="28.841889" lon="105.308045"><ele>352.26785</ele><time>2025-12-28T01:42:39.000Z</time></trkpt>
        <trkpt lat="28.841881" lon="105.307989"><ele>352.78635</ele><time>2025-12-28T01:42:46.000Z</time></trkpt>
        <trkpt lat="28.841874" lon="105.307946"><ele>352.79538</ele><time>2025-12-28T01:42:49.000Z</time></trkpt>
        <trkpt lat="28.841866" lon="105.307884"><ele>352.20276</ele><time>2025-12-28T01:42:53.000Z</time></trkpt>
        <trkpt lat="28.841856" lon="105.307824"><ele>351.24017</ele><time>2025-12-28T01:42:58.000Z</time></trkpt>
        <trkpt lat="28.841847" lon="105.307773"><ele>350.3825</ele><time>2025-12-28T01:43:02.000Z</time></trkpt>
        <trkpt lat="28.841846" lon="105.307706"><ele>350.443</ele><time>2025-12-28T01:43:08.000Z</time></trkpt>
        <trkpt lat="28.841856" lon="105.30765"><ele>350.2992</ele><time>2025-12-28T01:43:15.000Z</time></trkpt>
        <trkpt lat="28.841856" lon="105.307604"><ele>349.63577</ele><time>2025-12-28T01:43:19.000Z</time></trkpt>
        <trkpt lat="28.841862" lon="105.307545"><ele>348.89667</ele><time>2025-12-28T01:43:24.000Z</time></trkpt>
        <trkpt lat="28.841874" lon="105.307486"><ele>348.6784</ele><time>2025-12-28T01:43:29.000Z</time></trkpt>
        <trkpt lat="28.841874" lon="105.307429"><ele>348.88763</ele><time>2025-12-28T01:43:34.000Z</time></trkpt>
        <trkpt lat="28.841877" lon="105.307366"><ele>349.2912</ele><time>2025-12-28T01:43:39.000Z</time></trkpt>
        <trkpt lat="28.841874" lon="105.307304"><ele>349.69608</ele><time>2025-12-28T01:43:44.000Z</time></trkpt>
        <trkpt lat="28.841867" lon="105.307254"><ele>350.23544</ele><time>2025-12-28T01:43:48.000Z</time></trkpt>
        <trkpt lat="28.841862" lon="105.307198"><ele>350.47507</ele><time>2025-12-28T01:43:53.000Z</time></trkpt>
        <trkpt lat="28.841893" lon="105.307155"><ele>350.10004</ele><time>2025-12-28T01:44:17.000Z</time></trkpt>
        <trkpt lat="28.84189" lon="105.307105"><ele>351.2883</ele><time>2025-12-28T01:45:15.000Z</time></trkpt>
        <trkpt lat="28.841878" lon="105.307051"><ele>348.95944</ele><time>2025-12-28T01:45:24.000Z</time></trkpt>
        <trkpt lat="28.841844" lon="105.307012"><ele>349.51022</ele><time>2025-12-28T01:46:01.000Z</time></trkpt>
        <trkpt lat="28.841851" lon="105.306973"><ele>349.73026</ele><time>2025-12-28T01:46:07.000Z</time></trkpt>
        <trkpt lat="28.841852" lon="105.306907"><ele>348.05444</ele><time>2025-12-28T01:46:14.000Z</time></trkpt>
        <trkpt lat="28.841848" lon="105.306846"><ele>348.86365</ele><time>2025-12-28T01:46:21.000Z</time></trkpt>
        <trkpt lat="28.841837" lon="105.306796"><ele>348.84433</ele><time>2025-12-28T01:46:27.000Z</time></trkpt>
        <trkpt lat="28.841833" lon="105.306737"><ele>347.5353</ele><time>2025-12-28T01:46:34.000Z</time></trkpt>
        <trkpt lat="28.841834" lon="105.306677"><ele>347.14465</ele><time>2025-12-28T01:46:40.000Z</time></trkpt>
        <trkpt lat="28.841833" lon="105.306614"><ele>346.69543</ele><time>2025-12-28T01:46:46.000Z</time></trkpt>
        <trkpt lat="28.841846" lon="105.306555"><ele>346.42093</ele><time>2025-12-28T01:46:54.000Z</time></trkpt>
        <trkpt lat="28.841841" lon="105.306502"><ele>346.67883</ele><time>2025-12-28T01:47:00.000Z</time></trkpt>
        <trkpt lat="28.841833" lon="105.306442"><ele>346.9091</ele><time>2025-12-28T01:47:07.000Z</time></trkpt>
        <trkpt lat="28.841839" lon="105.306385"><ele>347.73505</ele><time>2025-12-28T01:47:13.000Z</time></trkpt>
        <trkpt lat="28.841827" lon="105.306332"><ele>347.39642</ele><time>2025-12-28T01:47:18.000Z</time></trkpt>
        <trkpt lat="28.841821" lon="105.306279"><ele>346.91406</ele><time>2025-12-28T01:47:22.000Z</time></trkpt>
        <trkpt lat="28.841822" lon="105.306224"><ele>346.3457</ele><time>2025-12-28T01:47:27.000Z</time></trkpt>
        <trkpt lat="28.841828" lon="105.306165"><ele>345.45038</ele><time>2025-12-28T01:47:32.000Z</time></trkpt>
        <trkpt lat="28.841829" lon="105.306115"><ele>344.4832</ele><time>2025-12-28T01:47:36.000Z</time></trkpt>
        <trkpt lat="28.841831" lon="105.306055"><ele>343.29208</ele><time>2025-12-28T01:47:41.000Z</time></trkpt>
        <trkpt lat="28.841832" lon="105.305993"><ele>341.78784</ele><time>2025-12-28T01:47:46.000Z</time></trkpt>
        <trkpt lat="28.841825" lon="105.305938"><ele>340.64786</ele><time>2025-12-28T01:47:51.000Z</time></trkpt>
        <trkpt lat="28.841812" lon="105.305881"><ele>340.1387</ele><time>2025-12-28T01:47:59.000Z</time></trkpt>
        <trkpt lat="28.841797" lon="105.305831"><ele>338.47183</ele><time>2025-12-28T01:48:12.000Z</time></trkpt>
        <trkpt lat="28.841793" lon="105.305786"><ele>337.4606</ele><time>2025-12-28T01:48:19.000Z</time></trkpt>
        <trkpt lat="28.841793" lon="105.305731"><ele>336.4224</ele><time>2025-12-28T01:48:27.000Z</time></trkpt>
        <trkpt lat="28.841784" lon="105.305678"><ele>334.7068</ele><time>2025-12-28T01:48:34.000Z</time></trkpt>
        <trkpt lat="28.841785" lon="105.305628"><ele>333.84067</ele><time>2025-12-28T01:48:39.000Z</time></trkpt>
        <trkpt lat="28.841785" lon="105.305576"><ele>332.81107</ele><time>2025-12-28T01:48:44.000Z</time></trkpt>
        <trkpt lat="28.841791" lon="105.305515"><ele>332.23773</ele><time>2025-12-28T01:48:50.000Z</time></trkpt>
        <trkpt lat="28.841792" lon="105.305464"><ele>331.72885</ele><time>2025-12-28T01:48:55.000Z</time></trkpt>
        <trkpt lat="28.841789" lon="105.305407"><ele>331.1234</ele><time>2025-12-28T01:49:01.000Z</time></trkpt>
        <trkpt lat="28.841787" lon="105.305358"><ele>330.9863</ele><time>2025-12-28T01:49:06.000Z</time></trkpt>
        <trkpt lat="28.841784" lon="105.305299"><ele>330.38702</ele><time>2025-12-28T01:49:12.000Z</time></trkpt>
        <trkpt lat="28.841778" lon="105.305244"><ele>329.7498</ele><time>2025-12-28T01:49:18.000Z</time></trkpt>
        <trkpt lat="28.841777" lon="105.305182"><ele>330.77228</ele><time>2025-12-28T01:49:24.000Z</time></trkpt>
        <trkpt lat="28.841778" lon="105.305121"><ele>330.88104</ele><time>2025-12-28T01:49:30.000Z</time></trkpt>
        <trkpt lat="28.841775" lon="105.305063"><ele>331.38614</ele><time>2025-12-28T01:49:36.000Z</time></trkpt>
        <trkpt lat="28.841775" lon="105.305004"><ele>331.79437</ele><time>2025-12-28T01:49:42.000Z</time></trkpt>
        <trkpt lat="28.841776" lon="105.304952"><ele>332.07758</ele><time>2025-12-28T01:49:47.000Z</time></trkpt>
        <trkpt lat="28.841775" lon="105.304895"><ele>331.99713</ele><time>2025-12-28T01:49:52.000Z</time></trkpt>
        <trkpt lat="28.841762" lon="105.304835"><ele>331.66656</ele><time>2025-12-28T01:49:57.000Z</time></trkpt>
        <trkpt lat="28.841759" lon="105.304769"><ele>332.1399</ele><time>2025-12-28T01:50:03.000Z</time></trkpt>
        <trkpt lat="28.841759" lon="105.304718"><ele>332.23264</ele><time>2025-12-28T01:50:07.000Z</time></trkpt>
        <trkpt lat="28.841757" lon="105.304657"><ele>332.35373</ele><time>2025-12-28T01:50:12.000Z</time></trkpt>
        <trkpt lat="28.841756" lon="105.304595"><ele>332.3033</ele><time>2025-12-28T01:50:17.000Z</time></trkpt>
        <trkpt lat="28.841756" lon="105.304545"><ele>332.78616</ele><time>2025-12-28T01:50:21.000Z</time></trkpt>
        <trkpt lat="28.841756" lon="105.304486"><ele>333.021</ele><time>2025-12-28T01:50:26.000Z</time></trkpt>
        <trkpt lat="28.841753" lon="105.304433"><ele>333.6956</ele><time>2025-12-28T01:50:30.000Z</time></trkpt>
        <trkpt lat="28.841748" lon="105.304372"><ele>333.7439</ele><time>2025-12-28T01:50:35.000Z</time></trkpt>
        <trkpt lat="28.841741" lon="105.304311"><ele>333.55115</ele><time>2025-12-28T01:50:40.000Z</time></trkpt>
        <trkpt lat="28.841738" lon="105.304253"><ele>332.77673</ele><time>2025-12-28T01:50:44.000Z</time></trkpt>
        <trkpt lat="28.84173" lon="105.304196"><ele>332.1138</ele><time>2025-12-28T01:50:48.000Z</time></trkpt>
        <trkpt lat="28.841726" lon="105.304141"><ele>332.0013</ele><time>2025-12-28T01:50:52.000Z</time></trkpt>
        <trkpt lat="28.841721" lon="105.304087"><ele>331.9244</ele><time>2025-12-28T01:50:56.000Z</time></trkpt>
        <trkpt lat="28.841719" lon="105.304026"><ele>332.54343</ele><time>2025-12-28T01:51:01.000Z</time></trkpt>
        <trkpt lat="28.84171" lon="105.303972"><ele>333.02676</ele><time>2025-12-28T01:51:05.000Z</time></trkpt>
        <trkpt lat="28.841705" lon="105.303915"><ele>332.9903</ele><time>2025-12-28T01:51:09.000Z</time></trkpt>
        <trkpt lat="28.841703" lon="105.303849"><ele>333.0586</ele><time>2025-12-28T01:51:14.000Z</time></trkpt>
        <trkpt lat="28.84171" lon="105.30379"><ele>333.09402</ele><time>2025-12-28T01:51:19.000Z</time></trkpt>
        <trkpt lat="28.841707" lon="105.303738"><ele>332.56662</ele><time>2025-12-28T01:51:23.000Z</time></trkpt>
        <trkpt lat="28.841707" lon="105.303684"><ele>332.03464</ele><time>2025-12-28T01:51:26.000Z</time></trkpt>
        <trkpt lat="28.841705" lon="105.30362"><ele>331.1321</ele><time>2025-12-28T01:51:31.000Z</time></trkpt>
        <trkpt lat="28.841702" lon="105.303555"><ele>330.3276</ele><time>2025-12-28T01:51:38.000Z</time></trkpt>
        <trkpt lat="28.841696" lon="105.3035"><ele>330.14536</ele><time>2025-12-28T01:51:43.000Z</time></trkpt>
        <trkpt lat="28.841694" lon="105.303451"><ele>329.40417</ele><time>2025-12-28T01:51:47.000Z</time></trkpt>
        <trkpt lat="28.841686" lon="105.303392"><ele>329.51794</ele><time>2025-12-28T01:51:52.000Z</time></trkpt>
        <trkpt lat="28.841676" lon="105.303334"><ele>329.89767</ele><time>2025-12-28T01:51:57.000Z</time></trkpt>
        <trkpt lat="28.841671" lon="105.30328"><ele>330.542</ele><time>2025-12-28T01:52:02.000Z</time></trkpt>
        <trkpt lat="28.841671" lon="105.303227"><ele>330.18048</ele><time>2025-12-28T01:52:07.000Z</time></trkpt>
        <trkpt lat="28.841666" lon="105.303176"><ele>330.51642</ele><time>2025-12-28T01:52:12.000Z</time></trkpt>
        <trkpt lat="28.84164" lon="105.303128"><ele>332.15866</ele><time>2025-12-28T01:52:19.000Z</time></trkpt>
        <trkpt lat="28.841627" lon="105.303076"><ele>334.2057</ele><time>2025-12-28T01:52:51.000Z</time></trkpt>
        <trkpt lat="28.841639" lon="105.303019"><ele>333.82806</ele><time>2025-12-28T01:53:10.000Z</time></trkpt>
        <trkpt lat="28.841629" lon="105.302977"><ele>333.91342</ele><time>2025-12-28T01:53:14.000Z</time></trkpt>
        <trkpt lat="28.841618" lon="105.302926"><ele>333.87115</ele><time>2025-12-28T01:53:18.000Z</time></trkpt>
        <trkpt lat="28.841588" lon="105.302868"><ele>333.36002</ele><time>2025-12-28T01:53:25.000Z</time></trkpt>
        <trkpt lat="28.841569" lon="105.302818"><ele>333.2205</ele><time>2025-12-28T01:53:33.000Z</time></trkpt>
        <trkpt lat="28.841554" lon="105.302768"><ele>333.1695</ele><time>2025-12-28T01:53:39.000Z</time></trkpt>
        <trkpt lat="28.841538" lon="105.302715"><ele>332.9016</ele><time>2025-12-28T01:53:44.000Z</time></trkpt>
        <trkpt lat="28.841525" lon="105.302661"><ele>332.89362</ele><time>2025-12-28T01:53:49.000Z</time></trkpt>
        <trkpt lat="28.841515" lon="105.302602"><ele>332.87442</ele><time>2025-12-28T01:53:55.000Z</time></trkpt>
        <trkpt lat="28.841504" lon="105.302548"><ele>333.0428</ele><time>2025-12-28T01:54:00.000Z</time></trkpt>
        <trkpt lat="28.841495" lon="105.302484"><ele>332.76776</ele><time>2025-12-28T01:54:06.000Z</time></trkpt>
        <trkpt lat="28.841477" lon="105.302438"><ele>332.8017</ele><time>2025-12-28T01:54:10.000Z</time></trkpt>
        <trkpt lat="28.841459" lon="105.302388"><ele>333.53223</ele><time>2025-12-28T01:54:14.000Z</time></trkpt>
        <trkpt lat="28.841445" lon="105.302328"><ele>333.98117</ele><time>2025-12-28T01:54:19.000Z</time></trkpt>
        <trkpt lat="28.84143" lon="105.302268"><ele>334.2172</ele><time>2025-12-28T01:54:24.000Z</time></trkpt>
        <trkpt lat="28.841418" lon="105.30221"><ele>334.38828</ele><time>2025-12-28T01:54:29.000Z</time></trkpt>
        <trkpt lat="28.841432" lon="105.302162"><ele>334.4427</ele><time>2025-12-28T01:54:34.000Z</time></trkpt>
        <trkpt lat="28.841437" lon="105.30211"><ele>334.69434</ele><time>2025-12-28T01:54:39.000Z</time></trkpt>
        <trkpt lat="28.841429" lon="105.302057"><ele>334.0056</ele><time>2025-12-28T01:54:44.000Z</time></trkpt>
        <trkpt lat="28.841417" lon="105.302004"><ele>333.18286</ele><time>2025-12-28T01:54:49.000Z</time></trkpt>
        <trkpt lat="28.841406" lon="105.301951"><ele>332.80203</ele><time>2025-12-28T01:54:54.000Z</time></trkpt>
        <trkpt lat="28.841392" lon="105.301904"><ele>332.03964</ele><time>2025-12-28T01:54:58.000Z</time></trkpt>
        <trkpt lat="28.841384" lon="105.301853"><ele>331.39365</ele><time>2025-12-28T01:55:02.000Z</time></trkpt>
        <trkpt lat="28.841366" lon="105.301794"><ele>330.9614</ele><time>2025-12-28T01:55:07.000Z</time></trkpt>
        <trkpt lat="28.841349" lon="105.301737"><ele>331.01855</ele><time>2025-12-28T01:55:12.000Z</time></trkpt>
        <trkpt lat="28.841336" lon="105.301679"><ele>330.8214</ele><time>2025-12-28T01:55:17.000Z</time></trkpt>
        <trkpt lat="28.841324" lon="105.301626"><ele>330.38602</ele><time>2025-12-28T01:55:22.000Z</time></trkpt>
        <trkpt lat="28.841316" lon="105.301577"><ele>329.73996</ele><time>2025-12-28T01:55:26.000Z</time></trkpt>
        <trkpt lat="28.841303" lon="105.301517"><ele>329.44083</ele><time>2025-12-28T01:55:31.000Z</time></trkpt>
        <trkpt lat="28.841289" lon="105.301458"><ele>329.564</ele><time>2025-12-28T01:55:36.000Z</time></trkpt>
        <trkpt lat="28.841276" lon="105.301392"><ele>330.1544</ele><time>2025-12-28T01:55:46.000Z</time></trkpt>
        <trkpt lat="28.841266" lon="105.301343"><ele>330.35745</ele><time>2025-12-28T01:55:51.000Z</time></trkpt>
        <trkpt lat="28.84125" lon="105.301288"><ele>330.32196</ele><time>2025-12-28T01:55:56.000Z</time></trkpt>
        <trkpt lat="28.841234" lon="105.301239"><ele>330.12604</ele><time>2025-12-28T01:56:00.000Z</time></trkpt>
        <trkpt lat="28.841215" lon="105.301181"><ele>329.47238</ele><time>2025-12-28T01:56:05.000Z</time></trkpt>
        <trkpt lat="28.841195" lon="105.301124"><ele>329.4556</ele><time>2025-12-28T01:56:13.000Z</time></trkpt>
        <trkpt lat="28.841186" lon="105.30107"><ele>329.669</ele><time>2025-12-28T01:56:20.000Z</time></trkpt>
        <trkpt lat="28.841178" lon="105.301019"><ele>329.50824</ele><time>2025-12-28T01:56:25.000Z</time></trkpt>
        <trkpt lat="28.841148" lon="105.300973"><ele>329.35098</ele><time>2025-12-28T01:56:31.000Z</time></trkpt>
        <trkpt lat="28.841129" lon="105.300921"><ele>328.94452</ele><time>2025-12-28T01:56:36.000Z</time></trkpt>
        <trkpt lat="28.841112" lon="105.300869"><ele>327.8799</ele><time>2025-12-28T01:56:41.000Z</time></trkpt>
        <trkpt lat="28.841104" lon="105.300809"><ele>327.5493</ele><time>2025-12-28T01:56:46.000Z</time></trkpt>
        <trkpt lat="28.841093" lon="105.300742"><ele>327.54797</ele><time>2025-12-28T01:56:56.000Z</time></trkpt>
        <trkpt lat="28.841071" lon="105.300687"><ele>327.51974</ele><time>2025-12-28T01:57:09.000Z</time></trkpt>
        <trkpt lat="28.841072" lon="105.30064"><ele>327.46878</ele><time>2025-12-28T01:57:13.000Z</time></trkpt>
        <trkpt lat="28.84106" lon="105.300583"><ele>327.95538</ele><time>2025-12-28T01:57:17.000Z</time></trkpt>
        <trkpt lat="28.841046" lon="105.300526"><ele>327.94907</ele><time>2025-12-28T01:57:21.000Z</time></trkpt>
        <trkpt lat="28.841032" lon="105.300471"><ele>327.60965</ele><time>2025-12-28T01:57:25.000Z</time></trkpt>
        <trkpt lat="28.841027" lon="105.300408"><ele>327.09</ele><time>2025-12-28T01:57:30.000Z</time></trkpt>
        <trkpt lat="28.841029" lon="105.300355"><ele>327.04196</ele><time>2025-12-28T01:57:34.000Z</time></trkpt>
        <trkpt lat="28.841026" lon="105.300302"><ele>327.62622</ele><time>2025-12-28T01:57:38.000Z</time></trkpt>
        <trkpt lat="28.841016" lon="105.300242"><ele>327.53107</ele><time>2025-12-28T01:57:43.000Z</time></trkpt>
        <trkpt lat="28.841005" lon="105.300192"><ele>327.84787</ele><time>2025-12-28T01:57:47.000Z</time></trkpt>
        <trkpt lat="28.840983" lon="105.300136"><ele>328.0551</ele><time>2025-12-28T01:57:54.000Z</time></trkpt>
        <trkpt lat="28.840965" lon="105.300088"><ele>326.7938</ele><time>2025-12-28T01:59:21.000Z</time></trkpt>
        <trkpt lat="28.840956" lon="105.300064"><ele>326.82684</ele><time>2025-12-28T01:59:22.000Z</time></trkpt>
        <trkpt lat="28.840943" lon="105.300033"><ele>326.7883</ele><time>2025-12-28T01:59:23.000Z</time></trkpt>
        <trkpt lat="28.840925" lon="105.29999"><ele>326.71582</ele><time>2025-12-28T01:59:24.000Z</time></trkpt>
        <trkpt lat="28.840904" lon="105.299934"><ele>326.5813</ele><time>2025-12-28T01:59:25.000Z</time></trkpt>
        <trkpt lat="28.840879" lon="105.299863"><ele>326.449</ele><time>2025-12-28T01:59:26.000Z</time></trkpt>
        <trkpt lat="28.840851" lon="105.29978"><ele>326.3301</ele><time>2025-12-28T01:59:27.000Z</time></trkpt>
        <trkpt lat="28.84082" lon="105.29969"><ele>326.2723</ele><time>2025-12-28T01:59:28.000Z</time></trkpt>
        <trkpt lat="28.84079" lon="105.299596"><ele>326.13196</ele><time>2025-12-28T01:59:29.000Z</time></trkpt>
        <trkpt lat="28.840762" lon="105.299505"><ele>325.81384</ele><time>2025-12-28T01:59:30.000Z</time></trkpt>
        <trkpt lat="28.840738" lon="105.299419"><ele>325.50226</ele><time>2025-12-28T01:59:31.000Z</time></trkpt>
        <trkpt lat="28.840701" lon="105.299287"><ele>325.12424</ele><time>2025-12-28T01:59:33.000Z</time></trkpt>
        <trkpt lat="28.840671" lon="105.299169"><ele>325.0533</ele><time>2025-12-28T01:59:35.000Z</time></trkpt>
        <trkpt lat="28.840658" lon="105.299111"><ele>325.14618</ele><time>2025-12-28T01:59:36.000Z</time></trkpt>
        <trkpt lat="28.840646" lon="105.299056"><ele>325.089</ele><time>2025-12-28T01:59:37.000Z</time></trkpt>
        <trkpt lat="28.84062" lon="105.298958"><ele>325.136</ele><time>2025-12-28T01:59:39.000Z</time></trkpt>
        <trkpt lat="28.8406" lon="105.29888"><ele>325.25262</ele><time>2025-12-28T01:59:41.000Z</time></trkpt>
        <trkpt lat="28.840573" lon="105.298774"><ele>326.61374</ele><time>2025-12-28T01:59:49.000Z</time></trkpt>
        <trkpt lat="28.840562" lon="105.298755"><ele>327.62155</ele><time>2025-12-28T01:59:50.000Z</time></trkpt>
        <trkpt lat="28.84055" lon="105.298728"><ele>327.83255</ele><time>2025-12-28T01:59:51.000Z</time></trkpt>
        <trkpt lat="28.840534" lon="105.298694"><ele>327.94794</ele><time>2025-12-28T01:59:52.000Z</time></trkpt>
        <trkpt lat="28.840511" lon="105.298657"><ele>327.99298</ele><time>2025-12-28T01:59:53.000Z</time></trkpt>
        <trkpt lat="28.840482" lon="105.298621"><ele>328.08142</ele><time>2025-12-28T01:59:54.000Z</time></trkpt>
        <trkpt lat="28.840446" lon="105.298593"><ele>328.24548</ele><time>2025-12-28T01:59:55.000Z</time></trkpt>
        <trkpt lat="28.840377" lon="105.298562"><ele>328.59998</ele><time>2025-12-28T01:59:57.000Z</time></trkpt>
        <trkpt lat="28.840291" lon="105.298544"><ele>329.0141</ele><time>2025-12-28T02:00:00.000Z</time></trkpt>
        <trkpt lat="28.840204" lon="105.29851"><ele>329.25928</ele><time>2025-12-28T02:00:02.000Z</time></trkpt>
        <trkpt lat="28.840157" lon="105.298479"><ele>329.25217</ele><time>2025-12-28T02:00:03.000Z</time></trkpt>
        <trkpt lat="28.840118" lon="105.298439"><ele>328.9879</ele><time>2025-12-28T02:00:04.000Z</time></trkpt>
        <trkpt lat="28.840087" lon="105.298388"><ele>328.71286</ele><time>2025-12-28T02:00:05.000Z</time></trkpt>
        <trkpt lat="28.840063" lon="105.298325"><ele>328.29022</ele><time>2025-12-28T02:00:06.000Z</time></trkpt>
        <trkpt lat="28.840048" lon="105.298253"><ele>327.92184</ele><time>2025-12-28T02:00:07.000Z</time></trkpt>
        <trkpt lat="28.840042" lon="105.298173"><ele>327.55566</ele><time>2025-12-28T02:00:08.000Z</time></trkpt>
        <trkpt lat="28.840047" lon="105.298086"><ele>327.2352</ele><time>2025-12-28T02:00:09.000Z</time></trkpt>
        <trkpt lat="28.840059" lon="105.297995"><ele>326.93933</ele><time>2025-12-28T02:00:10.000Z</time></trkpt>
        <trkpt lat="28.840076" lon="105.297902"><ele>326.68527</ele><time>2025-12-28T02:00:11.000Z</time></trkpt>
        <trkpt lat="28.84009" lon="105.297807"><ele>326.6487</ele><time>2025-12-28T02:00:12.000Z</time></trkpt>
        <trkpt lat="28.840099" lon="105.297713"><ele>326.57477</ele><time>2025-12-28T02:00:13.000Z</time></trkpt>
        <trkpt lat="28.840097" lon="105.297618"><ele>326.44623</ele><time>2025-12-28T02:00:14.000Z</time></trkpt>
        <trkpt lat="28.840083" lon="105.297525"><ele>326.35864</ele><time>2025-12-28T02:00:15.000Z</time></trkpt>
        <trkpt lat="28.840058" lon="105.297435"><ele>326.20984</ele><time>2025-12-28T02:00:16.000Z</time></trkpt>
        <trkpt lat="28.840025" lon="105.297345"><ele>326.05518</ele><time>2025-12-28T02:00:17.000Z</time></trkpt>
        <trkpt lat="28.839987" lon="105.297255"><ele>325.9326</ele><time>2025-12-28T02:00:18.000Z</time></trkpt>
        <trkpt lat="28.839947" lon="105.297163"><ele>325.73285</ele><time>2025-12-28T02:00:19.000Z</time></trkpt>
        <trkpt lat="28.839907" lon="105.29707"><ele>325.6893</ele><time>2025-12-28T02:00:20.000Z</time></trkpt>
        <trkpt lat="28.839869" lon="105.296975"><ele>325.6324</ele><time>2025-12-28T02:00:21.000Z</time></trkpt>
        <trkpt lat="28.839832" lon="105.296878"><ele>325.41714</ele><time>2025-12-28T02:00:22.000Z</time></trkpt>
        <trkpt lat="28.839798" lon="105.296779"><ele>325.09967</ele><time>2025-12-28T02:00:23.000Z</time></trkpt>
        <trkpt lat="28.839766" lon="105.296679"><ele>324.68997</ele><time>2025-12-28T02:00:24.000Z</time></trkpt>
        <trkpt lat="28.839735" lon="105.296577"><ele>324.44363</ele><time>2025-12-28T02:00:25.000Z</time></trkpt>
        <trkpt lat="28.839703" lon="105.296475"><ele>324.2774</ele><time>2025-12-28T02:00:26.000Z</time></trkpt>
        <trkpt lat="28.83967" lon="105.296372"><ele>324.06534</ele><time>2025-12-28T02:00:27.000Z</time></trkpt>
        <trkpt lat="28.839636" lon="105.29627"><ele>323.8507</ele><time>2025-12-28T02:00:28.000Z</time></trkpt>
        <trkpt lat="28.839605" lon="105.296168"><ele>323.69193</ele><time>2025-12-28T02:00:29.000Z</time></trkpt>
        <trkpt lat="28.839577" lon="105.296065"><ele>323.6631</ele><time>2025-12-28T02:00:30.000Z</time></trkpt>
        <trkpt lat="28.839555" lon="105.295962"><ele>323.72104</ele><time>2025-12-28T02:00:31.000Z</time></trkpt>
        <trkpt lat="28.839539" lon="105.295858"><ele>323.7933</ele><time>2025-12-28T02:00:32.000Z</time></trkpt>
        <trkpt lat="28.839532" lon="105.295753"><ele>323.8497</ele><time>2025-12-28T02:00:33.000Z</time></trkpt>
        <trkpt lat="28.83953" lon="105.29565"><ele>323.865</ele><time>2025-12-28T02:00:34.000Z</time></trkpt>
        <trkpt lat="28.839532" lon="105.295548"><ele>323.8205</ele><time>2025-12-28T02:00:35.000Z</time></trkpt>
        <trkpt lat="28.839534" lon="105.295445"><ele>324.00546</ele><time>2025-12-28T02:00:36.000Z</time></trkpt>
        <trkpt lat="28.839537" lon="105.295341"><ele>324.1487</ele><time>2025-12-28T02:00:37.000Z</time></trkpt>
        <trkpt lat="28.839541" lon="105.295238"><ele>324.36868</ele><time>2025-12-28T02:00:38.000Z</time></trkpt>
        <trkpt lat="28.839549" lon="105.295134"><ele>324.46704</ele><time>2025-12-28T02:00:39.000Z</time></trkpt>
        <trkpt lat="28.83956" lon="105.29503"><ele>324.57617</ele><time>2025-12-28T02:00:40.000Z</time></trkpt>
        <trkpt lat="28.839576" lon="105.294924"><ele>324.6813</ele><time>2025-12-28T02:00:41.000Z</time></trkpt>
        <trkpt lat="28.839596" lon="105.294819"><ele>324.79633</ele><time>2025-12-28T02:00:42.000Z</time></trkpt>
        <trkpt lat="28.839624" lon="105.294714"><ele>324.89832</ele><time>2025-12-28T02:00:43.000Z</time></trkpt>
        <trkpt lat="28.839658" lon="105.294613"><ele>325.0236</ele><time>2025-12-28T02:00:44.000Z</time></trkpt>
        <trkpt lat="28.839701" lon="105.294516"><ele>325.11243</ele><time>2025-12-28T02:00:45.000Z</time></trkpt>
        <trkpt lat="28.839751" lon="105.294425"><ele>325.29785</ele><time>2025-12-28T02:00:46.000Z</time></trkpt>
        <trkpt lat="28.839807" lon="105.294337"><ele>325.526</ele><time>2025-12-28T02:00:47.000Z</time></trkpt>
        <trkpt lat="28.839866" lon="105.294252"><ele>325.77505</ele><time>2025-12-28T02:00:48.000Z</time></trkpt>
        <trkpt lat="28.839926" lon="105.294171"><ele>326.18375</ele><time>2025-12-28T02:00:49.000Z</time></trkpt>
        <trkpt lat="28.839985" lon="105.294091"><ele>326.62946</ele><time>2025-12-28T02:00:50.000Z</time></trkpt>
        <trkpt lat="28.840039" lon="105.294013"><ele>326.91934</ele><time>2025-12-28T02:00:51.000Z</time></trkpt>
        <trkpt lat="28.840084" lon="105.293935"><ele>327.1864</ele><time>2025-12-28T02:00:52.000Z</time></trkpt>
        <trkpt lat="28.840118" lon="105.29386"><ele>327.42023</ele><time>2025-12-28T02:00:53.000Z</time></trkpt>
        <trkpt lat="28.840142" lon="105.293788"><ele>327.5697</ele><time>2025-12-28T02:00:54.000Z</time></trkpt>
        <trkpt lat="28.840158" lon="105.293718"><ele>327.68533</ele><time>2025-12-28T02:00:55.000Z</time></trkpt>
        <trkpt lat="28.840164" lon="105.293648"><ele>327.85226</ele><time>2025-12-28T02:00:56.000Z</time></trkpt>
        <trkpt lat="28.840159" lon="105.293578"><ele>328.0436</ele><time>2025-12-28T02:00:57.000Z</time></trkpt>
        <trkpt lat="28.840143" lon="105.293509"><ele>328.4062</ele><time>2025-12-28T02:00:58.000Z</time></trkpt>
        <trkpt lat="28.840113" lon="105.293441"><ele>328.97278</ele><time>2025-12-28T02:00:59.000Z</time></trkpt>
        <trkpt lat="28.840072" lon="105.293375"><ele>329.69092</ele><time>2025-12-28T02:01:00.000Z</time></trkpt>
        <trkpt lat="28.840024" lon="105.293309"><ele>330.34122</ele><time>2025-12-28T02:01:01.000Z</time></trkpt>
        <trkpt lat="28.83997" lon="105.293242"><ele>331.01312</ele><time>2025-12-28T02:01:02.000Z</time></trkpt>
        <trkpt lat="28.839914" lon="105.293177"><ele>331.5748</ele><time>2025-12-28T02:01:03.000Z</time></trkpt>
        <trkpt lat="28.839861" lon="105.293114"><ele>332.03903</ele><time>2025-12-28T02:01:04.000Z</time></trkpt>
        <trkpt lat="28.839812" lon="105.293053"><ele>332.43057</ele><time>2025-12-28T02:01:05.000Z</time></trkpt>
        <trkpt lat="28.839767" lon="105.292995"><ele>332.68658</ele><time>2025-12-28T02:01:05.000Z</time></trkpt>
        <trkpt lat="28.839724" lon="105.29294"><ele>332.8665</ele><time>2025-12-28T02:01:06.000Z</time></trkpt>
        <trkpt lat="28.83968" lon="105.292887"><ele>332.94266</ele><time>2025-12-28T02:01:07.000Z</time></trkpt>
        <trkpt lat="28.839637" lon="105.292838"><ele>332.9351</ele><time>2025-12-28T02:01:08.000Z</time></trkpt>
        <trkpt lat="28.839592" lon="105.292791"><ele>332.80768</ele><time>2025-12-28T02:01:09.000Z</time></trkpt>
        <trkpt lat="28.839542" lon="105.292745"><ele>332.59668</ele><time>2025-12-28T02:01:10.000Z</time></trkpt>
        <trkpt lat="28.839488" lon="105.292703"><ele>332.19406</ele><time>2025-12-28T02:01:11.000Z</time></trkpt>
        <trkpt lat="28.83943" lon="105.292664"><ele>331.61774</ele><time>2025-12-28T02:01:12.000Z</time></trkpt>
        <trkpt lat="28.839364" lon="105.292628"><ele>330.9157</ele><time>2025-12-28T02:01:13.000Z</time></trkpt>
        <trkpt lat="28.839292" lon="105.292597"><ele>330.11838</ele><time>2025-12-28T02:01:14.000Z</time></trkpt>
        <trkpt lat="28.839214" lon="105.292567"><ele>329.3226</ele><time>2025-12-28T02:01:15.000Z</time></trkpt>
        <trkpt lat="28.839131" lon="105.292539"><ele>328.49484</ele><time>2025-12-28T02:01:16.000Z</time></trkpt>
        <trkpt lat="28.839044" lon="105.292514"><ele>327.7165</ele><time>2025-12-28T02:01:17.000Z</time></trkpt>
        <trkpt lat="28.838953" lon="105.292492"><ele>326.99146</ele><time>2025-12-28T02:01:18.000Z</time></trkpt>
        <trkpt lat="28.838858" lon="105.292476"><ele>326.24982</ele><time>2025-12-28T02:01:19.000Z</time></trkpt>
        <trkpt lat="28.838761" lon="105.292465"><ele>325.55075</ele><time>2025-12-28T02:01:20.000Z</time></trkpt>
        <trkpt lat="28.838663" lon="105.292462"><ele>324.85147</ele><time>2025-12-28T02:01:21.000Z</time></trkpt>
        <trkpt lat="28.838564" lon="105.292466"><ele>324.3146</ele><time>2025-12-28T02:01:22.000Z</time></trkpt>
        <trkpt lat="28.838468" lon="105.292476"><ele>323.9138</ele><time>2025-12-28T02:01:23.000Z</time></trkpt>
        <trkpt lat="28.838373" lon="105.292484"><ele>323.56683</ele><time>2025-12-28T02:01:24.000Z</time></trkpt>
        <trkpt lat="28.838284" lon="105.292486"><ele>323.32117</ele><time>2025-12-28T02:01:25.000Z</time></trkpt>
        <trkpt lat="28.838201" lon="105.292477"><ele>323.11542</ele><time>2025-12-28T02:01:26.000Z</time></trkpt>
        <trkpt lat="28.838124" lon="105.292456"><ele>323.10458</ele><time>2025-12-28T02:01:27.000Z</time></trkpt>
        <trkpt lat="28.838051" lon="105.292424"><ele>323.19205</ele><time>2025-12-28T02:01:28.000Z</time></trkpt>
        <trkpt lat="28.837982" lon="105.292385"><ele>323.32254</ele><time>2025-12-28T02:01:29.000Z</time></trkpt>
        <trkpt lat="28.837914" lon="105.292341"><ele>323.4235</ele><time>2025-12-28T02:01:30.000Z</time></trkpt>
        <trkpt lat="28.837845" lon="105.292296"><ele>323.4739</ele><time>2025-12-28T02:01:31.000Z</time></trkpt>
        <trkpt lat="28.837773" lon="105.292253"><ele>323.50363</ele><time>2025-12-28T02:01:32.000Z</time></trkpt>
        <trkpt lat="28.837698" lon="105.292213"><ele>323.4975</ele><time>2025-12-28T02:01:33.000Z</time></trkpt>
        <trkpt lat="28.837621" lon="105.29218"><ele>323.5002</ele><time>2025-12-28T02:01:34.000Z</time></trkpt>
        <trkpt lat="28.83754" lon="105.292154"><ele>323.47278</ele><time>2025-12-28T02:01:35.000Z</time></trkpt>
        <trkpt lat="28.837456" lon="105.292131"><ele>323.40033</ele><time>2025-12-28T02:01:36.000Z</time></trkpt>
        <trkpt lat="28.83737" lon="105.292106"><ele>323.27243</ele><time>2025-12-28T02:01:37.000Z</time></trkpt>
        <trkpt lat="28.837283" lon="105.292074"><ele>323.1196</ele><time>2025-12-28T02:01:38.000Z</time></trkpt>
        <trkpt lat="28.837198" lon="105.292034"><ele>322.99545</ele><time>2025-12-28T02:01:39.000Z</time></trkpt>
        <trkpt lat="28.837112" lon="105.291988"><ele>322.94614</ele><time>2025-12-28T02:01:40.000Z</time></trkpt>
        <trkpt lat="28.837026" lon="105.291936"><ele>322.91006</ele><time>2025-12-28T02:01:41.000Z</time></trkpt>
        <trkpt lat="28.83694" lon="105.291882"><ele>322.91165</ele><time>2025-12-28T02:01:42.000Z</time></trkpt>
        <trkpt lat="28.836853" lon="105.291827"><ele>322.8751</ele><time>2025-12-28T02:01:43.000Z</time></trkpt>
        <trkpt lat="28.836767" lon="105.291773"><ele>322.79486</ele><time>2025-12-28T02:01:44.000Z</time></trkpt>
        <trkpt lat="28.836684" lon="105.29172"><ele>322.76987</ele><time>2025-12-28T02:01:45.000Z</time></trkpt>
        <trkpt lat="28.836608" lon="105.291667"><ele>322.7091</ele><time>2025-12-28T02:01:46.000Z</time></trkpt>
        <trkpt lat="28.836544" lon="105.291609"><ele>322.62424</ele><time>2025-12-28T02:01:47.000Z</time></trkpt>
        <trkpt lat="28.836494" lon="105.291547"><ele>322.57162</ele><time>2025-12-28T02:01:48.000Z</time></trkpt>
        <trkpt lat="28.83646" lon="105.291477"><ele>322.55807</ele><time>2025-12-28T02:01:49.000Z</time></trkpt>
        <trkpt lat="28.836441" lon="105.2914"><ele>322.6496</ele><time>2025-12-28T02:01:50.000Z</time></trkpt>
        <trkpt lat="28.836438" lon="105.291314"><ele>322.7357</ele><time>2025-12-28T02:01:51.000Z</time></trkpt>
        <trkpt lat="28.836446" lon="105.29122"><ele>322.73727</ele><time>2025-12-28T02:01:52.000Z</time></trkpt>
        <trkpt lat="28.836463" lon="105.291119"><ele>322.71243</ele><time>2025-12-28T02:01:53.000Z</time></trkpt>
        <trkpt lat="28.836484" lon="105.291012"><ele>322.70688</ele><time>2025-12-28T02:01:54.000Z</time></trkpt>
        <trkpt lat="28.836507" lon="105.2909"><ele>322.74173</ele><time>2025-12-28T02:01:55.000Z</time></trkpt>
        <trkpt lat="28.836531" lon="105.290787"><ele>322.8982</ele><time>2025-12-28T02:01:56.000Z</time></trkpt>
        <trkpt lat="28.836556" lon="105.290678"><ele>323.1198</ele><time>2025-12-28T02:01:57.000Z</time></trkpt>
        <trkpt lat="28.836579" lon="105.290575"><ele>323.2376</ele><time>2025-12-28T02:01:58.000Z</time></trkpt>
        <trkpt lat="28.836594" lon="105.290483"><ele>323.3079</ele><time>2025-12-28T02:01:59.000Z</time></trkpt>
        <trkpt lat="28.836597" lon="105.290401"><ele>323.38336</ele><time>2025-12-28T02:02:00.000Z</time></trkpt>
        <trkpt lat="28.836587" lon="105.290332"><ele>323.53223</ele><time>2025-12-28T02:02:01.000Z</time></trkpt>
        <trkpt lat="28.836562" lon="105.290279"><ele>323.6302</ele><time>2025-12-28T02:02:02.000Z</time></trkpt>
        <trkpt lat="28.836525" lon="105.290242"><ele>323.79276</ele><time>2025-12-28T02:02:03.000Z</time></trkpt>
        <trkpt lat="28.836475" lon="105.29022"><ele>323.93314</ele><time>2025-12-28T02:02:04.000Z</time></trkpt>
        <trkpt lat="28.836415" lon="105.290211"><ele>324.09235</ele><time>2025-12-28T02:02:06.000Z</time></trkpt>
        <trkpt lat="28.836344" lon="105.290214"><ele>324.19946</ele><time>2025-12-28T02:02:07.000Z</time></trkpt>
        <trkpt lat="28.836266" lon="105.290224"><ele>324.30637</ele><time>2025-12-28T02:02:08.000Z</time></trkpt>
        <trkpt lat="28.836183" lon="105.290239"><ele>324.4752</ele><time>2025-12-28T02:02:09.000Z</time></trkpt>
        <trkpt lat="28.836099" lon="105.290256"><ele>324.70886</ele><time>2025-12-28T02:02:10.000Z</time></trkpt>
        <trkpt lat="28.836014" lon="105.290273"><ele>324.9391</ele><time>2025-12-28T02:02:11.000Z</time></trkpt>
        <trkpt lat="28.835928" lon="105.29029"><ele>325.17252</ele><time>2025-12-28T02:02:12.000Z</time></trkpt>
        <trkpt lat="28.835845" lon="105.290312"><ele>325.38492</ele><time>2025-12-28T02:02:13.000Z</time></trkpt>
        <trkpt lat="28.835764" lon="105.290342"><ele>325.49756</ele><time>2025-12-28T02:02:14.000Z</time></trkpt>
        <trkpt lat="28.835686" lon="105.290381"><ele>325.46777</ele><time>2025-12-28T02:02:15.000Z</time></trkpt>
        <trkpt lat="28.835609" lon="105.290424"><ele>325.3231</ele><time>2025-12-28T02:02:16.000Z</time></trkpt>
        <trkpt lat="28.835533" lon="105.290468"><ele>325.0517</ele><time>2025-12-28T02:02:17.000Z</time></trkpt>
        <trkpt lat="28.835455" lon="105.29051"><ele>324.5577</ele><time>2025-12-28T02:02:18.000Z</time></trkpt>
        <trkpt lat="28.835374" lon="105.290549"><ele>323.9422</ele><time>2025-12-28T02:02:19.000Z</time></trkpt>
        <trkpt lat="28.83529" lon="105.290584"><ele>323.3297</ele><time>2025-12-28T02:02:20.000Z</time></trkpt>
        <trkpt lat="28.835205" lon="105.290611"><ele>322.7584</ele><time>2025-12-28T02:02:21.000Z</time></trkpt>
        <trkpt lat="28.83512" lon="105.290629"><ele>322.29068</ele><time>2025-12-28T02:02:22.000Z</time></trkpt>
        <trkpt lat="28.835039" lon="105.290635"><ele>321.99637</ele><time>2025-12-28T02:02:23.000Z</time></trkpt>
        <trkpt lat="28.834964" lon="105.290624"><ele>321.83646</ele><time>2025-12-28T02:02:24.000Z</time></trkpt>
        <trkpt lat="28.834896" lon="105.290595"><ele>321.73416</ele><time>2025-12-28T02:02:25.000Z</time></trkpt>
        <trkpt lat="28.834828" lon="105.290557"><ele>321.60904</ele><time>2025-12-28T02:02:26.000Z</time></trkpt>
        <trkpt lat="28.834763" lon="105.29051"><ele>321.5238</ele><time>2025-12-28T02:02:27.000Z</time></trkpt>
        <trkpt lat="28.834705" lon="105.290451"><ele>321.39905</ele><time>2025-12-28T02:02:28.000Z</time></trkpt>
        <trkpt lat="28.834655" lon="105.290379"><ele>321.26907</ele><time>2025-12-28T02:02:29.000Z</time></trkpt>
        <trkpt lat="28.834608" lon="105.2903"><ele>321.15637</ele><time>2025-12-28T02:02:30.000Z</time></trkpt>
        <trkpt lat="28.834564" lon="105.290213"><ele>321.0867</ele><time>2025-12-28T02:02:31.000Z</time></trkpt>
        <trkpt lat="28.834524" lon="105.290122"><ele>321.14972</ele><time>2025-12-28T02:02:32.000Z</time></trkpt>
        <trkpt lat="28.834484" lon="105.29003"><ele>321.3043</ele><time>2025-12-28T02:02:33.000Z</time></trkpt>
        <trkpt lat="28.834443" lon="105.289939"><ele>321.4825</ele><time>2025-12-28T02:02:34.000Z</time></trkpt>
        <trkpt lat="28.834398" lon="105.289855"><ele>321.73523</ele><time>2025-12-28T02:02:35.000Z</time></trkpt>
        <trkpt lat="28.83435" lon="105.289782"><ele>321.92532</ele><time>2025-12-28T02:02:36.000Z</time></trkpt>
        <trkpt lat="28.834297" lon="105.289723"><ele>322.01227</ele><time>2025-12-28T02:02:37.000Z</time></trkpt>
        <trkpt lat="28.834239" lon="105.289683"><ele>322.0511</ele><time>2025-12-28T02:02:38.000Z</time></trkpt>
        <trkpt lat="28.834176" lon="105.28966"><ele>322.0662</ele><time>2025-12-28T02:02:39.000Z</time></trkpt>
        <trkpt lat="28.834105" lon="105.289648"><ele>322.11188</ele><time>2025-12-28T02:02:40.000Z</time></trkpt>
        <trkpt lat="28.834029" lon="105.289646"><ele>322.27216</ele><time>2025-12-28T02:02:41.000Z</time></trkpt>
        <trkpt lat="28.833949" lon="105.289654"><ele>322.50107</ele><time>2025-12-28T02:02:42.000Z</time></trkpt>
        <trkpt lat="28.833867" lon="105.289673"><ele>322.80286</ele><time>2025-12-28T02:02:43.000Z</time></trkpt>
        <trkpt lat="28.833787" lon="105.289701"><ele>323.06354</ele><time>2025-12-28T02:02:44.000Z</time></trkpt>
        <trkpt lat="28.83371" lon="105.289738"><ele>323.21494</ele><time>2025-12-28T02:02:45.000Z</time></trkpt>
        <trkpt lat="28.833637" lon="105.289781"><ele>323.12152</ele><time>2025-12-28T02:02:46.000Z</time></trkpt>
        <trkpt lat="28.833566" lon="105.289828"><ele>322.9485</ele><time>2025-12-28T02:02:47.000Z</time></trkpt>
        <trkpt lat="28.833497" lon="105.289877"><ele>322.71</ele><time>2025-12-28T02:02:48.000Z</time></trkpt>
        <trkpt lat="28.83343" lon="105.289924"><ele>322.4077</ele><time>2025-12-28T02:02:49.000Z</time></trkpt>
        <trkpt lat="28.833364" lon="105.289966"><ele>322.03076</ele><time>2025-12-28T02:02:50.000Z</time></trkpt>
        <trkpt lat="28.833298" lon="105.290002"><ele>321.66626</ele><time>2025-12-28T02:02:51.000Z</time></trkpt>
        <trkpt lat="28.833231" lon="105.290031"><ele>321.26797</ele><time>2025-12-28T02:02:52.000Z</time></trkpt>
        <trkpt lat="28.833166" lon="105.290055"><ele>320.7767</ele><time>2025-12-28T02:02:53.000Z</time></trkpt>
        <trkpt lat="28.833102" lon="105.29007"><ele>320.36722</ele><time>2025-12-28T02:02:54.000Z</time></trkpt>
        <trkpt lat="28.83304" lon="105.290077"><ele>320.0662</ele><time>2025-12-28T02:02:55.000Z</time></trkpt>
        <trkpt lat="28.83298" lon="105.290073"><ele>319.83978</ele><time>2025-12-28T02:02:56.000Z</time></trkpt>
        <trkpt lat="28.832925" lon="105.29006"><ele>319.64868</ele><time>2025-12-28T02:02:57.000Z</time></trkpt>
        <trkpt lat="28.832874" lon="105.290039"><ele>319.47552</ele><time>2025-12-28T02:02:58.000Z</time></trkpt>
        <trkpt lat="28.832829" lon="105.290009"><ele>319.21744</ele><time>2025-12-28T02:02:59.000Z</time></trkpt>
        <trkpt lat="28.83279" lon="105.289973"><ele>318.99448</ele><time>2025-12-28T02:03:00.000Z</time></trkpt>
        <trkpt lat="28.832719" lon="105.289911"><ele>318.45538</ele><time>2025-12-28T02:03:02.000Z</time></trkpt>
        <trkpt lat="28.832666" lon="105.289838"><ele>318.11853</ele><time>2025-12-28T02:03:04.000Z</time></trkpt>
        <trkpt lat="28.83262" lon="105.28978"><ele>318.09702</ele><time>2025-12-28T02:03:06.000Z</time></trkpt>
        <trkpt lat="28.832579" lon="105.289748"><ele>318.17828</ele><time>2025-12-28T02:03:08.000Z</time></trkpt>
        <trkpt lat="28.832588" lon="105.289792"><ele>318.75107</ele><time>2025-12-28T02:03:18.000Z</time></trkpt>
        <trkpt lat="28.832635" lon="105.289876"><ele>319.09634</ele><time>2025-12-28T02:03:23.000Z</time></trkpt>
      </trkseg>
  </trk>
</gpx>